[[[{"header":{"parameterUnit":"kt","parameterCategory":2,"dx":1,"dy":1,"la1":29.285339999999998,"la2":30.599998999999997,"lo1":-89.70041500000002,"lo2":-87.6738589999976,"nx":112,"ny":82,"refTime":"2022-09-26T06:00:00:Z","depth":0,"parameterNumber":1,"parameterNumberName":"U-component_of_WINDS"},"data":[17.6956,17.8314,17.8328,17.2745,17.1894,17.0892,16.4691,16.2525,16.1831,16.1656,16.0837,16.0211,0.0,0.0,0.0,0.0,0.0,0.0,0.0,15.6647,15.8681,16.0477,16.8016,17.4979,17.9961,18.3573,18.6744,18.9496,19.1351,19.2368,19.2368,19.1531,19.171,19.3027,19.2608,19.3206,19.496,19.7113,19.8679,19.9461,20.1582,20.2368,20.196,20.1588,20.1154,20.0627,19.9631,19.9221,19.9221,19.9221,19.9221,19.9221,19.9221,19.9221,19.9221,19.9221,19.9221,19.9221,19.9221,19.9221,19.9221,19.9221,19.9221,19.9221,19.9221,19.9221,19.9234,19.9848,19.9674,19.9234,19.9848,19.9616,19.9221,19.9221,19.9221,19.9221,19.9221,19.9221,19.9221,19.9221,19.9221,19.9221,19.9221,19.8814,19.8452,19.7883,19.7476,19.6532,19.4277,19.3637,19.2939,19.1615,19.1499,19.1499,19.1499,19.1499,19.1674,19.2139,19.2939,19.3637,19.4102,19.5718,19.6926,19.7288,19.8103,19.8859,19.9221,19.9221,19.9221,19.9221,19.9221,19.9221,17.1761,17.4194,17.5224,16.9084,16.9363,16.9419,16.2572,16.0726,16.0226,15.9727,16.0265,0.0,0.0,0.0,0.0,0.0,0.0,0.0,0.0,15.8835,16.3543,16.7263,17.4329,18.0213,18.3612,18.7502,19.0154,19.0992,19.2727,19.3326,19.2428,19.195,19.2129,19.3027,19.3883,19.496,19.6335,19.907,20.0403,20.0591,20.2553,20.3279,20.2923,20.2317,20.1588,20.0974,19.9812,19.9221,19.9221,19.9221,19.9221,19.9221,19.9221,19.9221,19.9221,19.9221,19.9221,19.9221,19.9221,19.9221,19.9221,19.9221,19.9221,19.9221,19.9221,19.9221,19.9221,19.9221,19.9221,19.9221,19.9221,19.9221,19.9221,19.9221,19.9221,19.9221,19.9221,19.9221,19.9221,19.9221,19.9221,19.9221,19.9221,19.9221,19.9046,19.8685,19.7463,19.6299,19.5543,19.4219,19.3113,19.2197,19.2488,19.243,19.1557,19.1848,19.2139,19.2139,19.2939,19.3811,19.4787,19.6358,19.7463,19.7883,19.8859,19.9221,19.9221,19.9221,19.9221,19.9221,19.9221,19.9221,16.9328,16.9722,16.9854,16.5396,16.3626,16.2584,16.0938,15.7688,15.5906,15.8854,0.0,16.0032,16.1289,16.0571,0.0,0.0,0.0,0.0,0.0,15.7425,16.6917,17.5102,17.9542,18.2908,18.5149,18.8838,19.1172,19.1172,19.3565,19.3823,19.1291,19.2368,19.3027,19.3027,19.5558,19.7694,19.901,20.16,20.2916,20.2916,20.4319,20.4858,20.4874,20.2938,20.1945,20.1767,20.0026,19.9267,19.9221,19.9221,19.9221,19.9221,19.9221,19.9221,19.9221,19.9221,19.9221,19.9221,19.9221,19.9221,19.9221,19.9221,19.9221,19.9221,19.9221,19.9221,19.9221,19.9221,19.9221,19.9221,19.9221,19.9221,19.9221,19.9221,19.9221,19.9221,19.9221,19.9221,19.9221,19.9221,19.9221,19.9221,19.9221,19.9221,19.8859,19.7521,19.6344,19.5382,19.5382,19.4277,19.3462,19.3404,19.4568,19.4277,19.1674,19.2662,19.3404,19.3346,19.3404,19.4612,19.7114,19.7334,19.787,19.9221,19.9221,19.9221,19.9221,19.9221,19.9221,19.9221,19.9221,19.9221,16.1791,16.4422,16.6921,16.2463,16.1466,16.0681,15.729,15.505,15.4277,15.6358,15.9041,0.0,0.0,0.0,16.2212,16.1733,0.0,16.5562,16.5024,16.9834,17.5024,17.9219,18.1647,18.4234,18.7701,19.0753,19.2907,19.3864,19.4541,19.4242,19.2608,19.2847,19.3027,19.3027,19.5558,19.7694,19.901,20.16,20.2916,20.2916,20.4319,20.4858,20.4874,20.3705,20.2731,20.196,20.0807,19.9858,19.9221,19.9221,19.9221,19.9221,19.9221,19.9221,19.9221,19.9221,19.9221,19.9221,19.9221,19.9221,19.9221,19.9221,19.9221,19.9221,19.9221,19.9221,19.9221,19.9221,19.9221,19.9221,19.9221,19.9221,19.9221,19.9221,19.9221,19.9221,19.9221,19.9221,19.9221,19.9221,19.9221,19.9221,19.9221,19.9221,19.9046,19.8859,19.7683,19.6707,19.6707,19.5556,19.4393,19.3521,19.4568,19.4277,19.1674,19.2662,19.2997,19.2023,19.2881,19.416,19.5731,19.6765,19.787,19.9221,19.9221,19.9221,19.9221,19.9221,19.9221,19.9221,19.9221,19.9221,15.8963,16.1397,16.4027,16.0187,16.0502,16.0405,15.5185,15.4923,15.5676,15.5739,0.0,0.0,0.0,0.0,0.0,0.0,16.7776,17.0732,16.8435,17.4837,18.0465,18.2108,18.4333,18.6684,18.913,19.2104,19.4122,19.5001,19.4421,19.3823,19.3045,19.3027,19.3266,19.3823,19.6934,19.9267,20.0583,20.272,20.3737,20.3737,20.4455,20.4858,20.4917,20.391,20.2894,20.196,20.0974,20.0026,19.9221,19.9221,19.9221,19.9221,19.9221,19.9221,19.9221,19.9221,19.9221,19.9221,19.9221,19.9221,19.9221,19.9221,19.9221,19.9221,19.9221,19.9221,19.9221,19.9221,19.9221,19.9221,19.9221,19.9221,19.9221,19.9221,19.9221,19.9221,19.9221,19.9221,19.9221,19.9221,19.9221,19.9221,19.9221,19.9221,19.9221,19.9221,19.8058,19.7463,19.8045,19.6894,19.595,19.5136,19.6138,19.5905,19.3346,19.3811,19.3695,19.2371,19.2488,19.2939,19.3695,19.5543,19.7301,19.9267,19.9221,19.9221,19.9221,19.9221,19.9221,19.9221,19.9221,19.9221,15.8634,15.9555,16.1042,15.8832,16.0358,16.0971,15.5254,0.0,15.9033,15.736,0.0,16.4605,16.6041,0.0,0.0,16.2545,17.0768,17.4919,16.6879,17.6251,18.4174,18.4653,18.7459,18.9572,19.0048,19.3051,19.496,19.496,19.3804,19.3027,19.3027,19.3027,19.3643,19.5139,19.901,20.16,20.2916,20.4319,20.4858,20.4858,20.4858,20.4858,20.4917,20.4101,20.3131,20.2138,20.1154,20.0207,19.9461,19.9267,19.9221,19.9221,19.9221,19.9221,19.9221,19.9221,19.9221,19.9221,19.9221,19.9221,19.9221,19.9221,19.9221,19.9221,19.9221,19.9221,19.9221,19.9221,19.9221,19.9221,19.9221,19.9221,19.9221,19.9221,19.9221,19.9221,19.9221,19.9221,19.9221,19.9221,19.9221,19.9221,19.9221,19.9221,19.9221,19.9221,19.8278,19.7883,19.9046,19.8278,19.7508,19.7288,19.8452,19.8278,19.5556,19.5369,19.4742,19.3521,19.2197,19.1499,19.1499,19.3986,19.6545,19.9267,19.9221,19.9221,19.9221,19.9221,19.9221,19.9221,19.9221,19.9221,15.51,15.5847,15.7557,15.9333,15.9655,15.9864,0.0,0.0,0.0,16.4564,16.6819,16.9033,17.1426,17.2922,17.4142,17.5278,17.8247,18.0162,17.9542,18.439,18.8439,18.9553,19.0313,19.115,19.2301,19.3979,19.496,19.496,19.3804,19.3027,19.3027,19.3027,19.4104,19.6515,19.9446,20.16,20.2916,20.4319,20.4858,20.4858,20.4858,20.4858,20.4858,20.4683,20.4086,20.3116,20.2138,20.1199,20.0207,19.9643,19.9221,19.9221,19.9221,19.9221,19.9221,19.9221,19.9221,19.9221,19.9221,19.9221,19.9221,19.9221,19.9221,19.9221,19.9221,19.9221,19.9221,19.9221,19.9221,19.9221,19.9221,19.9221,19.9221,19.9221,19.9221,19.9221,19.9221,19.9221,19.9221,19.9221,19.9221,19.9221,19.9221,19.9221,19.9221,19.9221,19.9092,19.9034,19.9221,19.9092,19.8452,19.7508,19.8452,19.8278,19.5556,19.5369,19.4742,19.3521,19.2197,19.1499,19.1499,19.3986,19.6545,19.9267,19.9221,19.9221,19.9221,19.9221,19.9221,19.9221,19.9221,19.9221,15.3086,15.4269,15.6242,15.7689,15.8421,0.0,0.0,16.1273,16.326,16.5844,16.8554,17.1247,17.3879,17.5936,17.7731,17.9009,18.2017,18.4689,18.6006,18.8519,19.0334,19.0992,19.165,19.2548,19.3883,19.4541,19.5157,19.5917,19.4122,19.3326,19.3943,19.3344,19.4582,19.7891,20.0027,20.1942,20.3916,20.4455,20.4858,20.4858,20.4858,20.4858,20.4858,20.4858,20.4289,20.3484,20.2938,20.1974,20.0627,20.0026,20.0052,19.9799,19.9403,19.9221,19.9221,19.9221,19.9221,19.9221,19.9221,19.9221,19.9221,19.9221,19.9221,19.9221,19.9221,19.9221,19.9221,19.9221,19.9221,19.9221,19.9221,19.9221,19.9221,19.9221,19.9221,19.9221,19.9221,19.9221,19.9221,19.9221,19.9221,19.9221,19.9221,19.9221,19.9221,19.9221,19.9221,19.9221,19.9221,19.9221,19.9034,19.829,19.8814,19.8697,19.7463,19.6125,19.5136,19.4393,19.2546,19.1499,19.1499,19.3986,19.5905,19.7288,19.8685,19.9221,19.9221,19.9221,19.9221,19.9221,19.9221,19.9221,15.0939,15.2847,15.5321,15.6439,15.7946,0.0,15.9786,16.2569,16.557,16.7704,17.0708,17.376,17.6393,17.8808,18.0483,18.0722,18.459,18.8041,18.9317,19.0394,19.1291,19.177,19.2787,19.3883,19.5199,19.5378,19.5737,19.6874,19.4762,19.3823,19.5001,19.3943,19.5139,19.9207,20.0583,20.254,20.4858,20.4858,20.4858,20.4858,20.4858,20.4858,20.4858,20.4858,20.448,20.369,20.3513,20.2539,20.1212,20.0807,20.0568,20.0582,19.9631,19.9221,19.9221,19.9221,19.9221,19.9221,19.9221,19.9221,19.9221,19.9221,19.9221,19.9221,19.9221,19.9221,19.9221,19.9221,19.9221,19.9221,19.9221,19.9221,19.9221,19.9221,19.9221,19.9221,19.9221,19.9221,19.9221,19.9221,19.9221,19.9221,19.9221,19.9221,19.9221,19.9221,19.9221,19.9221,19.9221,19.9221,19.9221,19.9221,19.9221,19.9221,19.9221,19.7114,19.5776,19.5776,19.3521,19.2081,19.1848,19.4102,19.5149,19.4975,19.7301,19.8685,19.8814,19.8685,19.8685,19.8872,19.9001,19.9221,14.697,14.9821,15.3307,15.8387,16.0055,0.0,16.9556,17.0884,17.1935,17.67,17.809,17.9167,18.1936,18.3612,18.4988,18.6125,18.7801,18.9377,19.0693,19.0992,19.195,19.4242,19.4601,19.536,19.6533,19.6694,19.6712,19.6934,19.5558,19.478,19.496,19.478,19.6515,20.0583,20.1959,20.3335,20.4858,20.4858,20.4858,20.4858,20.4858,20.4858,20.4858,20.4858,20.4874,20.4699,20.3925,20.3293,20.3146,20.1392,20.0568,20.0582,19.9631,19.9221,19.9221,19.9221,19.9221,19.9221,19.9221,19.9221,19.9221,19.9221,19.9221,19.9221,19.9221,19.9221,19.9221,19.9221,19.9221,19.9221,19.9221,19.9221,19.9221,19.9221,19.9221,19.9221,19.9221,19.9221,19.9221,19.9221,19.9221,19.9221,19.9221,19.9221,19.9221,19.9221,19.9221,19.9221,19.9221,19.9221,19.9221,19.9221,19.9221,19.9221,19.9221,19.787,19.7101,19.7101,19.5718,19.4393,19.323,19.4568,19.48,19.3637,19.4975,19.6358,19.7463,19.6358,19.6313,19.7521,19.8639,19.9221,14.5129,14.868,15.2781,15.7713,0.0,0.0,16.9117,17.1051,17.2696,17.7119,17.9286,18.1179,18.3911,18.5467,18.6784,18.81,18.8819,18.9556,19.0873,19.177,19.2907,19.478,19.5516,19.6335,19.6874,19.6934,19.6934,19.6934,19.6294,19.5337,19.3883,19.4541,19.6916,20.0822,20.2361,20.3514,20.4858,20.4858,20.4858,20.4858,20.4858,20.4858,20.4858,20.4858,20.4858,20.4917,20.448,20.4057,20.3544,20.2539,20.1974,20.1392,20.0446,19.9618,19.9221,19.9221,19.9221,19.9221,19.9221,19.9221,19.9221,19.9221,19.9221,19.9221,19.9221,19.9221,19.9221,19.9221,19.9221,19.9221,19.9221,19.9221,19.9221,19.9221,19.9221,19.9221,19.9221,19.9221,19.9221,19.9221,19.9221,19.9221,19.9221,19.9221,19.9221,19.9221,19.9221,19.9221,19.9221,19.9221,19.9221,19.9221,19.9221,19.9221,19.9221,19.8045,19.7288,19.7288,19.6125,19.4742,19.3462,19.4581,19.4787,19.3462,19.4787,19.5556,19.6125,19.48,19.4961,19.6138,19.7521,19.8465,14.412,0.0,0.0,0.0,0.0,0.0,17.0937,17.2497,17.364,17.7551,18.0162,18.2475,18.4809,18.6305,18.7622,18.8938,18.9137,18.9556,19.0873,19.2189,19.3464,19.478,19.6156,19.6934,19.6934,19.6934,19.6934,19.6934,19.6533,19.5378,19.3146,19.4242,19.6916,20.0822,20.2557,20.3916,20.4858,20.4858,20.4858,20.4858,20.4858,20.4858,20.4858,20.4858,20.4858,20.4858,20.4858,20.4524,20.3925,20.372,20.2953,20.1974,20.0974,19.9981,19.9221,19.9221,19.9221,19.9221,19.9221,19.9221,19.9221,19.9221,19.9221,19.9221,19.9221,19.9221,19.9221,19.9221,19.9221,19.9221,19.9221,19.9221,19.9221,19.9221,19.9221,19.9221,19.9221,19.9221,19.9221,19.9221,19.9221,19.9221,19.9221,19.9221,19.9221,19.9221,19.9221,19.9221,19.9221,19.9221,19.9221,19.9221,19.9221,19.9221,19.9221,19.8497,19.787,19.787,19.6894,19.595,19.4612,19.4975,19.4787,19.3462,19.3986,19.4393,19.48,19.3521,19.3521,19.48,19.5731,19.7114,0.0,0.0,0.0,16.4685,16.6694,16.9369,17.901,17.8125,17.6333,18.0222,18.2235,18.3651,18.4988,18.6305,18.7622,18.8938,18.9137,18.9556,19.0873,19.2189,19.3464,19.478,19.6156,19.6934,19.6934,19.6934,19.6934,19.6934,19.5737,19.4361,19.3146,19.4242,19.6916,20.0822,20.3541,20.4858,20.4858,20.4858,20.4858,20.4858,20.4858,20.4858,20.4858,20.4858,20.4858,20.4858,20.4858,20.4917,20.4727,20.3925,20.2953,20.1974,20.0974,19.9981,19.9221,19.9221,19.9221,19.9221,19.9221,19.9221,19.9221,19.9221,19.9221,19.9221,19.9221,19.9221,19.9221,19.9221,19.9221,19.9221,19.9221,19.9221,19.9221,19.9221,19.9221,19.9221,19.9221,19.9221,19.9221,19.9221,19.9221,19.9221,19.9221,19.9221,19.9221,19.9221,19.9221,19.9221,19.9221,19.9221,19.9221,19.9221,19.9221,19.9221,19.9221,19.9267,19.9267,19.9267,19.9267,19.8465,19.7334,19.5905,19.4787,19.3462,19.2197,19.2197,19.3462,19.2139,19.2197,19.3462,19.3521,19.4961,14.743,15.394,16.0714,16.896,17.3265,17.6557,18.0607,18.1194,18.0934,18.1102,18.2295,18.3711,18.5028,18.6305,18.7622,18.8938,18.9137,18.9556,19.0873,19.2189,19.3464,19.478,19.6156,19.6934,19.6934,19.6934,19.6934,19.6934,19.6515,19.536,19.3146,19.5181,19.6874,19.825,20.0822,20.3122,20.4858,20.4858,20.4858,20.4858,20.4858,20.4858,20.4858,20.4858,20.4858,20.4858,20.4858,20.4858,20.4917,20.4464,20.3925,20.2953,20.1974,20.1033,20.0026,19.9449,19.9221,19.9221,19.9221,19.9221,19.9221,19.9221,19.9221,19.9221,19.9221,19.9221,19.9221,19.9221,19.9221,19.9221,19.9221,19.9221,19.9221,19.9221,19.9221,19.9221,19.9221,19.9221,19.9221,19.9221,19.9221,19.9221,19.9221,19.9221,19.9221,19.9221,19.9221,19.9221,19.9221,19.9221,19.9221,19.9221,19.9221,19.9221,19.9221,19.9221,19.9221,19.9221,19.9221,19.8685,19.7288,19.6926,19.5556,19.3462,19.2997,19.2997,19.3404,19.2997,19.2546,19.2139,19.2997,19.387,15.0455,15.736,16.3778,17.2577,17.8413,18.2063,18.2259,18.3393,18.3776,18.1632,18.2295,18.3711,18.5028,18.5946,18.7083,18.8878,18.9137,18.9436,19.0274,19.189,19.3344,19.4182,19.5755,19.6934,19.6934,19.6934,19.6934,19.6934,19.6138,19.496,19.3763,19.4361,19.5779,19.7694,19.9429,20.1762,20.4858,20.4858,20.4858,20.4858,20.4858,20.4858,20.4858,20.4858,20.4858,20.4858,20.4858,20.4858,20.4858,20.4858,20.4305,20.3544,20.2761,20.1795,20.0582,19.9994,19.9436,19.9221,19.9221,19.9221,19.9221,19.9221,19.9221,19.9221,19.9221,19.9221,19.9221,19.9221,19.9221,19.9221,19.9221,19.9221,19.9221,19.9221,19.9221,19.9221,19.9221,19.9221,19.9221,19.9221,19.9221,19.9221,19.9221,19.9221,19.9221,19.9221,19.9221,19.9221,19.9221,19.9221,19.9221,19.9221,19.9221,19.9221,19.9221,19.9221,19.9221,19.9221,19.9221,19.8872,19.8045,19.7521,19.6532,19.48,19.4335,19.4102,19.4102,19.4102,19.3695,19.2881,19.3753,19.4102,15.302,16.0557,16.7197,17.5706,18.218,18.6005,18.4122,18.4804,18.5,18.185,18.2235,18.3591,18.4869,18.5325,18.6263,18.8639,18.9118,18.9137,18.9137,19.1291,19.2967,19.3027,19.536,19.6874,19.6934,19.6934,19.6934,19.6934,19.4601,19.3703,19.478,19.2608,19.3625,19.8651,19.9052,20.0762,20.4694,20.4858,20.4858,20.4858,20.4858,20.4858,20.4858,20.4858,20.4858,20.4858,20.4858,20.4858,20.4858,20.4858,20.4289,20.3513,20.3529,20.2317,20.0807,20.0614,20.0026,19.9267,19.9221,19.9221,19.9221,19.9221,19.9221,19.9221,19.9221,19.9221,19.9221,19.9221,19.9221,19.9221,19.9221,19.9221,19.9221,19.9221,19.9221,19.9221,19.9221,19.9221,19.9221,19.9221,19.9221,19.9221,19.9221,19.9221,19.9221,19.9221,19.9221,19.9221,19.9221,19.9221,19.9208,19.9436,19.9461,19.9208,19.9436,19.9461,19.9221,19.9221,19.9221,19.9221,19.9221,19.8045,19.7288,19.7288,19.6125,19.5543,19.5588,19.5588,19.5382,19.5369,19.5369,19.5369,15.6373,16.7289,17.5509,18.1033,18.7534,19.1006,18.5068,18.6549,18.757,18.2249,18.1457,18.2116,18.3531,18.6374,18.8335,18.778,18.8479,18.9137,18.9137,19.0513,19.195,19.2907,19.4421,19.5958,19.6916,19.6934,19.6934,19.6934,19.6335,19.5199,19.3584,19.3864,19.4541,19.5917,19.8095,20.0446,20.3335,20.4499,20.4858,20.4858,20.4858,20.4858,20.4858,20.4858,20.4858,20.4858,20.4858,20.4858,20.4858,20.4858,20.4683,20.448,20.3734,20.3116,20.2539,20.1212,20.0433,20.022,19.9449,19.9221,19.9221,19.9221,19.9221,19.9221,19.9221,19.9221,19.9221,19.9221,19.9221,19.9221,19.9221,19.9221,19.9221,19.9221,19.9221,19.9221,19.9221,19.9221,19.9221,19.9221,19.9221,19.9221,19.9221,19.9221,19.9221,19.9221,19.9221,19.9221,19.9221,19.9221,20.0194,20.2923,20.0825,20.0181,20.2967,20.078,19.9221,19.9221,19.9221,19.9221,19.9221,19.8872,19.8278,19.7288,19.7883,19.7709,19.672,19.672,19.6299,19.5369,19.5369,19.48,15.2823,16.5408,17.6786,18.1888,18.8069,19.1474,18.5964,18.7617,18.8932,18.4148,18.3138,18.3144,18.3286,18.5247,18.6952,18.7122,18.7801,18.8519,18.9018,19.0274,19.1591,19.2907,19.4182,19.554,19.6712,19.6934,19.6934,19.6934,19.6294,19.5337,19.3943,19.3505,19.3763,19.496,19.6497,19.8831,20.1959,20.3318,20.4275,20.4858,20.4858,20.4858,20.4858,20.4858,20.4858,20.4858,20.4858,20.4858,20.4858,20.4858,20.4858,20.4874,20.4305,20.3925,20.3352,20.1781,20.1033,20.0433,19.9643,19.9221,19.9221,19.9221,19.9221,19.9221,19.9221,19.9221,19.9221,19.9221,19.9221,19.9221,19.9221,19.9221,19.9221,19.9221,19.9221,19.9221,19.9221,19.9221,19.9221,19.9221,19.9221,19.9221,19.9221,19.9221,19.9221,19.9221,19.9221,19.9221,19.9221,19.9221,20.0026,20.1961,20.1783,20.2347,20.434,20.4078,20.3919,20.3919,20.2391,20.1574,20.1574,20.0013,19.8872,19.8058,20.1947,20.3502,20.2726,20.1178,20.0028,19.9232,19.7865,19.6313,14.8614,16.0805,17.4156,18.0601,18.6228,18.9451,18.67,18.8222,18.9407,18.6079,18.5832,18.5579,18.3189,18.3402,18.4578,18.6624,18.7083,18.7681,18.8998,19.0095,19.1291,19.2608,19.3883,19.5199,19.6515,19.6712,19.6934,19.6934,19.5958,19.5139,19.496,19.2668,19.2368,19.4601,19.4941,19.6694,20.0446,20.2181,20.3498,20.4678,20.4901,20.4858,20.4858,20.4858,20.4858,20.4858,20.4858,20.4858,20.4858,20.4858,20.4858,20.4858,20.4858,20.4496,20.3513,20.2539,20.1588,20.0794,20.0052,19.9436,19.9403,19.9403,19.9416,19.9221,19.9221,19.9221,19.9221,19.9221,19.9221,19.9221,19.9221,19.9221,19.9221,19.9221,19.9221,19.9221,19.9221,19.9208,19.9403,19.9403,19.9403,19.9403,19.9403,19.9208,19.9221,19.9221,19.9221,19.9221,19.9221,19.9221,19.9449,19.9786,20.2761,20.4732,20.5047,20.7981,20.9721,20.9721,20.6835,20.5297,20.5297,20.2317,20.0645,20.0645,20.6639,20.9721,20.9782,20.6621,20.5297,20.5107,20.2154,19.9987,15.8124,16.5488,17.1931,18.1362,18.6228,18.8236,18.6442,18.8222,18.9054,18.4796,18.6835,18.7557,18.1083,18.3819,18.6711,18.5721,18.6484,18.7681,18.8998,18.9317,18.9975,19.1232,19.2548,19.3883,19.5139,19.6335,19.6934,19.6934,19.6694,19.6156,19.496,19.3464,19.2866,19.3386,19.4361,19.5755,19.7694,20.1181,20.3139,20.3318,20.4275,20.4858,20.4858,20.4858,20.4858,20.4858,20.4858,20.4858,20.4858,20.4858,20.4858,20.4858,20.4858,20.4874,20.4464,20.3557,20.3131,20.2968,20.1767,20.0974,20.0401,20.0401,19.9799,19.9221,19.9221,19.9221,19.9221,19.9221,19.9221,19.9221,19.9221,19.9221,19.9221,19.9221,19.9221,19.9221,19.9221,19.9858,20.0401,20.0401,20.0401,20.0401,20.0401,19.9825,19.9221,19.9221,19.9221,19.9221,19.9221,19.9221,20.0433,20.3364,20.4122,20.5669,20.857,20.9346,20.9721,20.9721,20.9138,20.8761,20.8761,20.8173,20.7999,20.7999,20.9157,20.9721,20.9721,20.9157,20.8761,20.8761,20.8192,20.7208,15.5256,16.2686,16.9328,17.5706,18.1756,18.6101,18.6093,18.8358,18.9341,18.5603,18.71,18.7991,18.4457,18.537,18.6656,18.6574,18.7641,18.8414,18.8161,18.8699,18.9616,19.0932,19.165,19.2787,19.478,19.5558,19.6114,19.6874,19.6934,19.6335,19.4918,19.3703,19.2727,19.2009,19.2608,19.3883,19.5917,19.8489,20.0822,20.2916,20.3514,20.4319,20.4858,20.4858,20.4858,20.4858,20.4858,20.4858,20.4858,20.4858,20.4858,20.4858,20.4858,20.4858,20.4727,20.3881,20.3529,20.3352,20.2361,20.1795,20.1185,20.0807,20.0252,19.9994,19.9994,19.9994,19.9994,19.9994,19.9994,19.9858,19.9461,19.9221,19.9221,19.9221,19.9221,19.9221,19.9221,19.9994,20.0568,20.0568,20.0974,20.1392,20.1392,20.1033,20.0614,20.0614,20.0614,20.0614,20.0614,20.0207,20.1381,20.5453,20.6621,20.8761,21.2856,21.4379,21.4607,21.2675,21.2656,21.1678,20.9762,21.3259,21.54,21.54,21.54,21.54,21.54,21.3442,21.2656,21.2451,21.0713,20.9352,15.2099,16.0213,16.8039,17.1169,17.7613,18.3663,18.5767,18.7937,18.8735,18.5733,18.64,18.7481,18.7115,18.6562,18.6592,18.8074,18.8839,18.9056,18.8228,18.848,18.9197,19.0513,19.0932,19.189,19.3984,19.4601,19.5378,19.6353,19.6754,19.6515,19.5337,19.4122,19.2847,19.1531,19.1531,19.2488,19.4582,19.6156,19.8848,20.254,20.2736,20.3721,20.4858,20.4722,20.4499,20.4499,20.4694,20.4858,20.4858,20.4858,20.4858,20.4858,20.4858,20.4858,20.4874,20.4145,20.3941,20.3749,20.2894,20.2554,20.2183,20.1364,20.0988,20.0614,20.0794,20.0807,20.0614,20.0839,20.0807,20.0388,19.9618,19.9461,19.9416,19.9825,19.9618,19.9631,19.9812,20.0627,20.1199,20.1199,20.1781,20.2376,20.2376,20.2138,20.2168,20.2953,20.3672,20.4138,20.4138,20.348,20.4324,20.7793,21.0136,21.261,21.6147,21.9106,21.9448,21.6548,21.6352,21.5004,21.2064,21.7481,22.0445,22.0445,22.0445,22.0445,22.0445,21.7699,21.6352,21.6108,21.3464,21.2045,15.7467,16.3976,16.9696,17.3904,17.752,18.1136,18.5241,18.6425,18.5818,18.2891,18.4397,18.5808,18.45,18.6177,18.8229,18.9638,18.8816,18.8746,19.0944,18.9,18.7861,18.9137,19.0334,19.1172,19.1411,19.3584,19.496,19.5139,19.6317,19.6874,19.6754,19.5558,19.4182,19.2907,19.2847,19.2967,19.3206,19.5779,19.8267,20.1224,20.2318,20.3721,20.4858,20.3677,20.3139,20.3155,20.4275,20.4858,20.4858,20.4858,20.4858,20.4858,20.4858,20.4858,20.4917,20.4874,20.4683,20.4683,20.4699,20.4086,20.3352,20.3367,20.196,20.0807,20.1602,20.1185,20.0749,20.1543,20.1185,20.0568,20.0375,19.9799,19.9676,20.1378,20.1005,20.0807,20.1557,20.2554,20.3323,20.3323,20.3308,20.3293,20.3293,20.2539,20.2982,20.6022,20.9182,21.1123,21.1123,21.1082,21.1102,21.1469,21.4832,21.6747,21.6358,21.9471,22.1017,22.0004,22.0031,21.9815,21.9448,22.008,22.0445,22.0445,22.0445,22.0445,22.0445,22.008,22.0031,21.9865,21.9664,21.9448,14.8482,15.5321,16.17,16.4264,17.038,17.6627,18.0178,18.0967,18.1404,18.2906,18.4709,18.6644,18.8795,19.0017,19.116,19.2691,19.1536,19.0448,19.046,18.8591,18.7681,18.8958,18.9616,19.0214,19.0992,19.2009,19.3266,19.478,19.5337,19.6096,19.6874,19.5779,19.4361,19.3045,19.2249,19.189,19.189,19.3685,19.5958,19.8447,20.0027,20.2376,20.5472,20.4883,20.5066,20.5893,20.4285,20.4096,20.4858,20.4858,20.4858,20.4858,20.4858,20.4858,20.4858,20.4858,20.4858,20.4858,20.4858,20.4699,20.4321,20.3705,20.2938,20.2361,20.2761,20.2731,20.2361,20.2761,20.2583,20.2183,20.1602,20.0807,20.0446,20.1588,20.1795,20.1557,20.196,20.2761,20.3529,20.3529,20.391,20.5092,20.7009,20.6992,20.7952,21.1289,21.3035,21.3815,21.3815,21.3415,21.4031,21.6547,21.7343,21.8316,22.0075,22.1,22.0418,21.7506,21.9258,22.0793,22.176,22.1417,22.1194,22.1194,22.0606,22.0445,22.0445,22.0445,22.0445,22.0445,22.0445,22.0445,14.2959,14.9272,15.5716,15.7582,16.4356,17.1525,17.4813,17.5246,17.643,18.1662,18.4519,18.7173,19.0696,19.1985,19.2833,19.3935,19.3074,19.2175,19.1819,19.0371,18.9461,18.9833,19.0297,19.0501,19.0475,19.1684,19.2868,19.3726,19.5371,19.6336,19.6317,19.5755,19.496,19.3685,19.2368,19.165,19.165,19.2189,19.3943,19.6934,19.8821,20.1597,20.4664,20.4133,20.431,20.5099,20.428,20.4488,20.5823,20.683,20.6859,20.6254,20.5293,20.4858,20.4858,20.4858,20.4858,20.4858,20.4858,20.4858,20.4727,20.4086,20.3749,20.3529,20.3881,20.3749,20.3529,20.3881,20.3749,20.3352,20.2524,20.196,20.1751,20.2569,20.2569,20.2539,20.2746,20.3321,20.4321,20.525,20.5866,20.7436,21.0919,21.1474,21.2656,21.5957,21.6567,21.6917,21.7881,21.7535,21.8098,22.1214,22.0406,22.062,22.2935,22.2569,22.0851,21.7713,21.9853,22.1612,22.2781,22.2202,22.2009,22.2009,22.1389,22.1045,22.082,22.082,22.0606,22.0445,22.0445,22.0445,14.4974,14.9314,15.4442,15.7319,16.1397,16.5843,17.0117,17.0051,17.1011,17.8149,18.3174,18.6688,18.8099,19.0699,19.2642,19.2642,19.2532,19.3467,19.6327,19.5368,19.3666,19.185,19.2874,19.2558,18.9439,19.311,19.4353,19.1356,19.6293,19.8317,19.5167,19.6114,19.6335,19.496,19.3643,19.3027,19.3027,19.177,19.3086,19.6874,20.0409,20.1941,20.1983,20.003,19.9052,19.9444,20.3924,20.6629,20.8186,21.1482,21.1653,20.955,20.6229,20.4858,20.4858,20.4858,20.4858,20.4858,20.4858,20.4858,20.4858,20.4917,20.4321,20.3705,20.4715,20.4321,20.3705,20.4715,20.4277,20.3529,20.3484,20.3484,20.3749,20.4655,20.413,20.369,20.4699,20.4917,20.584,20.9173,20.9945,21.094,21.4402,21.4997,21.6177,21.9441,22.0032,22.1214,22.4492,22.4883,22.5116,22.5086,22.5086,22.47,22.3948,22.3978,22.3552,22.2752,22.2781,22.2752,22.2752,22.2752,22.2752,22.2752,22.2752,22.2349,22.1575,22.1575,22.1231,22.0445,22.0445,22.0445,14.0635,14.5632,15.131,15.3175,15.7623,16.2463,16.5751,16.8512,17.1301,17.4523,17.7876,18.1559,18.603,19.0831,19.4351,19.553,19.4741,19.3961,19.367,19.322,19.2602,19.1879,19.2076,19.3148,19.5362,19.2885,19.2967,19.7078,19.5919,19.5932,19.8095,19.7284,19.6335,19.496,19.4541,19.3505,19.171,19.4257,19.6306,19.7666,20.176,20.5027,20.7217,20.7573,20.8216,20.8983,20.8185,20.8575,20.9966,21.0926,21.1648,21.189,21.1918,21.03,20.8412,20.8412,20.6795,20.4858,20.4858,20.4858,20.4858,20.4858,20.4699,20.4524,20.4874,20.4699,20.4524,20.4874,20.4699,20.448,20.448,20.448,20.4464,20.4874,20.4699,20.4464,20.4874,20.4858,20.531,20.6211,20.6427,20.7564,21.094,21.3419,21.6153,21.9415,22.2016,22.3919,22.4914,22.5121,22.5121,22.5121,22.5121,22.4736,22.3883,22.3912,22.3552,22.2789,22.3732,22.4343,22.4343,22.3906,22.3552,22.3552,22.2942,22.2541,22.2386,22.1834,22.1427,22.1166,22.0606,22.0445,13.9737,14.434,14.9074,15.1137,15.4293,15.782,16.1214,16.4133,16.6987,17.0144,17.3038,17.6627,18.1953,18.8529,19.3299,19.3755,19.4753,19.5326,19.4242,19.4967,19.534,19.4566,19.4953,19.5546,19.6524,19.5349,19.5355,19.7672,19.7673,19.7871,19.8852,19.8279,19.7287,19.5719,19.6361,19.591,19.442,19.6679,19.9274,20.2375,20.527,20.7786,21.0337,20.995,20.9939,21.0147,20.9914,21.0339,21.1303,21.3014,21.3811,21.4008,21.4973,21.3644,21.1058,21.1697,20.9717,20.6813,20.6813,20.6073,20.4858,20.4858,20.4858,20.4858,20.4858,20.4858,20.4858,20.4858,20.4858,20.4858,20.4858,20.4858,20.4858,20.4858,20.4858,20.4858,20.4858,20.4858,20.5624,20.8224,20.8773,21.0154,21.4815,21.7317,21.9441,22.1584,22.371,22.5121,22.5121,22.5121,22.5121,22.5121,22.5121,22.4944,22.4277,22.4343,22.4128,22.3725,22.4522,22.5121,22.5121,22.4694,22.4343,22.4343,22.3942,22.3545,22.3189,22.2781,22.2414,22.2018,22.1603,22.1194,14.1469,14.4757,14.7628,15.0479,15.1531,15.3044,15.7253,15.8042,15.9423,16.5014,16.85,17.1827,17.5904,18.386,18.9516,18.8954,19.3492,19.7113,19.6895,19.9417,20.0592,19.8859,20.0002,19.9266,19.4977,19.9614,20.0574,19.5173,20.098,20.272,19.8493,19.9263,19.9044,19.747,19.9248,20.0186,20.0186,19.923,20.2589,21.0134,20.9743,21.0481,21.172,20.8769,20.6815,20.569,20.9949,21.1892,21.2272,21.6525,21.7171,21.5745,21.5745,21.4761,21.3419,21.4612,21.3053,21.0114,21.0114,20.7994,20.525,20.525,20.5076,20.4858,20.4858,20.4858,20.4858,20.4858,20.4858,20.4858,20.4858,20.4858,20.4858,20.4858,20.4858,20.4901,20.5266,20.525,20.718,21.3598,21.4974,21.6931,22.3378,22.4492,22.4736,22.4736,22.4914,22.5121,22.5121,22.5121,22.5121,22.4924,22.5056,22.5121,22.4924,22.5056,22.4924,22.453,22.453,22.453,22.453,22.453,22.453,22.4696,22.4696,22.4306,22.3955,22.3716,22.3552,22.276,22.2752,22.2349,13.9013,14.2476,14.5698,14.6378,15.0784,15.5716,15.8938,15.7952,15.7122,15.9555,16.3278,16.6671,16.8894,17.6364,18.462,19.205,19.5368,19.6719,19.5523,19.7884,19.925,19.7477,19.8491,20.0213,20.2778,20.0786,20.0993,20.4261,20.2759,20.194,20.3362,20.2321,20.2167,20.2948,20.3305,20.3538,20.3715,20.5805,20.8964,21.3222,21.1901,21.2072,21.3842,21.423,21.4012,21.3656,21.3863,21.3811,21.3814,21.3807,21.4197,21.4789,21.5936,21.676,21.7143,21.5965,21.4172,21.2056,21.2056,21.0689,20.8773,20.8773,20.7027,20.4858,20.4858,20.4858,20.4858,20.4858,20.4858,20.4858,20.4858,20.4858,20.4858,20.4858,20.4858,20.564,20.8182,20.8773,20.9947,21.4242,21.4974,21.555,21.7111,21.9441,22.1214,22.1214,22.3356,22.5121,22.5121,22.5121,22.4696,22.3513,22.4499,22.4696,22.3513,22.4499,22.3149,21.8844,21.8515,21.8515,21.8515,21.8515,21.9041,22.0194,22.026,22.1207,22.3165,22.2598,22.2794,22.3725,22.2942,22.2577,13.9605,14.3748,14.6224,14.287,14.6487,15.1113,15.2033,15.2033,15.2296,15.3833,15.7557,16.1543,16.5054,17.0616,17.7783,18.7346,19.1817,19.4187,19.4769,19.6729,19.8647,19.9846,20.004,20.1211,20.4341,20.2915,20.293,20.5478,20.4492,20.4129,20.5082,20.4092,20.3514,20.3493,20.5071,20.6235,20.7008,21.0134,21.2638,21.4404,21.4009,21.4404,21.5359,21.6148,21.6148,21.5556,21.5424,21.503,21.4372,21.3617,21.3649,21.4438,21.4603,21.5359,21.6535,21.5591,21.4792,21.4439,21.342,21.1874,21.0306,21.1132,21.0117,20.8378,20.7406,20.718,20.6795,20.5277,20.7198,20.955,20.955,20.955,20.955,20.955,20.955,20.9927,21.1862,21.2229,21.3218,21.6723,21.7343,21.7741,21.9457,22.0623,22.137,22.137,22.2384,22.3184,22.3184,22.3184,22.2754,22.2,22.2724,22.2754,22.2,22.1965,22.0817,21.7695,21.6971,21.6542,21.6542,21.6542,21.6971,21.7695,21.7695,21.8484,22.0062,21.9646,22.0057,22.16,22.101,22.1438,14.0811,14.5283,14.7036,14.1095,14.2147,14.4405,14.3442,14.4889,14.697,14.8745,15.2757,15.7426,16.2529,16.6606,17.1761,17.9351,18.5636,19.0735,19.4285,19.6157,19.8459,20.237,20.1944,20.1801,20.2762,20.4514,20.5074,20.3698,20.6279,20.72,20.5694,20.5456,20.4911,20.3551,20.628,20.8203,20.953,21.2229,21.3813,21.401,21.5556,21.6148,21.6148,21.6345,21.5985,21.4833,21.5753,21.5556,21.4438,21.4175,21.401,21.3978,21.2663,21.3025,21.401,21.401,21.4833,21.5741,21.42,21.2471,21.1083,21.2448,21.2666,21.1875,21.0711,21.0343,20.9723,20.6817,21.0281,21.4974,21.4974,21.4974,21.4974,21.4974,21.4974,21.5195,21.5541,21.5761,21.6737,22.0246,22.0649,22.137,22.4301,22.3579,22.2592,22.2592,22.1606,22.0817,22.0817,22.0817,22.0817,22.0453,22.0585,22.0585,22.0225,21.9273,21.8286,21.7331,21.5951,21.5161,21.5161,21.5161,21.5393,21.5556,21.5556,21.5753,21.6148,21.6148,21.6971,21.8286,21.8286,21.9255,13.8663,14.1512,14.3902,14.3988,14.3616,14.3442,14.4471,14.4077,14.4297,14.697,15.1968,15.6505,15.8634,16.5474,17.1564,17.409,18.0441,18.7316,19.3891,19.6157,19.7898,19.9642,20.076,20.1391,20.1599,20.4119,20.5465,20.5271,20.6845,20.76,20.7434,20.7401,20.7759,20.8729,20.9396,20.9563,20.9958,21.0358,21.1282,21.263,21.4044,21.4767,21.4767,21.5951,21.6345,21.6148,21.5161,21.4602,21.4372,21.3057,21.263,21.2664,21.2268,21.2466,21.263,21.263,21.2663,21.3024,21.3995,21.302,21.1689,21.3072,21.1492,20.9551,21.1671,21.247,21.2249,21.167,21.3222,21.4974,21.4974,21.4974,21.4974,21.4974,21.4974,21.5761,21.8684,21.9253,22.0257,22.3739,22.333,22.2756,22.3179,22.2167,22.1211,22.1211,22.1014,22.0817,22.0817,22.0817,22.0457,21.9041,22.0028,21.983,21.7331,21.8089,21.6576,21.1511,20.9901,20.9145,20.9145,20.9145,20.9704,21.092,21.092,21.2268,21.4767,21.4767,21.5391,21.6905,21.6905,21.71,13.9145,14.1249,14.285,14.2696,14.2761,14.3047,14.3705,14.3945,14.4405,14.5721,15.0061,15.4491,15.7516,16.258,16.7842,17.2446,17.7285,18.2743,18.9253,19.4215,19.7898,20.02,20.0203,20.0826,20.237,20.293,20.3885,20.5463,20.6284,20.7007,20.7829,20.7796,20.8158,20.8783,20.8783,20.8783,20.8783,20.9539,21.0328,21.1118,21.2465,21.3254,21.3254,21.4767,21.5359,21.5359,21.5556,21.5556,21.5424,21.4044,21.3452,21.342,21.2664,21.2236,21.2236,21.2236,21.1676,21.1282,21.2663,21.208,21.1077,21.3226,21.3026,21.1874,21.3041,21.3418,21.3811,21.4621,21.6334,21.8112,21.8112,21.9273,22.0406,22.0406,21.9826,21.9653,22.1248,22.1017,22.0992,22.2574,22.2163,22.1803,22.1803,22.0619,21.9668,21.9668,21.9076,21.8515,21.8515,21.8515,21.7923,21.6542,21.6937,21.6542,21.4406,21.559,21.4833,21.1512,21.0493,21.0098,21.0098,21.0098,21.0526,21.1117,21.0328,21.0295,21.092,21.092,21.1446,21.3057,21.3057,21.3846,14.2258,0.0,14.4757,14.4011,14.4099,14.4297,0.0,14.4734,14.55,14.55,14.9009,15.3307,15.7319,16.0673,16.4856,17.1196,17.4616,17.8562,18.4416,19.0861,19.6517,20.0432,19.9808,20.0006,20.237,20.1747,20.237,20.4509,20.5298,20.6054,20.7205,20.7599,20.7796,20.7796,20.7796,20.7796,20.7796,20.898,20.9309,20.9572,21.0953,21.1676,21.1676,21.3254,21.3813,21.3978,21.4964,21.559,21.5359,21.4406,21.401,21.4207,21.2828,21.2499,21.2663,21.2466,21.1479,21.069,21.1907,21.1282,21.0328,21.2663,21.3452,21.3407,21.3663,21.383,21.4175,21.5556,21.7923,21.9861,22.0225,22.2,22.371,22.3938,22.3316,22.2395,22.2395,22.1606,22.0817,22.0817,22.0619,22.0256,22.0256,21.9041,21.8055,21.8055,21.73,21.6542,21.6542,21.6542,21.6182,21.503,21.4964,21.4406,21.286,21.3452,21.3452,21.2301,21.2236,21.2236,21.2236,21.2236,21.2236,21.2236,21.1084,20.9967,20.8783,20.8553,20.875,20.9933,20.9539,21.069,0.0,15.0939,15.1268,15.2535,15.0892,14.8614,14.7167,14.6904,0.0,14.697,15.0497,15.4508,15.7516,16.1503,16.5396,16.8709,17.1629,17.5537,18.139,18.6126,19.1584,19.8656,19.9217,19.9217,19.9414,20.0629,20.1418,20.1615,20.4114,20.566,20.5824,20.7007,20.7796,20.7796,20.7796,20.7796,20.7796,20.7961,20.8027,20.7994,20.9342,21.0131,21.0131,21.1676,21.2433,21.2433,21.2499,21.2664,21.2664,21.2433,21.3222,21.4207,21.2828,21.3057,21.401,21.2861,21.2269,21.2104,21.2236,21.1282,20.9933,21.0131,21.0328,21.0722,21.3411,21.3415,21.2663,21.4175,21.5588,21.7134,21.8484,21.911,21.947,22.0817,22.0979,22.1014,22.1014,22.0782,22.0817,22.0817,21.9633,21.8878,21.8878,21.7695,21.6774,21.6774,21.6542,21.6542,21.6542,21.6542,21.6576,21.6345,21.6345,21.5753,21.4372,21.3057,21.2466,21.2236,21.2236,21.2236,21.2236,21.2236,21.2236,21.2236,21.2071,21.2038,21.1907,21.0493,20.9769,20.9933,20.8586,20.7994,14.9535,15.2231,15.4203,15.385,15.293,15.1746,15.0282,14.9272,14.8351,14.7365,14.9929,15.3307,15.6176,15.953,16.3647,16.9328,17.1169,17.4221,18.0996,18.5665,19.0072,19.4579,19.7507,19.9217,19.9217,19.984,20.0432,20.1384,20.2339,20.3687,20.5626,20.6218,20.6481,20.6481,20.6481,20.6778,20.7796,20.7796,20.7796,20.7796,20.8388,20.8586,20.8553,21.0164,21.0887,21.0887,21.1907,21.2236,0.0,21.2236,21.2664,21.3025,21.2499,21.263,21.3057,21.3452,21.3025,21.2466,21.3254,21.2663,21.1282,21.1282,21.0756,21.0131,21.1314,21.1282,21.0756,21.0328,21.2104,21.4011,21.4603,21.6742,21.8913,21.9238,21.947,21.947,21.947,21.8878,21.8121,21.8121,21.7726,21.7331,21.7331,21.6971,21.6542,21.6542,21.6542,21.6542,21.6542,21.6542,21.6148,21.5393,21.5227,21.4635,21.3222,21.2664,21.2236,21.2236,21.2236,21.2236,21.2236,21.2236,21.2236,21.2236,21.2236,21.2236,21.2236,21.171,21.1282,21.1282,21.092,21.0493,15.2625,15.5716,15.8387,15.7401,15.6809,15.5847,15.348,15.1531,14.96,14.7562,14.9163,15.1968,15.5321,15.8609,16.2924,16.9328,17.1103,17.4156,18.0996,18.5271,18.8954,19.2242,19.6157,19.8687,19.8687,19.9051,19.9642,20.0629,20.1187,20.2141,20.4082,20.4706,20.5067,20.5067,20.5067,20.5429,20.6448,20.6448,20.6613,20.7237,20.7237,20.7435,20.7796,20.875,20.9375,20.9375,21.0295,21.092,21.092,21.092,21.1118,21.1479,21.1479,21.1907,21.2466,21.342,21.3057,21.2499,21.3813,21.3452,21.2301,21.2828,21.1874,21.069,21.069,21.069,21.0493,20.9539,21.0723,21.2466,21.2828,21.5195,21.7497,21.7892,21.8123,21.8123,21.8123,21.73,21.6542,21.6542,21.6542,21.6542,21.6542,21.6542,21.6542,21.6542,21.6542,21.6542,21.6542,21.6542,21.5951,21.457,21.4438,21.3846,21.2466,21.2236,21.2236,21.2236,21.2236,21.2236,21.2236,21.2236,21.2236,21.2236,21.2236,21.2236,21.2236,21.2236,21.2038,21.1479,21.1479,21.1479,15.9373,16.2266,16.441,16.441,16.3384,16.1174,15.6834,15.3702,15.0742,14.7759,14.8417,15.0784,15.5124,15.9398,16.3738,16.8183,17.1301,17.5208,18.1061,18.4416,18.7806,19.208,19.5364,19.7109,19.7109,19.849,19.9217,19.9217,20.0563,20.1352,20.1352,20.2765,20.352,20.352,20.352,20.3488,20.3488,20.3488,20.4278,20.5692,20.5692,20.6416,20.7829,20.7829,20.7829,20.7829,20.7796,20.7796,20.7796,20.7796,20.8553,20.9933,20.9933,21.0887,21.2236,21.2236,21.2236,21.2433,21.3813,21.3452,21.2499,21.3978,21.3452,21.2236,21.2236,21.2236,21.2236,21.2236,21.2236,21.2664,21.4044,21.4438,21.4767,21.6148,21.6542,21.6542,21.6542,21.6542,21.6542,21.6542,21.6542,21.6542,21.6542,21.6542,21.6542,21.6576,21.6576,21.6576,21.6576,21.6576,21.5951,21.457,21.4438,21.3846,21.2268,21.2236,21.2236,21.2236,21.2236,21.2236,21.2236,21.2236,21.2236,21.2236,21.2236,21.2236,21.2236,21.2236,21.1479,20.9933,20.9933,20.9933,15.7886,16.0779,16.2949,16.2949,16.262,16.1174,15.6834,15.3702,15.0742,14.7759,14.8417,15.0784,15.5124,15.8609,16.2595,16.8052,17.0511,17.3366,17.8168,18.31,18.7112,18.9348,19.4084,19.7109,19.7109,19.849,19.9217,19.9217,19.9642,20.0397,20.1384,20.0826,20.0958,20.1944,20.1944,20.2568,20.3488,20.3488,20.3686,20.4114,20.4114,20.4311,20.487,20.5824,20.6252,20.6448,20.7435,20.7796,20.7796,20.7796,20.7994,20.8388,20.8388,20.875,20.9177,21.0295,21.069,21.0887,21.2433,21.263,21.2499,21.3978,21.3452,21.2236,21.2236,21.1479,21.0887,21.1874,21.1479,21.092,21.2465,21.3649,21.457,21.4964,21.5753,21.6542,21.6542,21.6542,21.6542,21.6542,21.6542,21.6542,21.6542,21.6542,21.6148,21.5161,21.4996,21.4602,21.3617,21.365,21.342,21.286,21.1874,21.069,20.9177,20.9145,20.9145,20.9145,20.9145,20.9145,20.9145,20.9145,20.9145,20.9145,21.0098,21.069,21.069,21.1676,21.2038,21.1479,21.1479,21.1479,15.7385,15.9687,16.1568,16.216,16.2292,16.1174,15.6834,15.3702,15.0742,14.7759,14.7891,15.0061,15.4993,15.8741,16.2949,16.8841,17.1432,17.426,17.8628,18.3269,18.6754,18.8164,19.2505,19.5333,19.5333,19.7144,19.849,19.849,19.8822,19.9642,20.04,19.9611,19.9642,20.04,20.0595,20.0958,20.1747,20.1747,20.2173,20.2731,20.2731,20.2962,20.3488,20.4475,20.487,20.487,20.5626,20.6448,20.704,20.704,20.7205,20.7796,20.7796,20.7796,20.7961,20.8783,20.9177,20.9375,21.092,21.1282,21.1479,21.3057,21.2465,21.1512,21.2104,21.171,21.1084,21.2038,21.171,21.1084,21.2038,21.286,21.3617,21.3617,21.4175,21.4998,21.5556,21.5787,21.5785,21.6345,21.6182,21.5787,21.5787,21.5161,21.4603,21.3649,21.3617,21.3254,21.2466,21.2236,21.2038,21.1512,20.9933,20.8783,20.7796,20.7796,20.7632,20.7007,20.704,20.6613,20.6021,20.6021,20.6021,20.6021,20.704,20.7632,20.8158,20.9177,20.9934,21.0526,21.0526,21.069,15.7253,15.8807,16.0319,16.1568,16.2029,16.0977,15.6702,15.357,15.0742,14.7759,14.7233,14.9074,15.4664,15.9333,16.4133,16.9722,17.3273,17.6824,18.1127,18.4189,18.6622,18.8164,19.0795,19.2475,19.2606,19.5171,19.6912,19.7109,19.8262,19.9019,19.9019,19.9248,19.9217,19.9217,19.9217,19.9217,19.9217,19.9217,19.9808,20.1155,20.1155,20.1812,20.316,20.3323,20.3291,20.3291,20.352,20.4278,20.5495,20.5495,20.6218,20.7435,20.7632,20.7632,20.7599,20.7829,20.7796,20.7994,20.9375,20.9736,20.9933,21.1479,21.092,20.9539,21.1084,21.171,21.171,21.2072,21.2038,21.2104,21.2236,21.2236,21.2236,21.2236,21.2236,21.263,21.4011,21.4241,21.457,21.5985,21.5195,21.4241,21.4241,21.3057,21.2236,21.2104,21.2038,21.2038,21.1907,21.1841,21.1282,20.9967,20.8356,20.7632,20.7632,20.7402,20.681,20.5463,20.5495,20.4837,20.3554,20.3488,20.3488,20.3488,20.3488,20.4114,20.5495,20.5495,20.6054,20.7435,20.7435,20.8191,15.4269,15.6505,15.8568,15.8897,15.9793,15.953,15.5165,15.2888,15.0742,14.7759,14.8088,15.0061,15.3587,15.8675,16.3475,16.7118,17.1958,17.6468,17.9689,18.2648,18.5504,18.8033,18.991,19.1423,19.2541,19.425,19.5732,19.714,19.7275,19.7472,19.7472,19.8656,19.9217,19.9217,19.9217,19.9217,19.9217,19.9217,19.9445,19.9611,19.9611,19.984,20.0234,20.1384,20.1747,20.1976,20.293,20.3686,20.3917,20.3917,20.4146,20.4509,20.5626,20.6054,20.6284,20.7435,20.7796,20.7796,20.8191,20.8191,20.8553,20.9933,20.7994,20.51,20.6613,20.6975,20.7599,20.9736,21.0493,21.0756,21.1874,21.2236,21.2236,21.2236,21.2236,21.2268,21.263,21.2663,21.2828,21.3057,21.286,21.2663,21.2663,21.2499,21.1907,21.069,21.0493,20.9933,20.8947,20.875,20.8586,20.8355,20.7007,20.6054,20.6054,20.5067,20.4278,20.3917,20.3917,20.3915,20.3488,20.3488,20.3488,20.3488,20.3488,20.3686,20.3917,20.3917,20.408,20.4475,20.4475,20.5264,15.339,15.5387,15.7187,15.7845,15.8568,15.8543,15.6308,15.4664,15.3044,15.0784,15.0981,15.2231,15.4376,15.8938,16.3541,16.7224,17.1432,17.5312,17.8177,18.1164,18.3597,18.5139,18.7148,18.899,19.0466,19.1883,19.3395,19.4776,19.5565,19.596,19.596,19.7504,19.8428,19.9248,19.9217,19.9217,19.9217,19.9217,19.9217,19.9217,19.9217,19.9217,19.9217,20.0037,20.0366,20.0432,20.1187,20.1747,20.2568,20.2568,20.2962,20.3554,20.4311,20.4672,20.4706,20.5462,20.5626,20.5626,20.5626,20.5626,20.5856,20.6613,20.5298,20.3686,20.4475,20.4672,20.4903,20.6416,20.7402,20.8027,20.8947,20.9506,21.0131,21.0131,21.0131,21.0131,21.0131,21.0723,21.1282,21.2104,21.171,21.1084,21.1084,21.0493,20.9934,20.8947,20.898,20.8553,20.7796,20.7205,20.6843,20.6843,20.5429,20.4672,20.4672,20.3949,20.3128,20.2568,20.2568,20.2141,20.1581,20.1418,20.1418,20.1418,20.1418,20.1747,20.2568,20.2568,20.2928,20.3488,20.3488,20.3883,15.2601,15.4245,15.5847,15.699,15.745,15.7582,15.7385,15.6398,15.519,15.3982,15.3785,15.4245,15.5979,15.9596,16.3673,16.7881,17.1366,17.4419,17.6759,17.9652,18.1522,18.1522,18.3889,18.606,18.7507,18.8924,19.0436,19.2146,19.3132,19.3759,19.4022,19.553,19.6946,19.8459,19.8691,19.9051,19.9217,19.9217,19.9217,19.9217,19.9217,19.9217,19.9217,19.9217,19.9217,19.9217,19.9217,19.9808,20.1023,20.1023,20.1779,20.2733,20.3126,20.316,20.316,20.352,20.3488,20.3488,20.3488,20.3488,20.352,20.2962,20.2765,20.2733,20.3126,20.316,20.316,20.352,20.4311,20.5298,20.5298,20.6251,20.7237,20.7435,20.7402,20.7402,20.7829,20.8783,20.9933,21.1315,21.0493,20.9539,20.9539,20.8586,20.7796,20.7796,20.7796,20.7796,20.7796,20.6252,20.5298,20.5298,20.3917,20.316,20.316,20.2962,20.237,20.0992,20.1023,20.04,19.9217,19.9217,19.9019,19.8853,19.8853,19.9217,20.0234,20.0595,20.1155,20.237,20.2731,20.2962,14.9666,15.2033,15.4113,15.4311,15.5256,15.5847,15.4574,15.4179,15.3982,15.3785,15.3785,15.4574,15.7253,16.0278,16.3344,16.6526,17.1564,17.5153,17.5575,17.8111,17.9952,17.9952,18.1427,18.31,18.4518,18.5965,18.7872,19.0568,18.9779,18.9743,19.0998,19.2409,19.3856,19.5337,19.6683,19.8095,19.9217,19.9217,19.9217,19.9217,19.9217,19.9217,19.9217,19.9217,19.9217,19.9217,19.9217,19.9445,19.9414,19.9414,19.9642,20.0069,20.1155,20.1615,20.1747,20.3126,20.3488,20.3488,20.3488,20.3488,20.3094,20.0629,19.984,20.0037,20.1384,20.1615,20.1976,20.316,20.3718,20.3719,20.3719,20.3883,20.4475,20.5626,20.5857,20.6252,20.7632,20.8027,20.8224,20.8355,20.8191,20.7994,20.7994,20.7961,20.7796,20.7796,20.7796,20.7796,20.7796,20.5462,20.3719,20.3719,20.2568,20.1615,20.1615,20.0595,19.984,19.9642,19.9414,19.9414,19.9217,19.9217,19.8656,19.7535,19.7275,19.6912,19.5763,19.7109,19.767,19.8061,19.9248,20.04,14.7562,14.9732,15.1573,15.2362,15.3677,15.4771,15.4902,15.5584,15.611,15.611,15.6768,15.7491,15.7977,16.041,16.3015,16.5119,16.8341,17.084,17.1602,17.4194,17.6035,17.6035,17.8008,18.0338,18.2677,18.3495,18.5007,18.7872,18.6754,18.6951,18.9217,19.0634,19.208,19.3527,19.4943,19.6157,19.6718,19.7701,19.8459,19.9217,19.9217,19.9217,19.9217,19.9217,19.9217,19.9217,19.9217,19.9217,19.9217,19.9217,19.9217,19.9217,20.0069,20.0234,20.0234,20.0795,20.1187,20.1187,20.1187,20.1187,20.0989,19.9642,19.9217,19.9445,20.0037,20.0234,20.0397,20.0958,20.1779,20.237,20.237,20.2962,20.3686,20.4343,20.4475,20.4672,20.5264,20.6021,20.6613,20.6613,20.7205,20.7632,20.6843,20.6613,20.6284,20.5429,20.5462,20.5462,20.5462,20.3522,20.237,20.237,20.1023,20.0234,20.0234,19.9642,19.8822,19.8064,19.8095,19.767,19.6718,19.6718,19.6552,19.5732,19.5732,19.5565,19.4811,19.5565,19.5732,19.5732,19.7275,19.849,14.4931,14.6904,14.868,15.015,15.1573,15.2996,15.4466,15.5609,15.6595,15.7319,15.8017,15.865,15.9029,16.0582,16.2489,16.4699,16.6303,16.7684,16.8775,17.1038,17.2643,17.2643,17.4879,17.7378,18.0009,18.0901,18.2085,18.386,18.3729,18.4452,18.6586,18.8398,18.991,19.0962,19.2707,19.3694,19.3694,19.5565,19.7109,19.8099,19.8099,19.8099,19.8099,19.8099,19.8099,19.8099,19.8099,19.8099,19.8099,19.8099,19.8099,19.8099,19.8099,19.8099,19.8099,19.8493,19.8656,19.8656,19.8262,19.8099,19.8099,19.8099,19.8099,19.8099,19.8099,19.8459,19.8656,19.8656,19.9805,20.0826,20.0826,20.1549,20.2568,20.2897,20.2962,20.3094,20.352,20.4311,20.51,20.51,20.6053,20.6448,20.5298,20.51,20.4706,20.3686,20.3488,20.3323,20.2568,20.1581,20.0826,20.0826,19.9808,19.9217,19.9217,19.8822,19.8293,19.7109,19.6714,19.596,19.4781,19.4811,19.4386,19.3694,19.3694,19.3299,19.2576,19.3365,19.3694,19.3759,19.5535,19.6517,14.1052,14.3068,14.5566,14.7036,14.8548,15.0061,15.1531,15.186,15.2715,15.5453,15.4968,15.5691,16.1108,16.1108,16.17,16.6,16.7881,16.8841,16.8907,17.0248,17.1169,17.1169,17.2511,17.4024,17.5509,17.8111,17.9229,17.8008,18.0469,18.2114,18.2245,18.4942,18.6491,18.6557,18.9253,19.0669,19.0669,19.3496,19.4943,19.4978,19.4978,19.4978,19.4978,19.4978,19.4978,19.4978,19.4978,19.4978,19.4978,19.4978,19.4978,19.4978,19.4978,19.4978,19.514,19.6714,19.7337,19.6881,19.5535,19.4978,19.4978,19.4978,19.4978,19.4978,19.4978,19.6122,19.7337,19.7337,19.8293,19.9445,19.9445,19.9445,19.984,20.1155,20.1581,20.1812,20.3128,20.3554,20.3718,20.3718,20.3686,20.3686,20.3718,20.3718,20.3522,20.3488,20.3488,20.2568,19.984,19.9445,19.9445,19.9445,19.9217,19.9217,19.9217,19.8095,19.7078,19.7109,19.5763,19.4781,19.4811,19.4811,19.3496,19.0735,19.0669,18.9384,18.6688,18.9384,19.0669,19.0801,19.3562,19.4943,13.9737,14.0832,14.1424,14.3814,14.5523,14.675,14.721,14.8877,15.0521,15.1573,15.3546,15.5782,15.782,15.9267,16.0977,16.3475,16.433,16.4988,16.5948,16.7355,16.8302,16.8302,17.0407,17.238,17.3827,17.4852,17.5246,17.4748,17.7444,17.9455,18.0347,18.2348,18.3889,18.4847,18.6754,18.774,18.774,18.9647,19.0634,19.0634,19.2541,19.3891,19.4811,19.4811,19.4811,19.4811,19.4811,19.4811,19.4811,19.4811,19.4811,19.4811,19.4811,19.4811,19.4781,19.5337,19.5535,19.5368,19.2839,19.2672,19.3395,19.3395,19.4022,19.4811,19.4811,19.514,19.5535,19.5535,19.5929,19.6324,19.6324,19.6324,19.6718,19.8293,19.8622,19.9082,20.0432,20.1581,20.2173,20.2173,20.2897,20.3488,20.3488,20.2765,20.1747,20.0989,20.076,20.0432,19.9445,19.9217,19.9217,19.9217,19.8459,19.7898,19.7898,19.6486,19.514,19.4281,19.2869,19.159,19.0699,18.9779,18.8792,18.7806,18.774,18.7214,18.6228,18.7214,18.774,18.7806,18.9713,19.0634,13.5812,13.7413,13.8926,14.0351,14.217,14.3659,14.4208,14.5852,14.7496,14.8482,15.0981,15.3414,15.4927,15.7163,15.9201,16.0648,16.17,16.262,16.3581,16.5054,16.6171,16.6724,16.8434,17.021,17.1656,17.1761,17.1761,17.1761,17.4419,17.643,17.7388,17.9323,18.0836,18.1822,18.3269,18.4255,18.481,18.6191,18.7178,18.7638,18.9546,19.0962,19.1919,19.1919,19.1919,19.1919,19.1919,19.1919,19.1919,19.1919,19.1919,19.1919,19.1919,19.1919,19.1919,19.2444,19.2313,19.159,18.9713,18.9713,19.0436,19.0436,19.1094,19.1919,19.1919,19.2247,19.2576,19.2576,19.3299,19.4022,19.4022,19.4417,19.4978,19.6122,19.6289,19.6552,19.7507,19.8853,20.0003,20.0003,20.1187,20.2173,20.2173,20.1384,20.0366,19.9445,19.9217,19.9019,19.8687,19.8064,19.7704,19.7704,19.6881,19.6289,19.6289,19.4974,19.3461,19.2015,19.0568,18.9121,18.7704,18.6228,18.5241,18.4781,18.4255,18.3729,18.3269,18.3729,18.3992,18.4058,18.603,18.6915,12.9367,13.2963,13.7939,13.6667,13.8421,14.092,14.2324,14.2652,14.3573,14.6378,14.7036,14.8417,15.2733,15.4729,15.6176,15.7648,16.0278,16.216,16.216,16.345,16.4962,16.6461,16.6724,16.7316,16.8578,16.8775,16.8841,16.8841,17.1459,17.3038,17.3038,17.5734,17.7285,17.735,17.8703,18.0215,18.1785,18.3203,18.4584,18.5965,18.603,18.603,18.603,18.603,18.6096,18.6096,18.6096,18.6096,18.6162,18.6162,18.6162,18.6228,18.6228,18.6228,18.6359,18.7572,18.7178,18.5965,18.5965,18.5965,18.603,18.603,18.603,18.6096,18.6162,18.7112,18.823,18.8296,19.0335,19.2409,19.2409,19.3461,19.4548,19.4614,19.4584,19.4584,19.4746,19.596,19.714,19.714,19.8064,19.9019,19.9019,19.9248,19.9248,19.9248,19.9085,19.8656,19.7337,19.5763,19.4811,19.4811,19.4746,19.4746,19.4584,19.333,19.1883,19.0472,18.9019,18.7572,18.6162,18.465,18.3203,18.1851,18.0281,17.8835,17.7482,17.89,17.9558,17.9595,18.2517,18.3897,13.0399,13.0728,13.1143,13.2787,13.4673,13.6186,13.658,13.829,14.0328,14.2104,14.412,14.6289,14.8548,15.0192,15.2099,15.4532,15.6505,15.8017,15.9095,16.1305,16.3081,16.3475,16.5474,16.6066,16.433,16.6106,16.7381,16.7381,16.9065,17.0117,17.0117,17.1827,17.3273,17.4353,17.5772,17.7219,17.8694,17.9126,17.952,17.9915,18.0939,18.1465,18.1465,18.2611,18.31,18.31,18.31,18.3729,18.4686,18.4686,18.5307,18.6228,18.6228,18.6228,18.5767,18.1916,18.0272,17.9849,17.9849,18.0573,18.1465,18.1465,18.2217,18.3297,18.4387,18.4978,18.5504,18.6491,18.7346,18.8003,18.8003,18.8266,18.8858,18.9844,19.0897,19.1919,19.3001,19.4382,19.5337,19.5337,19.5732,19.5898,19.5898,19.6946,19.7701,19.7701,19.6718,19.596,19.5565,19.4978,19.4811,19.4811,19.3825,19.2804,19.1721,19.0371,18.8954,18.7477,18.5073,18.3561,18.3166,18.0638,17.9126,17.8759,17.8271,17.7876,17.7482,17.7876,17.8074,17.8074,17.8929,17.9323,12.5796,12.5881,12.5421,12.7131,12.8623,13.0378,13.2832,13.4192,13.5901,13.9123,14.1161,14.2936,14.502,14.6575,14.8328,15.0652,15.2757,15.482,15.6858,15.9095,16.0714,16.1371,16.2449,16.2712,16.1503,16.3541,16.4948,16.4948,16.6829,16.8013,16.8013,16.9394,17.0577,17.1366,17.2221,17.3312,17.4786,17.5405,17.5969,17.6627,17.8046,17.8703,17.8769,17.9652,18.0075,18.0075,18.0075,18.0507,18.1296,18.1296,18.1822,18.2545,18.2545,18.2545,18.2085,17.8074,17.6561,17.6561,17.6561,17.7125,17.7914,17.8506,17.9323,18.0272,18.1099,18.1296,18.1493,18.2348,18.3006,18.3597,18.4255,18.4847,18.5702,18.7112,18.8069,18.8924,18.9779,19.1554,19.297,19.297,19.3957,19.4811,19.4811,19.5565,19.5894,19.5333,19.4974,19.4548,19.3957,19.3891,19.3431,19.2212,19.1357,19.0269,18.8858,18.7411,18.5994,18.4547,18.2217,18.0704,18.0075,17.7811,17.6298,17.5734,17.5142,17.4523,17.3865,17.3865,17.3865,17.3931,17.5115,17.5049,11.6984,11.8628,12.0094,12.0094,12.1258,12.3804,0.0,12.9326,13.0247,13.5967,13.7282,13.8334,14.16,14.3353,14.4777,14.6378,14.9163,15.1992,15.4532,15.6464,15.7911,15.8872,15.8149,15.8083,15.957,16.0977,16.1897,16.2029,16.4685,16.6263,16.6263,16.7618,16.8512,16.8644,16.8644,16.9394,17.0775,17.2117,17.3366,17.4627,17.5904,17.6496,17.6496,17.6496,17.6496,17.6496,17.6496,17.6496,17.6496,17.6693,17.6852,17.7022,17.7153,17.6956,17.6364,17.5087,17.4627,17.4627,17.4627,17.4627,17.4824,17.6101,17.6496,17.6561,17.689,17.6918,17.6824,17.735,17.8243,17.9492,18.1061,18.2348,18.3634,18.4913,18.5373,18.5504,18.5702,18.7872,18.9844,18.9946,19.205,19.3891,19.4022,19.422,19.3759,19.2146,19.3001,19.3365,19.208,19.1883,19.0927,18.8427,18.8099,18.7572,18.6096,18.4489,18.3006,18.1522,17.9849,17.8309,17.7022,17.5509,17.3997,17.2774,17.1459,17.0183,16.8907,16.8907,16.8907,16.8972,17.1498,17.1262,0.0,0.0,0.0,0.0,0.0,0.0,0.0,11.9727,12.2554,12.7157,12.9018,13.1472,13.6733,13.8882,14.0701,14.331,14.6138,14.8219,14.8745,15.2165,15.385,15.177,15.3349,15.5165,15.6571,15.8017,15.9358,16.0491,16.216,16.3172,16.3172,16.4567,16.5882,16.7184,16.7184,16.7881,16.9301,16.9657,16.9893,17.0156,17.0419,17.055,17.055,17.055,17.055,17.055,17.055,17.055,17.0682,17.1827,17.2972,17.4156,17.5312,17.3641,17.055,17.0287,17.0156,17.0156,17.0156,17.0156,17.0222,17.0485,17.055,17.1038,17.3366,17.3235,17.301,17.6496,17.6824,17.6468,17.7942,17.8534,17.8797,17.9126,18.0046,18.1267,18.2508,18.4123,18.5702,18.682,18.7477,18.8266,18.9414,19.0568,19.0436,18.7872,18.7674,18.7806,18.7477,18.7477,18.7214,18.6717,18.6622,18.603,18.465,18.2056,17.9887,17.8403,17.5866,17.4353,17.4024,17.1564,17.0024,16.9788,16.9498,16.917,16.8907,16.8907,16.8907,16.8907,16.9498,16.8868,0.0,0.0,0.0,0.0,0.0,0.0,0.0,0.0,0.0,0.0,0.0,12.6079,13.1143,0.0,13.6514,14.0131,14.2564,14.4471,14.5918,14.8614,14.9666,14.7473,14.914,15.1047,15.2559,15.4664,15.6505,15.7952,15.9333,16.0476,16.124,16.262,16.3738,16.4553,16.5251,16.5948,16.6671,16.7487,16.7815,16.7815,16.8578,16.8907,16.8907,16.8907,16.8907,16.8907,16.8907,16.8907,16.8972,16.9696,17.0446,17.1038,17.1038,16.9722,16.7815,16.7815,16.7815,16.7815,16.7815,16.7815,16.7947,16.8644,16.8907,16.917,17.0643,17.0577,17.0446,17.2616,17.2654,17.2457,17.3865,17.426,17.4654,17.6101,17.6928,17.7848,17.9417,18.0836,18.2056,18.278,18.4123,18.5373,18.6096,18.6228,18.5965,18.5241,18.5767,18.6228,18.6228,18.557,18.4847,18.4152,18.34,18.2348,18.0901,17.9389,17.7613,17.5471,17.2643,17.1038,17.1038,16.9657,16.8578,16.7881,16.7815,16.7487,16.6671,16.6671,16.6671,16.6671,16.5225,16.4173,0.0,0.0,0.0,0.0,0.0,0.0,0.0,0.0,0.0,0.0,0.0,0.0,0.0,0.0,0.0,13.623,13.8881,14.1206,14.3485,14.4868,14.5309,14.4387,14.5503,14.6904,14.8482,15.0694,15.2798,15.4532,15.6003,15.7426,15.8847,16.0582,16.1437,16.1437,16.2858,16.3753,16.4041,16.5251,16.6066,16.6395,16.746,0.0,16.8052,16.8052,16.8052,16.8052,16.8052,16.8052,16.8052,16.8052,16.8052,16.7855,16.6171,16.5474,16.5474,16.5474,16.5474,16.554,16.5803,16.5935,16.6198,16.7592,16.8052,16.8118,16.8381,16.8315,0.0,16.8775,16.8709,16.8868,17.0314,17.0643,17.1235,17.3509,17.4101,17.4589,17.6232,17.7548,17.8572,17.9098,18.1136,18.2911,18.3174,18.1822,18.1033,18.2188,18.3597,18.4452,18.4123,18.3334,18.2348,18.1193,17.9718,17.8177,17.6759,17.6101,17.4852,17.2511,16.992,16.8144,16.7263,16.6934,16.6171,16.4685,16.4685,16.433,16.3621,16.3621,16.3621,16.3515,15.88,15.7253,0.0,0.0,0.0,0.0,0.0,0.0,0.0,0.0,0.0,0.0,0.0,0.0,0.0,0.0,0.0,0.0,13.5604,13.936,13.9298,13.978,14.0481,14.1626,14.2679,14.3902,14.5369,14.5829,14.7144,14.9995,15.1531,15.2954,15.4376,15.7031,0.0,0.0,0.0,16.128,16.2555,16.2686,16.3475,16.4765,16.487,16.4936,16.4936,16.4936,16.4936,16.4936,16.4936,16.4936,16.4936,16.4936,16.4936,16.4673,16.2003,16.0885,16.0885,16.0885,16.0885,16.1083,16.2357,0.0,0.0,16.4502,16.4936,16.5225,16.6566,16.604,16.5462,16.8183,16.8013,16.7355,16.8775,16.917,16.9235,16.9564,16.963,17.038,17.3103,17.3827,17.4682,17.7219,17.8008,17.86,17.9887,17.7848,17.6167,17.627,17.7548,17.8008,17.6731,17.7548,17.8139,17.8036,17.6693,0.0,17.3827,17.1366,16.9761,16.9433,16.7881,16.5277,16.1346,15.9924,15.8568,15.7163,15.7097,15.828,16.0688,16.0688,16.0688,16.0385,14.9136,14.6743,0.0,0.0,0.0,0.0,0.0,0.0,0.0,0.0,0.0,0.0,0.0,0.0,0.0,0.0,0.0,0.0,13.165,13.3809,13.1971,13.4238,13.6773,13.8606,13.9976,14.1186,14.2389,14.3535,14.4964,14.6707,14.7751,14.9092,15.1179,15.3217,15.4688,15.5519,15.6965,15.8412,15.9818,15.9818,16.0516,16.1937,16.1937,16.1937,16.1937,16.1937,16.1937,16.1937,16.1937,16.1937,16.1937,16.1937,16.1937,16.1674,0.0,0.0,0.0,0.0,15.8215,15.9135,16.0582,16.1108,16.1174,16.174,16.1937,16.2069,16.2752,16.2463,16.2398,16.4527,16.4659,16.4527,16.5948,16.6343,16.654,16.7487,16.7684,16.821,17.0248,17.0709,17.1038,17.2287,17.3208,0.0,17.3443,17.3115,17.2879,17.2879,17.4062,17.4748,17.4156,17.3865,17.3734,17.3734,17.2457,17.1339,17.0775,16.9657,0.0,0.0,0.0,16.5514,16.2792,16.1305,0.0,0.0,0.0,15.2392,15.2955,14.9599,0.0,0.0,14.1069,13.965,0.0,0.0,0.0,0.0,0.0,0.0,0.0,0.0,0.0,0.0,0.0,0.0,0.0,0.0,0.0,0.0,12.638,12.8574,12.6181,12.9169,13.2383,13.4747,13.6548,13.7704,13.8065,14.0458,14.2462,14.356,14.4156,14.5519,14.777,14.9079,15.0258,15.1352,15.3151,15.482,15.6267,15.6661,15.7557,15.9004,15.9004,15.9004,15.9004,15.9004,15.9004,15.9004,15.9004,15.9004,15.9004,15.9004,15.9004,15.8675,15.4927,15.3743,15.4138,15.4138,15.5017,15.6464,15.7952,15.8387,15.8453,15.8847,15.9004,15.9004,15.9004,15.9004,15.9307,16.0714,16.1133,16.1437,16.2924,16.3318,16.3581,16.4725,16.5277,16.5935,16.7395,16.8052,16.8446,16.8841,16.8802,16.8473,16.7789,16.8933,16.9881,16.9881,17.113,17.1854,17.1459,17.084,17.0511,17.0511,16.9196,16.8341,16.8341,16.7592,16.6829,16.6171,16.5408,16.4659,16.391,16.1371,15.9267,15.782,15.1902,14.7856,0.0,0.0,0.0,0.0,0.0,0.0,0.0,0.0,0.0,0.0,0.0,0.0,0.0,0.0,0.0,0.0,0.0,0.0,0.0,0.0,0.0,0.0,0.0,0.0,12.3873,12.4738,12.653,12.956,13.2051,13.2921,13.1467,13.5243,13.847,14.0018,14.0982,14.2176,14.3717,14.4721,14.5237,14.5303,14.8154,15.0389,15.1794,15.3217,15.4574,15.6045,15.6045,15.6045,15.6045,15.6045,15.6045,15.6045,15.6045,15.6045,15.6045,15.6045,15.6045,15.5453,14.9666,14.8351,14.9666,14.9666,15.061,15.2057,15.3456,15.3982,15.4179,15.5584,15.6045,15.6045,15.6045,15.6045,15.6308,15.7779,15.8174,15.8503,15.9899,16.0294,16.0294,16.0359,16.1437,16.2818,16.4278,16.5777,16.725,16.8644,16.5514,16.3015,16.437,16.5908,16.6921,16.6921,16.8144,0.0,16.7184,16.8144,16.8972,16.8972,16.7684,16.6855,16.6855,16.4225,16.3081,16.441,16.1937,16.0977,16.2357,15.7006,15.3349,15.1926,14.8811,14.5311,14.1472,0.0,0.0,0.0,0.0,0.0,0.0,0.0,0.0,0.0,0.0,0.0,0.0,0.0,0.0,0.0,0.0,0.0,0.0,0.0,0.0,0.0,0.0,0.0,0.0,11.8546,12.2167,12.4814,12.5865,12.6438,12.6644,13.0123,13.2796,13.3957,13.7334,13.9904,14.1175,14.2066,14.3077,14.4089,14.4785,14.5786,14.7233,14.7736,14.8656,15.0126,15.0126,15.0126,15.0126,15.0126,15.0126,15.0126,15.1179,15.1047,15.0192,15.1179,14.9929,14.7059,14.5086,14.4625,14.5131,14.5493,14.6325,14.7391,14.8475,14.906,14.9516,15.0348,15.0597,15.0597,15.0597,15.1534,15.2732,15.3541,15.4733,15.5957,15.7039,15.736,15.7623,15.8478,15.916,15.9859,16.128,16.2003,16.2555,16.3055,16.0385,15.7623,15.6176,16.0319,16.2843,15.999,16.3187,16.5817,16.5291,16.5685,16.5948,16.5948,16.5554,16.5225,16.5225,16.3475,16.2555,16.3015,16.1214,16.0359,16.0885,15.7228,15.4927,15.4491,15.0652,14.3863,13.4099,0.0,0.0,0.0,0.0,0.0,0.0,0.0,0.0,0.0,0.0,0.0,0.0,0.0,0.0,0.0,0.0,0.0,0.0,0.0,0.0,0.0,0.0,0.0,0.0,0.0,0.0,11.9623,12.0456,0.0,12.171,12.4766,12.6976,12.7541,13.1874,13.4967,13.6235,13.7685,13.9439,14.1467,14.1538,14.2283,14.371,14.4079,14.4734,14.5612,14.5612,14.5612,14.5612,14.5612,14.5612,14.5678,14.6707,14.651,14.5678,14.6299,14.3996,14.0066,14.0066,13.9802,13.9624,14.0811,14.2088,14.3319,14.4866,14.5635,14.5975,14.627,14.4951,14.3321,14.3871,14.3917,14.4269,14.6666,14.8739,15.062,15.2737,15.3536,15.4075,15.4997,15.5863,15.6768,15.7664,15.7861,15.7598,15.6546,15.5716,15.4072,15.0587,15.4754,15.7582,15.4795,15.8387,16.1937,16.3515,16.4147,16.4278,16.3778,16.3713,16.345,16.2989,16.2069,16.1568,16.1568,15.9727,15.865,15.865,15.5387,15.2625,15.0521,14.6822,13.9912,0.0,0.0,0.0,0.0,0.0,0.0,0.0,0.0,0.0,0.0,0.0,0.0,0.0,0.0,0.0,0.0,0.0,0.0,0.0,0.0,0.0,0.0,0.0,0.0,0.0,0.0,0.0,11.4024,11.5583,0.0,0.0,0.0,0.0,12.083,12.4604,12.7587,12.9017,13.1559,13.4196,13.6985,13.8181,13.9467,14.0942,14.1976,14.25,14.2522,14.2543,14.2543,14.2588,14.2631,14.2697,14.272,14.2785,14.2785,14.2588,14.123,13.8299,13.4533,13.4335,13.3656,13.3099,13.5538,13.7495,13.9294,14.2064,14.3013,14.2925,14.2925,13.9092,13.4669,13.5965,13.3722,0.0,0.0,14.0175,14.2475,14.6724,14.8662,14.9512,14.9843,15.1713,15.3397,15.3438,15.3546,15.2649,14.9516,15.1005,15.131,14.6796,0.0,15.0766,15.061,15.3438,15.7097,16.1305,16.3252,16.3713,16.2357,16.216,16.1634,16.0294,16.0031,15.9965,15.9965,15.7294,15.565,15.5584,15.1376,14.6378,14.0657,13.7714,0.0,0.0,0.0,0.0,0.0,0.0,0.0,0.0,0.0,0.0,0.0,0.0,0.0,0.0,0.0,0.0,0.0,0.0,0.0,0.0,0.0,0.0,0.0,0.0,0.0,0.0,10.2695,10.6583,10.9383,10.9198,10.8326,0.0,0.0,0.0,0.0,0.0,0.0,12.1841,12.527,12.8131,12.993,13.1985,13.3819,13.5364,13.6425,13.7089,13.7405,13.789,13.8395,13.8994,13.9753,14.0325,14.0781,14.1841,14.1447,13.9711,13.4297,13.1232,12.9715,12.6686,12.5336,12.5384,12.7444,12.7567,12.7507,13.2936,13.3879,13.2626,13.2667,13.1872,13.0362,12.7369,0.0,0.0,0.0,0.0,13.3634,13.7761,13.9782,14.1906,14.6258,14.7826,14.8505,14.9262,15.0248,14.8954,14.1976,14.0106,13.7493,13.1046,13.5029,0.0,13.7215,14.5063,15.2296,15.5494,15.9044,16.1148,16.0754,16.0714,16.0557,16.0228,15.819,15.6965,15.6965,15.4293,15.2255,15.1179,14.5852,14.1249,13.7654,0.0,0.0,0.0,0.0,0.0,0.0,0.0,0.0,0.0,0.0,0.0,0.0,0.0,0.0,0.0,0.0,0.0,0.0,0.0,0.0,0.0,0.0,0.0,0.0,0.0,0.0,0.0,9.6662,10.0751,10.3031,10.2628,10.2025,0.0,0.0,0.0,0.0,0.0,0.0,0.0,0.0,0.0,12.3669,12.4914,12.6552,12.8699,13.0479,13.1439,13.166,13.3314,13.4678,13.5749,13.6384,13.7133,13.8048,13.8844,13.7209,13.365,12.9134,12.5602,12.2722,0.0,0.0,0.0,0.0,11.9789,11.9669,12.4396,12.5314,12.4272,12.3559,0.0,0.0,0.0,0.0,0.0,0.0,0.0,12.7872,13.2094,13.6025,13.974,14.302,14.4664,14.5573,14.6168,14.2525,13.7748,13.2794,13.1445,12.9234,12.331,12.6164,0.0,0.0,0.0,14.617,15.232,15.6694,15.9201,15.9201,15.8675,15.8058,15.7401,15.5321,15.3743,15.3151,15.0916,14.8154,14.4843,13.9868,13.4621,0.0,0.0,0.0,0.0,0.0,0.0,0.0,0.0,0.0,0.0,0.0,0.0,0.0,0.0,0.0,0.0,0.0,0.0,0.0,0.0,0.0,0.0,0.0,0.0,0.0,0.0,0.0,0.0,0.0,9.4437,9.6394,0.0,0.0,0.0,0.0,0.0,0.0,0.0,0.0,0.0,0.0,0.0,0.0,0.0,11.8329,12.1181,12.3626,12.5033,12.5488,12.8029,13.0193,13.1792,13.1932,13.2882,13.4405,13.3055,0.0,12.5948,12.3602,0.0,0.0,0.0,0.0,0.0,0.0,0.0,0.0,0.0,0.0,0.0,0.0,0.0,0.0,0.0,0.0,0.0,0.0,0.0,0.0,0.0,0.0,13.8038,13.8238,14.0395,14.2094,14.1163,13.2323,12.4248,12.303,12.3962,12.3441,0.0,0.0,0.0,0.0,0.0,0.0,14.9222,15.4434,15.7261,15.7212,15.6069,15.4729,15.3324,15.1836,15.0413,14.9009,14.6753,14.3135,13.7939,13.387,0.0,0.0,0.0,0.0,0.0,0.0,0.0,0.0,0.0,0.0,0.0,0.0,0.0,0.0,0.0,0.0,0.0,0.0,0.0,0.0,0.0,0.0,0.0,0.0,0.0,0.0,0.0,0.0,0.0,0.0,0.0,0.0,0.0,0.0,0.0,0.0,0.0,0.0,0.0,0.0,0.0,0.0,0.0,0.0,0.0,0.0,0.0,0.0,0.0,0.0,11.9653,12.1304,12.3613,12.4299,12.6423,12.8919,12.0316,11.7868,11.9544,11.2303,0.0,0.0,0.0,0.0,0.0,0.0,0.0,0.0,0.0,0.0,0.0,0.0,0.0,0.0,0.0,0.0,0.0,0.0,0.0,0.0,0.0,0.0,12.5128,12.6267,12.9693,13.0975,12.4848,0.0,0.0,0.0,0.0,0.0,0.0,0.0,0.0,0.0,0.0,0.0,14.0678,14.8317,15.3104,15.2763,15.2518,15.1794,15.0389,14.8811,14.7299,14.5895,14.0197,13.576,0.0,0.0,0.0,0.0,0.0,0.0,0.0,0.0,0.0,0.0,0.0,0.0,0.0,0.0,0.0,0.0,0.0,0.0,0.0,0.0,0.0,0.0,0.0,0.0,0.0,0.0,0.0,0.0,0.0,0.0,0.0,0.0,0.0,0.0,0.0,0.0,0.0,0.0,0.0,0.0,0.0,0.0,0.0,0.0,0.0,0.0,0.0,0.0,0.0,0.0,0.0,0.0,0.0,0.0,0.0,0.0,0.0,0.0,11.1225,10.7196,0.0,0.0,0.0,0.0,0.0,0.0,0.0,0.0,0.0,0.0,0.0,0.0,0.0,0.0,0.0,0.0,0.0,0.0,0.0,0.0,0.0,0.0,0.0,0.0,0.0,0.0,0.0,0.0,0.0,0.0,0.0,0.0,0.0,0.0,0.0,0.0,0.0,0.0,0.0,0.0,13.7782,14.5307,15.0189,15.0748,14.9897,14.868,14.7276,14.5786,14.3025,13.8531,13.532,0.0,0.0,0.0,0.0,0.0,0.0,0.0,0.0,0.0,0.0,0.0,0.0,0.0,0.0,0.0,0.0,0.0,0.0,0.0,0.0,0.0,0.0,0.0,0.0,0.0,0.0,0.0,0.0,0.0,0.0,0.0,0.0,0.0,0.0,0.0,0.0,0.0,0.0,0.0,0.0,0.0,0.0,0.0,0.0,0.0,0.0,0.0,0.0,0.0,0.0,0.0,0.0,0.0,0.0,0.0,0.0,0.0,0.0,0.0,10.2107,9.7668,0.0,0.0,0.0,0.0,0.0,0.0,0.0,0.0,0.0,0.0,0.0,0.0,0.0,0.0,0.0,0.0,0.0,0.0,0.0,0.0,0.0,0.0,0.0,0.0,0.0,0.0,0.0,0.0,0.0,0.0,0.0,0.0,0.0,0.0,0.0,0.0,0.0,0.0,0.0,0.0,13.5848,14.2875,14.7531,14.8564,14.7204,14.5655,14.4185,14.3025,13.9276,13.1977,13.0442,0.0,0.0,0.0,0.0,0.0,0.0,0.0,0.0,0.0,0.0,0.0,0.0,0.0,0.0,0.0,0.0,0.0,0.0,0.0,0.0,0.0,0.0,0.0,0.0,0.0,0.0,0.0,0.0,0.0,0.0,0.0,0.0,0.0,0.0,0.0,0.0,0.0,0.0,0.0,0.0,0.0,0.0,0.0,0.0,0.0,0.0,0.0,0.0,0.0,0.0,0.0,0.0,0.0,0.0,0.0,0.0,0.0,0.0,0.0,0.0,0.0,0.0,0.0,0.0,0.0,0.0,0.0,0.0,0.0,0.0,0.0,0.0,0.0,0.0,0.0,0.0,0.0,0.0,0.0,0.0,0.0,0.0,0.0,0.0,0.0,0.0,0.0,0.0,0.0,0.0,0.0,0.0,0.0,0.0,0.0,0.0,0.0,0.0,0.0,0.0,0.0,13.1838,13.954,14.449,14.4247,14.3668,14.2718,14.1249,14.0986,13.783,13.051,0.0,0.0,0.0,0.0,0.0,0.0,0.0,0.0,0.0,0.0,0.0,0.0,0.0,0.0,0.0,0.0,0.0,0.0,0.0,0.0,0.0,0.0,0.0,0.0,0.0,0.0,0.0,0.0,0.0,0.0,0.0,0.0,0.0,0.0,0.0,0.0,0.0,0.0,0.0,0.0,0.0,0.0,0.0,0.0,0.0,0.0,0.0,0.0,0.0,0.0,0.0,0.0,0.0,0.0,0.0,0.0,0.0,0.0,0.0,0.0,0.0,0.0,0.0,0.0,0.0,0.0,0.0,0.0,0.0,0.0,0.0,0.0,0.0,0.0,0.0,0.0,0.0,0.0,0.0,0.0,0.0,0.0,0.0,0.0,0.0,0.0,0.0,0.0,0.0,0.0,0.0,0.0,0.0,0.0,0.0,0.0,0.0,0.0,0.0,0.0,0.0,0.0,13.0286,13.8177,14.3239,14.32,14.2723,14.1735,13.9932,13.9032,13.4574,12.5289,0.0,0.0,0.0,0.0,0.0,0.0,0.0,0.0,0.0,0.0,0.0,0.0,0.0,0.0,0.0,0.0,0.0,0.0,0.0,0.0,0.0,0.0,0.0,0.0,0.0,0.0,0.0,0.0,0.0,0.0,0.0,0.0,0.0,0.0,0.0,0.0,0.0,0.0,0.0,0.0,0.0,0.0,0.0,0.0,0.0,0.0,0.0,0.0,0.0,0.0,0.0,0.0,0.0,0.0,0.0,0.0,0.0,0.0,0.0,0.0,0.0,0.0,0.0,0.0,0.0,0.0,0.0,0.0,0.0,0.0,0.0,0.0,0.0,0.0,0.0,0.0,0.0,0.0,0.0,0.0,0.0,0.0,0.0,0.0,0.0,0.0,0.0,0.0,0.0,0.0,0.0,0.0,0.0,0.0,0.0,0.0,0.0,0.0,0.0,0.0,0.0,0.0,12.8407,13.6617,14.2113,14.2201,14.1732,14.073,13.8864,13.7657,13.2382,12.1553,0.0,0.0,0.0,0.0,0.0,0.0,0.0,0.0,0.0,0.0,0.0,0.0,0.0,0.0,0.0,0.0,0.0,0.0,0.0,0.0,0.0,0.0,0.0,0.0,0.0,0.0,0.0,0.0,0.0,0.0,0.0,0.0,0.0,0.0,0.0,0.0,0.0,0.0,0.0,0.0,0.0,0.0,0.0,0.0,0.0,0.0,0.0,0.0,0.0,0.0,0.0,0.0,0.0,0.0,0.0,0.0,0.0,0.0,0.0,0.0,0.0,0.0,0.0,0.0,0.0,0.0,0.0,0.0,0.0,0.0,0.0,0.0,0.0,0.0,0.0,0.0,0.0,0.0,0.0,0.0,0.0,0.0,0.0,0.0,0.0,0.0,0.0,0.0,0.0,0.0,0.0,0.0,0.0,0.0,0.0,0.0,0.0,0.0,0.0,0.0,0.0,0.0,12.5438,13.4478,14.0558,14.0558,14.0181,13.9397,13.7761,13.7297,13.2108,0.0,0.0,0.0,0.0,0.0,0.0,0.0,0.0,0.0,0.0,0.0,0.0,0.0,0.0,0.0,0.0,0.0,0.0,0.0,0.0,0.0,0.0,0.0,0.0,0.0,0.0,0.0,0.0,0.0,0.0,0.0,0.0,0.0,0.0,0.0,0.0,0.0,0.0,0.0,0.0,0.0,0.0,0.0,0.0,0.0,0.0,0.0,0.0,0.0,0.0,0.0,0.0,0.0,0.0,0.0,0.0,0.0,0.0,0.0,0.0,0.0,0.0,0.0,0.0,0.0,0.0,0.0,0.0,0.0,0.0,0.0,0.0,0.0,0.0,0.0,0.0,0.0,0.0,0.0,0.0,0.0,0.0,0.0,0.0,0.0,0.0,0.0,0.0,0.0,0.0,0.0,0.0,0.0,0.0,0.0,0.0,0.0,0.0,0.0,0.0,0.0,0.0,0.0,12.4902,13.1137,13.657,14.0607,13.9995,13.8988,13.8259,13.5252,12.9619,12.0552,0.0,0.0,0.0,0.0,0.0,0.0,0.0,0.0,0.0,0.0,0.0,0.0,0.0,0.0,0.0,0.0,0.0,0.0,0.0,0.0,0.0,0.0,0.0,0.0,0.0,0.0,0.0,0.0,0.0,0.0,0.0,0.0,0.0,0.0,0.0,0.0,0.0,0.0,0.0,0.0,0.0,0.0,0.0,0.0,0.0,0.0,0.0,0.0,0.0,0.0,0.0,0.0,0.0,0.0,0.0,0.0,0.0,0.0,0.0,0.0,0.0,0.0,0.0,0.0,0.0,0.0,0.0,0.0,0.0,0.0,0.0,0.0,0.0,0.0,0.0,0.0,0.0,0.0,0.0,0.0,0.0,0.0,0.0,0.0,0.0,0.0,0.0,0.0,0.0,0.0,0.0,0.0,0.0,0.0,0.0,0.0,0.0,0.0,0.0,0.0,0.0,0.0,0.0,12.9949,13.5514,13.9222,13.8753,13.7607,13.6236,13.3333,12.7921,11.9272,0.0,0.0,0.0,0.0,0.0,0.0,0.0,0.0,0.0,0.0,0.0,0.0,0.0,0.0,0.0,0.0,0.0,0.0,0.0,0.0,0.0,0.0,0.0,0.0,0.0,0.0,0.0,0.0,0.0,0.0,0.0,0.0,0.0,0.0,0.0,0.0,0.0,0.0,0.0,0.0,0.0,0.0,0.0,0.0,0.0,0.0,0.0,0.0,0.0,0.0,0.0,0.0,0.0,0.0,0.0,0.0,0.0,0.0,0.0,0.0,0.0,0.0,0.0,0.0,0.0,0.0,0.0,0.0,0.0,0.0,0.0,0.0,0.0,0.0,0.0,0.0,0.0,0.0,0.0,0.0,0.0,0.0,0.0,0.0,0.0,0.0,0.0,0.0,0.0,0.0,0.0,0.0,0.0,0.0,0.0,0.0,0.0,0.0,0.0,0.0,0.0,0.0,0.0,13.0035,13.6185,13.6654,13.6587,13.538,13.2631,13.1313,12.6628,11.7079,11.3103,0.0,0.0,0.0,0.0,0.0,0.0,0.0,0.0,0.0,0.0,0.0,0.0,0.0,0.0,0.0,0.0,0.0,0.0,0.0,0.0,0.0,0.0,0.0,0.0,0.0,0.0,0.0,0.0,0.0,0.0,0.0,0.0,0.0,0.0,0.0,0.0,0.0,0.0,0.0,0.0,0.0,0.0,0.0,0.0,0.0,0.0,0.0,0.0,0.0,0.0,0.0,0.0,0.0,0.0,0.0,0.0,0.0,0.0,0.0,0.0,0.0,0.0,0.0,0.0,0.0,0.0,0.0,0.0,0.0,0.0,0.0,0.0,0.0,0.0,0.0,0.0,0.0,0.0,0.0,0.0,0.0,0.0,0.0,0.0,0.0,0.0,0.0,0.0,0.0,0.0,0.0,0.0,0.0,0.0,0.0,0.0,0.0,0.0,0.0,0.0,0.0,0.0,12.5523,13.015,13.4729,13.4173,13.3167,13.2411,12.8086,12.2993,11.7273,11.1868,0.0,0.0,0.0,0.0,0.0,0.0,0.0,0.0,0.0,0.0,0.0,0.0,0.0,0.0,0.0,0.0,0.0,0.0,0.0,0.0,0.0,0.0,0.0,0.0,0.0,0.0,0.0,0.0,0.0,0.0,0.0,0.0,0.0,0.0,0.0,0.0,0.0,0.0,0.0,0.0,0.0,0.0,0.0,0.0,0.0,0.0,0.0,0.0,0.0,0.0,0.0,0.0,0.0,0.0,0.0,0.0,0.0,0.0,0.0,0.0,0.0,0.0,0.0,0.0,0.0,0.0,0.0,0.0,0.0,0.0,0.0,0.0,0.0,0.0,0.0,0.0,0.0,0.0,0.0,0.0,0.0,0.0,0.0,0.0,0.0,0.0,0.0,0.0,0.0,0.0,0.0,0.0,0.0,0.0,0.0,0.0,0.0,0.0,0.0,0.0,0.0,0.0,11.7125,12.2756,13.0839,13.0888,12.9882,12.8474,12.5274,12.0953,11.5298,10.9399,0.0,0.0,0.0,0.0,0.0,0.0,0.0,0.0,0.0,0.0,0.0,0.0,0.0,0.0,0.0,0.0,0.0,0.0,0.0,0.0,0.0,0.0,0.0,0.0,0.0,0.0,0.0,0.0,0.0,0.0,0.0,0.0,0.0,0.0,0.0,0.0,0.0,0.0,0.0,0.0,0.0,0.0,0.0,0.0,0.0,0.0,0.0,0.0,0.0,0.0,0.0,0.0,0.0,0.0,0.0,0.0,0.0,0.0,0.0,0.0,0.0,0.0,0.0,0.0,0.0,0.0,0.0,0.0,0.0,0.0,0.0,0.0,0.0,0.0,0.0,0.0,0.0,0.0,0.0,0.0,0.0,0.0,0.0,0.0,0.0,0.0,0.0,0.0,0.0,0.0,0.0,0.0,0.0,0.0,0.0,0.0,0.0,0.0,0.0,0.0,0.0,0.0,0.0,11.5985,12.5911,12.7444,12.6596,12.3847,12.2921,11.9506,11.2667,0.0,0.0,0.0,0.0,0.0,0.0,0.0,0.0,0.0,0.0,0.0,0.0,0.0,0.0,0.0,0.0,0.0,0.0,0.0,0.0,0.0,0.0,0.0,0.0,0.0,0.0,0.0,0.0,0.0,0.0,0.0,0.0,0.0,0.0,0.0,0.0,0.0,0.0,0.0,0.0,0.0,0.0,0.0,0.0,0.0,0.0,0.0,0.0,0.0,0.0,0.0,0.0,0.0,0.0,0.0,0.0,0.0,0.0,0.0,0.0,0.0,0.0,0.0,0.0,0.0,0.0,0.0,0.0,0.0,0.0,0.0,0.0,0.0,0.0,0.0,0.0,0.0,0.0,0.0,0.0,0.0,0.0,0.0,0.0,0.0,0.0,0.0,0.0,0.0,0.0,0.0,0.0,0.0,0.0,0.0,0.0,0.0,0.0,0.0,0.0,0.0,0.0,0.0,0.0,11.3628,12.1049,12.4434,12.5456,12.378,12.1229,11.7191,11.1158,0.0,0.0,0.0,0.0,0.0,0.0,0.0,0.0,0.0,0.0,0.0,0.0,0.0,0.0]}],[{"header":{"parameterUnit":"kt","parameterCategory":2,"dx":1,"dy":1,"la1":29.285339999999998,"la2":30.599998999999997,"lo1":-89.70041500000002,"lo2":-87.6738589999976,"nx":112,"ny":82,"refTime":"2022-09-26T06:00:00:Z","depth":0,"parameterNumber":2,"parameterNumberName":"V-component_of_WINDS"},"data":[10.2165,10.4512,10.7018,10.7419,10.8064,10.8936,11.0238,11.3142,11.5966,11.7248,12.1544,12.5101,0.0,0.0,0.0,0.0,0.0,0.0,0.0,12.2386,12.3976,12.5378,13.1268,13.6785,14.0522,14.3423,14.59,14.8051,14.95,15.0295,15.0295,14.964,14.978,15.0809,15.0482,15.0949,15.2405,15.4088,15.6275,15.8836,15.9093,16.0791,16.3726,16.4064,16.4716,16.5476,16.6677,16.7166,16.7166,16.7166,16.7166,16.7166,16.7166,16.7166,16.7166,16.7166,16.7166,16.7166,16.7166,16.7166,16.7166,16.7166,16.7166,16.7166,16.7166,16.7166,16.7269,16.76,16.7453,16.7269,16.76,16.7405,16.7166,16.7166,16.7166,16.7166,16.7166,16.7166,16.7166,16.7166,16.7166,16.7166,16.7166,16.6825,16.6429,16.6044,16.5702,16.4819,16.3018,16.2481,16.1895,16.0874,16.0776,16.0776,16.0776,16.0776,16.0922,16.1313,16.1895,16.2481,16.2871,16.4136,16.5058,16.5453,16.6136,16.677,16.7166,16.7166,16.7166,16.7166,16.7166,16.7166,9.9166,10.0571,10.2124,10.2351,10.1889,10.2238,10.545,10.8922,11.2322,11.5251,12.1042,0.0,0.0,0.0,0.0,0.0,0.0,0.0,0.0,12.4026,12.7989,13.149,13.7122,14.1432,14.3373,14.641,14.8565,14.9219,15.0575,15.1043,15.0341,14.9967,15.0108,15.0809,15.1563,15.2405,15.348,15.553,15.7277,15.8755,15.8965,16.0252,16.2409,16.3285,16.4064,16.4935,16.6459,16.7166,16.7166,16.7166,16.7166,16.7166,16.7166,16.7166,16.7166,16.7166,16.7166,16.7166,16.7166,16.7166,16.7166,16.7166,16.7166,16.7166,16.7166,16.7166,16.7166,16.7166,16.7166,16.7166,16.7166,16.7166,16.7166,16.7166,16.7166,16.7166,16.7166,16.7166,16.7166,16.7166,16.7166,16.7166,16.7166,16.7166,16.702,16.6624,16.5599,16.4624,16.3989,16.2969,16.2041,16.1362,16.1606,16.1557,16.0825,16.1069,16.1313,16.1313,16.1895,16.2627,16.3355,16.4672,16.5599,16.6044,16.677,16.7166,16.7166,16.7166,16.7166,16.7166,16.7166,16.7166,9.7761,9.7989,9.8065,9.5612,9.8316,10.1471,10.0809,10.7177,11.3793,11.5679,0.0,12.496,12.5942,12.5381,0.0,0.0,0.0,0.0,0.0,12.2994,13.1071,13.9205,14.2894,14.476,14.4735,14.7537,14.936,14.936,15.123,15.1516,14.9453,15.0295,15.0809,15.0809,15.2872,15.4455,15.5484,15.7596,15.8624,15.8624,15.9542,15.9962,16.0065,16.2512,16.3623,16.3844,16.6083,16.7112,16.7166,16.7166,16.7166,16.7166,16.7166,16.7166,16.7166,16.7166,16.7166,16.7166,16.7166,16.7166,16.7166,16.7166,16.7166,16.7166,16.7166,16.7166,16.7166,16.7166,16.7166,16.7166,16.7166,16.7166,16.7166,16.7166,16.7166,16.7166,16.7166,16.7166,16.7166,16.7166,16.7166,16.7166,16.7166,16.7166,16.677,16.5648,16.457,16.3945,16.3945,16.3018,16.2334,16.2285,16.3262,16.3018,16.0922,16.1752,16.2285,16.2237,16.2285,16.3209,16.5307,16.5399,16.5941,16.7166,16.7166,16.7166,16.7166,16.7166,16.7166,16.7166,16.7166,16.7166,9.3351,9.4869,9.6311,9.3857,9.6899,10.1076,10.3124,10.8064,11.3704,11.9032,12.3143,0.0,0.0,0.0,12.6734,12.636,0.0,12.9352,12.8931,13.2764,13.6974,14.0731,14.2557,14.4426,14.6648,14.9032,15.0715,15.1463,15.2077,15.1844,15.0482,15.0669,15.0809,15.0809,15.2872,15.4455,15.5484,15.7596,15.8624,15.8624,15.9542,15.9962,16.0065,16.1672,16.2891,16.3726,16.5257,16.6404,16.7166,16.7166,16.7166,16.7166,16.7166,16.7166,16.7166,16.7166,16.7166,16.7166,16.7166,16.7166,16.7166,16.7166,16.7166,16.7166,16.7166,16.7166,16.7166,16.7166,16.7166,16.7166,16.7166,16.7166,16.7166,16.7166,16.7166,16.7166,16.7166,16.7166,16.7166,16.7166,16.7166,16.7166,16.7166,16.7166,16.702,16.677,16.5692,16.4965,16.4965,16.4091,16.3115,16.2383,16.3262,16.3018,16.0922,16.1752,16.1944,16.1215,16.1846,16.292,16.4238,16.5014,16.5941,16.7166,16.7166,16.7166,16.7166,16.7166,16.7166,16.7166,16.7166,16.7166,9.172,9.3124,9.4642,9.2484,9.6439,10.1514,10.3691,10.9172,11.526,12.0586,0.0,0.0,0.0,0.0,0.0,0.0,13.1081,13.3465,13.1595,13.6597,14.1233,14.3321,14.4422,14.61,14.8764,15.051,15.175,15.2352,15.1984,15.1516,15.0908,15.0809,15.0996,15.1516,15.3948,15.5772,15.6801,15.8382,15.9177,15.9177,15.9738,15.9962,16.0009,16.1291,16.2567,16.3726,16.4935,16.6083,16.7166,16.7166,16.7166,16.7166,16.7166,16.7166,16.7166,16.7166,16.7166,16.7166,16.7166,16.7166,16.7166,16.7166,16.7166,16.7166,16.7166,16.7166,16.7166,16.7166,16.7166,16.7166,16.7166,16.7166,16.7166,16.7166,16.7166,16.7166,16.7166,16.7166,16.7166,16.7166,16.7166,16.7166,16.7166,16.7166,16.7166,16.7166,16.619,16.5599,16.6087,16.5214,16.4331,16.3648,16.4579,16.4384,16.2237,16.2627,16.253,16.1508,16.1606,16.1895,16.253,16.3989,16.5556,16.7112,16.7166,16.7166,16.7166,16.7166,16.7166,16.7166,16.7166,16.7166,9.153,9.2061,9.2978,9.1644,9.6531,10.218,10.386,0.0,11.7745,12.1841,0.0,12.8604,12.9726,0.0,0.0,12.6923,13.3419,13.6739,13.038,13.7625,14.4379,14.6469,14.745,14.8693,15.0664,15.1763,15.2405,15.2405,15.1417,15.0809,15.0809,15.0809,15.1376,15.2545,15.5484,15.7596,15.8624,15.9542,15.9962,15.9962,15.9962,15.9962,16.0009,16.1171,16.2393,16.3506,16.4716,16.5865,16.6998,16.7112,16.7166,16.7166,16.7166,16.7166,16.7166,16.7166,16.7166,16.7166,16.7166,16.7166,16.7166,16.7166,16.7166,16.7166,16.7166,16.7166,16.7166,16.7166,16.7166,16.7166,16.7166,16.7166,16.7166,16.7166,16.7166,16.7166,16.7166,16.7166,16.7166,16.7166,16.7166,16.7166,16.7166,16.7166,16.7166,16.7166,16.6282,16.6044,16.702,16.6282,16.5546,16.5453,16.6429,16.6282,16.4091,16.3843,16.3408,16.2383,16.1362,16.0776,16.0776,16.2774,16.4921,16.7112,16.7166,16.7166,16.7166,16.7166,16.7166,16.7166,16.7166,16.7166,8.9603,8.9979,9.0966,9.1991,9.5931,10.1233,0.0,0.0,0.0,12.7419,13.0333,13.2063,13.3933,13.5102,13.6131,13.7019,13.9262,14.0758,14.0195,14.398,14.7307,14.8595,14.8856,14.9511,15.075,15.1809,15.2405,15.2405,15.1417,15.0809,15.0809,15.0809,15.165,15.3621,15.5912,15.7596,15.8624,15.9542,15.9962,15.9962,15.9962,15.9962,15.9962,16.0186,16.1069,16.229,16.3506,16.4661,16.5865,16.678,16.7166,16.7166,16.7166,16.7166,16.7166,16.7166,16.7166,16.7166,16.7166,16.7166,16.7166,16.7166,16.7166,16.7166,16.7166,16.7166,16.7166,16.7166,16.7166,16.7166,16.7166,16.7166,16.7166,16.7166,16.7166,16.7166,16.7166,16.7166,16.7166,16.7166,16.7166,16.7166,16.7166,16.7166,16.7166,16.7166,16.6966,16.6917,16.7166,16.6966,16.6429,16.5546,16.6429,16.6282,16.4091,16.3843,16.3408,16.2383,16.1362,16.0776,16.0776,16.2774,16.4921,16.7112,16.7166,16.7166,16.7166,16.7166,16.7166,16.7166,16.7166,16.7166,8.8384,8.9067,9.0206,9.1042,9.7378,0.0,0.0,11.5833,12.4005,12.899,13.1689,13.3793,13.585,13.7534,13.8937,14.0014,14.2207,14.4214,14.5242,14.7205,14.8705,14.9219,14.9734,15.0435,15.1563,15.2077,15.2645,15.3153,15.175,15.1043,15.161,15.1142,15.2024,15.4696,15.6278,15.7774,15.9317,15.9738,15.9962,15.9962,15.9962,15.9962,15.9962,15.9962,16.0688,16.1949,16.2512,16.3829,16.5476,16.6083,16.6289,16.6356,16.6949,16.7166,16.7166,16.7166,16.7166,16.7166,16.7166,16.7166,16.7166,16.7166,16.7166,16.7166,16.7166,16.7166,16.7166,16.7166,16.7166,16.7166,16.7166,16.7166,16.7166,16.7166,16.7166,16.7166,16.7166,16.7166,16.7166,16.7166,16.7166,16.7166,16.7166,16.7166,16.7166,16.7166,16.7166,16.7166,16.7166,16.7166,16.6917,16.6385,16.6825,16.6727,16.5599,16.4477,16.3648,16.3115,16.1655,16.0776,16.0776,16.2774,16.4384,16.5453,16.6624,16.7166,16.7166,16.7166,16.7166,16.7166,16.7166,16.7166,8.709,8.819,8.9675,9.032,9.8576,0.0,10.8412,11.8317,12.7981,13.0804,13.3372,13.5756,13.7813,13.9778,14.1088,14.1275,14.4217,14.6831,14.791,14.8752,14.9453,14.9827,15.0622,15.1563,15.2592,15.2732,15.3013,15.3901,15.2165,15.1516,15.2352,15.161,15.2545,15.5725,15.6801,15.8242,15.9962,15.9962,15.9962,15.9962,15.9962,15.9962,15.9962,15.9962,16.0567,16.1569,16.1791,16.3009,16.4764,16.5257,16.5428,16.5531,16.6677,16.7166,16.7166,16.7166,16.7166,16.7166,16.7166,16.7166,16.7166,16.7166,16.7166,16.7166,16.7166,16.7166,16.7166,16.7166,16.7166,16.7166,16.7166,16.7166,16.7166,16.7166,16.7166,16.7166,16.7166,16.7166,16.7166,16.7166,16.7166,16.7166,16.7166,16.7166,16.7166,16.7166,16.7166,16.7166,16.7166,16.7166,16.7166,16.7166,16.7166,16.7166,16.7166,16.5307,16.4184,16.4184,16.2383,16.1264,16.1069,16.2871,16.375,16.3603,16.5556,16.6624,16.6825,16.6624,16.6624,16.6873,16.7074,16.7166,8.4853,8.6445,8.8456,9.1502,9.6885,0.0,11.4434,12.1188,12.788,13.7047,13.9217,14.0059,14.2064,14.3373,14.4447,14.5335,14.6644,14.7957,14.8986,14.9219,14.9967,15.1844,15.2124,15.2632,15.3721,15.3761,15.3861,15.3948,15.2872,15.2264,15.2405,15.2264,15.3621,15.6801,15.7876,15.8952,15.9962,15.9962,15.9962,15.9962,15.9962,15.9962,15.9962,15.9962,16.0065,16.0288,16.1394,16.2069,16.2496,16.4544,16.5428,16.5531,16.6677,16.7166,16.7166,16.7166,16.7166,16.7166,16.7166,16.7166,16.7166,16.7166,16.7166,16.7166,16.7166,16.7166,16.7166,16.7166,16.7166,16.7166,16.7166,16.7166,16.7166,16.7166,16.7166,16.7166,16.7166,16.7166,16.7166,16.7166,16.7166,16.7166,16.7166,16.7166,16.7166,16.7166,16.7166,16.7166,16.7166,16.7166,16.7166,16.7166,16.7166,16.7166,16.7166,16.5941,16.5204,16.5204,16.4136,16.3115,16.2139,16.3262,16.3457,16.2481,16.3603,16.4672,16.5599,16.4672,16.4726,16.5648,16.6678,16.7166,8.379,8.584,8.8152,9.0999,0.0,0.0,11.4811,12.3564,13.1917,13.7992,14.0152,14.1553,14.3606,14.4821,14.5849,14.6878,14.7438,14.8097,14.9126,14.9827,15.0715,15.2264,15.2926,15.348,15.3901,15.3948,15.3948,15.3948,15.3534,15.2785,15.1563,15.2077,15.3847,15.6988,15.8102,15.9092,15.9962,15.9962,15.9962,15.9962,15.9962,15.9962,15.9962,15.9962,15.9962,16.0009,16.0567,16.1227,16.1997,16.3009,16.3829,16.4544,16.5695,16.6574,16.7166,16.7166,16.7166,16.7166,16.7166,16.7166,16.7166,16.7166,16.7166,16.7166,16.7166,16.7166,16.7166,16.7166,16.7166,16.7166,16.7166,16.7166,16.7166,16.7166,16.7166,16.7166,16.7166,16.7166,16.7166,16.7166,16.7166,16.7166,16.7166,16.7166,16.7166,16.7166,16.7166,16.7166,16.7166,16.7166,16.7166,16.7166,16.7166,16.7166,16.7166,16.6087,16.5453,16.5453,16.4477,16.3408,16.2334,16.3364,16.3355,16.2334,16.3355,16.4091,16.4477,16.3457,16.3501,16.4579,16.5648,16.6532,8.326,0.0,0.0,0.0,0.0,0.0,11.6455,12.648,13.5663,13.8796,14.0758,14.2485,14.4307,14.5476,14.6504,14.7532,14.777,14.8097,14.9126,15.0154,15.1236,15.2264,15.334,15.3948,15.3948,15.3948,15.3948,15.3948,15.3721,15.2732,15.0902,15.1844,15.3847,15.6988,15.8344,15.9317,15.9962,15.9962,15.9962,15.9962,15.9962,15.9962,15.9962,15.9962,15.9962,15.9962,15.9962,16.0512,16.1394,16.1775,16.2614,16.3829,16.4935,16.6138,16.7166,16.7166,16.7166,16.7166,16.7166,16.7166,16.7166,16.7166,16.7166,16.7166,16.7166,16.7166,16.7166,16.7166,16.7166,16.7166,16.7166,16.7166,16.7166,16.7166,16.7166,16.7166,16.7166,16.7166,16.7166,16.7166,16.7166,16.7166,16.7166,16.7166,16.7166,16.7166,16.7166,16.7166,16.7166,16.7166,16.7166,16.7166,16.7166,16.7166,16.7166,16.6375,16.5941,16.5941,16.5214,16.4331,16.3209,16.3603,16.3355,16.2334,16.2774,16.3115,16.3457,16.2383,16.2383,16.3457,16.4238,16.5307,0.0,0.0,0.0,9.5021,10.4922,11.5251,12.1598,13.0233,13.7766,14.0805,14.2298,14.3323,14.4447,14.5476,14.6504,14.7532,14.777,14.8097,14.9126,15.0154,15.1236,15.2264,15.334,15.3948,15.3948,15.3948,15.3948,15.3948,15.3013,15.1937,15.0902,15.1844,15.3847,15.6988,15.8934,15.9962,15.9962,15.9962,15.9962,15.9962,15.9962,15.9962,15.9962,15.9962,15.9962,15.9962,15.9962,16.0009,16.013,16.1394,16.2614,16.3829,16.4935,16.6138,16.7166,16.7166,16.7166,16.7166,16.7166,16.7166,16.7166,16.7166,16.7166,16.7166,16.7166,16.7166,16.7166,16.7166,16.7166,16.7166,16.7166,16.7166,16.7166,16.7166,16.7166,16.7166,16.7166,16.7166,16.7166,16.7166,16.7166,16.7166,16.7166,16.7166,16.7166,16.7166,16.7166,16.7166,16.7166,16.7166,16.7166,16.7166,16.7166,16.7166,16.7166,16.7112,16.7112,16.7112,16.7112,16.6532,16.5399,16.4384,16.3355,16.2334,16.1362,16.1362,16.2334,16.1313,16.1362,16.2334,16.2383,16.3501,8.5119,8.8878,9.2788,9.7488,10.5852,11.4726,12.1677,12.9095,13.588,14.054,14.2345,14.3369,14.4397,14.5476,14.6504,14.7532,14.777,14.8097,14.9126,15.0154,15.1236,15.2264,15.334,15.3948,15.3948,15.3948,15.3948,15.3948,15.3621,15.2632,15.0902,15.2492,15.3901,15.4977,15.6988,15.8607,15.9962,15.9962,15.9962,15.9962,15.9962,15.9962,15.9962,15.9962,15.9962,15.9962,15.9962,15.9962,16.0009,16.0465,16.1394,16.2614,16.3829,16.4983,16.6083,16.6894,16.7166,16.7166,16.7166,16.7166,16.7166,16.7166,16.7166,16.7166,16.7166,16.7166,16.7166,16.7166,16.7166,16.7166,16.7166,16.7166,16.7166,16.7166,16.7166,16.7166,16.7166,16.7166,16.7166,16.7166,16.7166,16.7166,16.7166,16.7166,16.7166,16.7166,16.7166,16.7166,16.7166,16.7166,16.7166,16.7166,16.7166,16.7166,16.7166,16.7166,16.7166,16.7166,16.7166,16.6624,16.5453,16.5058,16.4091,16.2334,16.1944,16.1944,16.2285,16.1944,16.1655,16.1313,16.1944,16.2676,8.6865,9.0852,9.4617,9.9575,10.7467,11.5708,12.2213,12.9011,13.5367,14.0476,14.2345,14.3369,14.4397,14.5195,14.6083,14.7485,14.777,14.8004,14.8658,14.9921,15.1142,15.1797,15.3113,15.3948,15.3948,15.3948,15.3948,15.3948,15.324,15.2405,15.1469,15.1937,15.2959,15.4455,15.5811,15.7634,15.9962,15.9962,15.9962,15.9962,15.9962,15.9962,15.9962,15.9962,15.9962,15.9962,15.9962,15.9962,15.9962,15.9962,16.079,16.1997,16.2733,16.4049,16.5531,16.6241,16.6791,16.7166,16.7166,16.7166,16.7166,16.7166,16.7166,16.7166,16.7166,16.7166,16.7166,16.7166,16.7166,16.7166,16.7166,16.7166,16.7166,16.7166,16.7166,16.7166,16.7166,16.7166,16.7166,16.7166,16.7166,16.7166,16.7166,16.7166,16.7166,16.7166,16.7166,16.7166,16.7166,16.7166,16.7166,16.7166,16.7166,16.7166,16.7166,16.7166,16.7166,16.7166,16.7166,16.6873,16.6087,16.5648,16.4819,16.3457,16.3066,16.2871,16.2871,16.2871,16.253,16.1846,16.2578,16.2871,8.8346,9.2756,9.6592,10.1444,10.96,11.7858,12.339,12.9777,13.5881,14.0566,14.2298,14.3276,14.4354,14.4386,14.5035,14.7298,14.7672,14.777,14.777,14.9453,15.0762,15.0809,15.2632,15.3901,15.3948,15.3948,15.3948,15.3948,15.2124,15.1423,15.2264,15.0482,15.1276,15.5203,15.5429,15.6941,15.9925,15.9962,15.9962,15.9962,15.9962,15.9962,15.9962,15.9962,15.9962,15.9962,15.9962,15.9962,15.9962,15.9962,16.0688,16.1791,16.1894,16.3285,16.5257,16.5373,16.6083,16.7112,16.7166,16.7166,16.7166,16.7166,16.7166,16.7166,16.7166,16.7166,16.7166,16.7166,16.7166,16.7166,16.7166,16.7166,16.7166,16.7166,16.7166,16.7166,16.7166,16.7166,16.7166,16.7166,16.7166,16.7166,16.7166,16.7166,16.7166,16.7166,16.7166,16.7166,16.7166,16.7166,16.7063,16.6791,16.6998,16.7063,16.6791,16.6998,16.7166,16.7166,16.7166,16.7166,16.7166,16.6087,16.5453,16.5453,16.4477,16.3989,16.3936,16.3936,16.3945,16.3843,16.3843,16.3843,9.0282,9.6585,10.133,10.4519,10.9504,11.555,12.2929,12.739,13.2179,13.9924,14.169,14.2204,14.3229,14.1402,14.1198,14.5805,14.7256,14.777,14.777,14.8845,14.9967,15.0715,15.1984,15.31,15.3847,15.3948,15.3948,15.3948,15.348,15.2592,15.1329,15.1463,15.2077,15.3153,15.4682,15.6606,15.8952,15.9682,15.9962,15.9962,15.9962,15.9962,15.9962,15.9962,15.9962,15.9962,15.9962,15.9962,15.9962,15.9962,16.0186,16.0567,16.1514,16.229,16.3009,16.4764,16.5592,16.5968,16.6894,16.7166,16.7166,16.7166,16.7166,16.7166,16.7166,16.7166,16.7166,16.7166,16.7166,16.7166,16.7166,16.7166,16.7166,16.7166,16.7166,16.7166,16.7166,16.7166,16.7166,16.7166,16.7166,16.7166,16.7166,16.7166,16.7166,16.7166,16.7166,16.7166,16.7166,16.7166,16.5762,16.2045,16.4996,16.5659,16.199,16.5051,16.7166,16.7166,16.7166,16.7166,16.7166,16.6873,16.6282,16.5453,16.6044,16.5897,16.5068,16.5068,16.4624,16.3843,16.3843,16.3457,8.8232,9.5438,10.2003,10.5013,10.8582,11.3139,11.9616,12.2788,12.6987,13.6651,13.8632,13.9503,14.2556,14.1504,14.1519,14.5539,14.6644,14.7205,14.7677,14.8658,14.9687,15.0715,15.1797,15.2772,15.3861,15.3948,15.3948,15.3948,15.3534,15.2785,15.161,15.1183,15.1469,15.2405,15.352,15.5343,15.7876,15.885,15.9597,15.9962,15.9962,15.9962,15.9962,15.9962,15.9962,15.9962,15.9962,15.9962,15.9962,15.9962,15.9962,16.0065,16.079,16.1394,16.2116,16.3947,16.4983,16.5592,16.678,16.7166,16.7166,16.7166,16.7166,16.7166,16.7166,16.7166,16.7166,16.7166,16.7166,16.7166,16.7166,16.7166,16.7166,16.7166,16.7166,16.7166,16.7166,16.7166,16.7166,16.7166,16.7166,16.7166,16.7166,16.7166,16.7166,16.7166,16.7166,16.7166,16.7166,16.7166,16.6083,16.3363,16.3583,16.2764,16.0007,16.0342,16.0667,16.0667,16.2708,16.3961,16.3961,16.598,16.6873,16.619,16.2533,16.0338,15.9727,16.1914,16.2612,16.2146,16.4289,16.4726,8.5802,9.2782,10.0485,10.4204,10.7519,11.1039,11.5604,11.79,12.2123,13.2576,13.3703,13.4831,14.1441,14.2406,14.2996,14.5561,14.6083,14.655,14.7578,14.8518,14.9453,15.0482,15.1563,15.2592,15.3621,15.3861,15.3948,15.3948,15.31,15.2545,15.2405,15.0528,15.0295,15.2124,15.2305,15.3761,15.6606,15.7961,15.899,15.9822,15.9906,15.9962,15.9962,15.9962,15.9962,15.9962,15.9962,15.9962,15.9962,15.9962,15.9962,15.9962,15.9962,16.067,16.1791,16.3009,16.4064,16.5154,16.6289,16.6791,16.6949,16.6949,16.7052,16.7166,16.7166,16.7166,16.7166,16.7166,16.7166,16.7166,16.7166,16.7166,16.7166,16.7166,16.7166,16.7166,16.7166,16.7063,16.6949,16.6949,16.6949,16.6949,16.6949,16.7063,16.7166,16.7166,16.7166,16.7166,16.7166,16.7166,16.6894,16.6253,16.2369,15.9505,15.8854,15.4865,15.2371,15.2371,15.6392,15.8779,15.8779,16.2922,16.5215,16.5215,15.6777,15.2371,15.2416,15.6674,15.8779,15.89,16.3245,16.4582,9.135,9.5605,9.9327,10.4709,10.7519,11.0258,11.5444,11.79,12.1969,13.189,12.751,12.5766,13.8324,13.899,13.9186,14.4125,14.5616,14.655,14.7578,14.791,14.8425,14.9406,15.0435,15.1563,15.2545,15.348,15.3948,15.3948,15.3761,15.334,15.2405,15.1236,15.0768,15.1089,15.1937,15.3113,15.4455,15.7268,15.8709,15.885,15.9597,15.9962,15.9962,15.9962,15.9962,15.9962,15.9962,15.9962,15.9962,15.9962,15.9962,15.9962,15.9962,16.0065,16.0465,16.1736,16.2393,16.2717,16.3844,16.4935,16.575,16.575,16.6356,16.7166,16.7166,16.7166,16.7166,16.7166,16.7166,16.7166,16.7166,16.7166,16.7166,16.7166,16.7166,16.7166,16.7166,16.6404,16.575,16.575,16.575,16.575,16.575,16.6562,16.7166,16.7166,16.7166,16.7166,16.7166,16.7166,16.5592,16.1491,16.0286,15.8172,15.407,15.2885,15.2371,15.2371,15.3171,15.3684,15.3684,15.4479,15.4967,15.4967,15.3273,15.2371,15.2371,15.3273,15.3684,15.3684,15.4582,15.4378,8.9637,9.3927,9.7761,10.1444,10.4937,10.8191,11.1195,11.3177,11.6384,12.3358,12.3986,12.5389,13.2104,13.4602,13.6705,13.9877,14.1237,14.3111,14.643,14.7345,14.8144,14.9173,14.9734,15.0622,15.2264,15.2872,15.3394,15.3901,15.3948,15.348,15.2458,15.1423,15.0575,15.0014,15.0482,15.1563,15.3153,15.5164,15.6988,15.8624,15.9092,15.9542,15.9962,15.9962,15.9962,15.9962,15.9962,15.9962,15.9962,15.9962,15.9962,15.9962,15.9962,15.9962,16.013,16.145,16.1894,16.2116,16.323,16.4049,16.4558,16.5257,16.581,16.6241,16.6241,16.6241,16.6241,16.6241,16.6241,16.6404,16.6998,16.7166,16.7166,16.7166,16.7166,16.7166,16.7166,16.6241,16.5428,16.5428,16.4935,16.4544,16.4544,16.4983,16.5373,16.5373,16.5373,16.5373,16.5373,16.5865,16.4078,15.8452,15.6674,15.3684,14.8094,14.588,14.5949,14.8485,14.8645,14.9772,15.2314,14.7512,14.4777,14.4777,14.4777,14.4777,14.4777,14.7381,14.8645,14.8673,15.1256,15.2103,8.7814,9.2441,9.6956,9.8825,10.2545,10.6038,10.7253,10.8506,11.0758,11.5146,12.076,12.5197,12.6285,13.0178,13.3556,13.4617,13.6414,13.9337,14.4106,14.6266,14.7817,14.8845,14.9173,14.9921,15.1557,15.2124,15.2732,15.3581,15.3808,15.3621,15.2785,15.175,15.0669,14.964,14.964,15.0388,15.2024,15.334,15.5444,15.8242,15.8484,15.9074,15.9962,15.9766,15.9682,15.9682,15.9925,15.9962,15.9962,15.9962,15.9962,15.9962,15.9962,15.9962,16.0065,16.1116,16.1497,16.1616,16.2567,16.3112,16.3451,16.4338,16.5038,16.5373,16.5154,16.5257,16.5373,16.5099,16.5257,16.5646,16.6574,16.6998,16.7052,16.6562,16.6574,16.6677,16.6459,16.5476,16.4661,16.4661,16.3947,16.3333,16.3333,16.3506,16.3348,16.2251,16.1103,16.0389,16.0389,16.1222,15.9905,15.499,15.1799,14.8181,14.3659,13.967,13.9132,14.333,14.3625,14.5364,14.9093,14.1909,13.7833,13.7833,13.7833,13.7833,13.7833,14.1713,14.3625,14.3718,14.7482,14.9252,9.0971,9.4731,9.8036,10.0467,10.2556,10.4645,10.6949,10.7633,10.8978,11.3245,11.5995,11.9015,12.3643,12.6318,12.8161,12.9195,13.3442,13.7447,13.9846,14.3719,14.6691,14.777,14.8705,14.936,14.9547,15.1329,15.2405,15.2545,15.338,15.3901,15.3808,15.2872,15.1797,15.0715,15.0669,15.0762,15.0949,15.2959,15.5078,15.7213,15.8157,15.9074,15.9962,15.913,15.8709,15.8811,15.9597,15.9962,15.9962,15.9962,15.9962,15.9962,15.9962,15.9962,16.0009,16.0065,16.0186,16.0186,16.0288,16.1069,16.2116,16.2219,16.3726,16.5257,16.4167,16.4558,16.5209,16.4119,16.4558,16.5428,16.5543,16.6356,16.6622,16.4441,16.4777,16.5257,16.4221,16.3112,16.2274,16.2274,16.2171,16.2069,16.2069,16.3009,16.2093,15.7462,15.2853,14.9899,14.9899,14.9956,14.9797,14.9279,14.5076,14.2613,14.3204,13.8811,13.677,13.8393,13.8494,13.8693,13.9132,13.8273,13.7833,13.7833,13.7833,13.7833,13.7833,13.8273,13.8494,13.8473,13.8933,13.9132,8.5726,8.9675,9.3357,9.4838,9.8369,10.1976,10.4026,10.4481,10.5394,10.8683,11.319,11.6557,11.6403,12.0037,12.3327,12.4315,12.8965,13.3895,13.806,14.3003,14.655,14.763,14.8144,14.8612,14.9219,15.0014,15.0996,15.2264,15.2785,15.3293,15.3901,15.2959,15.1937,15.0908,15.0201,14.9921,14.9921,15.1323,15.31,15.5218,15.6278,15.5727,15.3783,15.3429,15.3566,15.4361,15.7729,15.9457,15.9962,15.9962,15.9962,15.9962,15.9962,15.9962,15.9962,15.9962,15.9962,15.9962,15.9962,16.0288,16.0893,16.1672,16.2512,16.323,16.2733,16.2891,16.323,16.2733,16.2954,16.3451,16.4167,16.5257,16.5695,16.4064,16.4049,16.4221,16.3726,16.2733,16.1894,16.1894,16.1291,15.9785,15.6791,15.6689,15.5285,15.019,14.7702,14.6436,14.6436,14.7019,14.5985,14.2228,14.1566,14.0341,13.7852,13.6509,13.7733,14.201,13.9431,13.7131,13.5562,13.6267,13.6629,13.6629,13.7432,13.7833,13.7833,13.7833,13.7833,13.7833,13.7833,13.7833,8.2537,8.6182,8.9903,9.0923,9.4831,9.8968,10.0865,10.1178,10.1862,10.4949,10.9982,11.3231,11.0863,11.4361,11.7807,11.848,12.3298,12.8559,13.2992,13.8312,14.2607,14.5007,14.5526,14.6507,14.8648,14.7833,14.8411,15.127,15.0761,15.125,15.338,15.3113,15.2405,15.1323,15.0295,14.9734,14.9734,15.0154,15.161,15.3948,15.3251,15.1484,14.8868,15.062,15.1786,15.2633,15.4987,15.6467,15.7221,15.5769,15.6234,15.7907,15.9403,15.9962,15.9962,15.9962,15.9962,15.9962,15.9962,15.9962,16.013,16.1069,16.1616,16.1894,16.145,16.1616,16.1894,16.145,16.1616,16.2116,16.2906,16.3726,16.4104,16.2851,16.2851,16.3009,16.263,16.191,16.0893,15.9459,15.8413,15.6226,15.123,15.0322,14.8645,14.3533,14.2749,14.2217,14.0735,14.1269,14.0117,13.5726,13.6891,13.669,13.3622,13.4229,13.675,14.1553,13.8633,13.5804,13.4026,13.4836,13.5299,13.5299,13.6166,13.687,13.7231,13.7231,13.7432,13.7833,13.7833,13.7833,8.3754,8.6261,8.9223,9.0771,9.3124,9.5749,9.8217,9.8179,9.8795,10.2984,10.5822,10.7784,10.853,11.01,11.1292,11.1292,11.6401,12.1112,12.3126,12.786,13.3258,13.8988,14.0292,14.2648,14.7259,14.4449,14.4306,14.9,14.6913,14.7501,15.2139,15.3394,15.348,15.2405,15.1376,15.0809,15.0809,14.9827,15.0856,15.3901,14.9142,14.6803,14.7002,15.2797,15.5429,15.5298,15.1413,15.0297,15.0736,14.5943,14.7428,15.3122,15.8066,15.9962,15.9962,15.9962,15.9962,15.9962,15.9962,15.9962,15.9962,16.0009,16.0893,16.1672,16.0391,16.0893,16.1672,16.0391,16.0949,16.1894,16.1949,16.1949,16.1616,16.0344,16.1013,16.1569,16.0288,16.0009,15.8572,15.3636,15.2709,15.107,14.5981,14.5103,14.3339,13.829,13.7491,13.5726,13.0838,13.0164,13.0216,13.0117,13.0117,13.0631,13.1916,13.2015,13.2587,13.3926,13.4026,13.3926,13.3926,13.3926,13.3926,13.3926,13.3926,13.4593,13.5864,13.5864,13.6568,13.7833,13.7833,13.7833,8.1247,8.4134,8.7359,8.838,9.1004,9.3857,9.5757,9.7352,9.89,10.0761,10.2697,10.4823,10.7405,11.0176,11.2279,11.2818,11.7591,12.2751,12.7127,12.9181,13.2527,13.869,13.9711,13.9527,13.8388,14.2972,14.426,14.0169,14.5635,14.8653,14.7672,15.1638,15.348,15.2405,15.2077,15.1183,14.978,14.6966,14.6006,14.685,14.2755,13.9107,13.61,13.8451,13.9948,14.0712,14.2831,14.4273,14.5065,14.353,14.4359,14.6822,14.8904,15.183,15.4922,15.4922,15.7073,15.9962,15.9962,15.9962,15.9962,15.9962,16.0288,16.0512,16.0065,16.0288,16.0512,16.0065,16.0288,16.0567,16.0567,16.0567,16.0465,16.0065,16.0288,16.0465,16.0065,15.9962,15.9506,15.7964,15.7682,15.6056,15.107,14.728,14.3238,13.819,13.4557,13.1816,13.0263,13.0056,13.0056,13.0056,13.0056,13.057,13.1877,13.1977,13.2587,13.3865,13.2282,13.1243,13.1243,13.2137,13.2587,13.2587,13.3461,13.4129,13.4533,13.5441,13.6106,13.6528,13.7432,13.7833,8.0677,8.3335,8.6068,8.7204,8.9025,9.1117,9.3136,9.4762,9.6349,9.8171,9.984,10.1976,10.5051,10.8847,11.1672,11.1794,11.565,11.9843,12.33,12.4283,12.6931,13.3019,13.4066,13.4945,13.6334,13.8539,13.9185,13.761,14.0511,14.3103,14.4723,14.8568,15.1384,15.2913,15.0844,14.9058,14.7757,14.512,14.2059,13.8683,13.643,13.3973,13.1513,13.3833,13.5118,13.5495,13.6972,13.7986,13.8454,13.6933,13.794,14.056,14.1027,14.4529,14.9334,14.9613,15.2893,15.7175,15.7175,15.8393,15.9962,15.9962,15.9962,15.9962,15.9962,15.9962,15.9962,15.9962,15.9962,15.9962,15.9962,15.9962,15.9962,15.9962,15.9962,15.9962,15.9962,15.9962,15.8852,15.5047,15.4307,15.2161,14.5236,14.1465,13.829,13.5123,13.2022,13.0056,13.0056,13.0056,13.0056,13.0056,13.0056,13.0363,13.1205,13.1243,13.161,13.2443,13.0937,13.0056,13.0056,13.0792,13.1243,13.1243,13.2076,13.2748,13.3196,13.4026,13.4633,13.5139,13.5965,13.6629,8.1625,8.3523,8.5233,8.6824,8.7431,8.8304,9.0733,9.1188,9.1985,9.5211,9.7222,9.9204,10.1558,10.6152,10.9417,10.9024,11.1642,11.3875,11.4251,11.5351,11.8158,12.3659,12.5127,12.925,13.8275,13.2044,13.0721,13.8654,13.2868,13.2988,14.2238,14.4027,14.7285,15.2639,14.752,14.4695,14.4695,14.3425,13.8505,13.0114,13.0744,13.1284,13.1736,13.6225,13.7945,13.7032,13.327,13.1603,13.1278,12.7463,12.9203,13.4322,13.4322,13.7726,14.2686,14.3907,14.7542,15.1958,15.1958,15.5228,15.9459,15.9459,15.9683,15.9962,15.9962,15.9962,15.9962,15.9962,15.9962,15.9962,15.9962,15.9962,15.9962,15.9962,15.9962,15.9906,15.9562,15.9459,15.6565,14.6887,14.5002,14.2057,13.2731,13.0838,13.057,13.057,13.0263,13.0056,13.0056,13.0056,13.0056,12.9942,13.0018,13.0056,12.9942,13.0018,12.9942,12.9714,12.9714,12.9714,12.9714,12.9714,12.9714,12.9729,12.9729,13.0402,13.1755,13.1861,13.2587,13.3765,13.3926,13.4593,8.0259,8.231,8.4172,8.4511,8.7055,8.9903,9.1763,9.1193,9.0657,9.2061,9.4269,9.6288,9.745,10.1824,10.6658,11.095,11.2796,11.5155,11.923,11.7218,11.7294,12.2575,12.4106,12.4501,12.3958,12.8995,13.0215,12.5171,13.0419,13.3345,13.2144,13.6467,13.9922,14.1858,14.0546,13.9806,13.9683,13.5897,13.1131,12.5441,12.9853,12.9719,12.5884,12.7612,12.8274,12.7981,12.6447,12.5787,12.5632,12.3986,12.4525,12.652,12.7117,12.8559,13.0876,13.5688,14.1002,14.5913,14.5913,14.9591,15.4307,15.4307,15.6893,15.9962,15.9962,15.9962,15.9962,15.9962,15.9962,15.9962,15.9962,15.9962,15.9962,15.9962,15.9962,15.8955,15.5103,15.4307,15.2448,14.6215,14.5002,14.4281,14.1921,13.829,13.5726,13.5726,13.2471,13.0056,13.0056,13.0056,12.9729,12.9045,12.9615,12.9729,12.9045,12.9615,12.8916,12.635,12.616,12.616,12.616,12.616,12.6463,12.7049,12.7087,12.7875,12.9494,13.0467,13.1481,13.2443,13.3461,13.4069,8.0601,8.2993,8.4475,8.2538,8.4627,8.7245,8.7777,8.7777,8.7928,8.876,9.0966,9.3326,9.5294,9.8567,10.2708,10.8164,11.0746,11.3318,11.6956,11.5738,11.592,11.9857,12.0568,12.1124,12.2402,12.5186,12.5883,12.3311,12.6389,12.8407,12.846,13.1434,13.4543,13.7581,13.5493,13.4411,13.4754,13.0114,12.6428,12.3864,12.7243,12.732,12.4337,12.4793,12.4793,12.4451,12.4375,12.4148,12.3768,12.3254,12.335,12.3806,12.3823,12.4337,12.5489,12.8741,13.2109,13.5546,13.8266,14.3079,14.8029,14.8438,15.0394,15.3051,15.576,15.6565,15.7073,15.9301,15.6667,15.3122,15.3122,15.3122,15.3122,15.3122,15.3122,15.2346,14.9643,14.9122,14.7571,14.2513,14.1566,14.0812,13.855,13.5529,13.3424,13.3424,13.0831,12.8855,12.8855,12.8855,12.8688,12.8172,12.859,12.8688,12.8172,12.8232,12.7489,12.5607,12.5189,12.5021,12.5021,12.5021,12.5189,12.5607,12.5607,12.6062,12.6973,12.7692,12.8494,12.9315,13.0022,13.1089,8.1246,8.3826,8.4891,8.1513,8.212,8.3373,8.2764,8.3599,8.4853,8.5878,8.8194,9.089,9.3895,9.625,9.9166,10.3483,10.7177,11.019,11.2241,11.3251,11.458,11.6765,11.6592,11.8648,12.471,12.1371,12.0722,12.5362,12.2115,12.205,12.69,12.714,12.9445,13.4488,13.0547,12.8762,12.9503,12.548,12.3523,12.3636,12.4451,12.4793,12.4793,12.4907,12.462,12.4034,12.4565,12.4451,12.3806,12.3654,12.3636,12.354,12.2781,12.2913,12.3636,12.3636,12.4034,12.5344,13.0459,13.6093,14.1125,14.1953,14.2855,14.443,14.9692,15.1251,15.211,15.629,15.1468,14.5002,14.5002,14.5002,14.5002,14.5002,14.5002,14.4809,14.402,14.3827,14.2353,13.7291,13.6209,13.4744,13.0563,12.9083,12.8514,12.8514,12.7944,12.7489,12.7489,12.7489,12.7489,12.7359,12.7435,12.7435,12.7147,12.6518,12.5948,12.5476,12.4679,12.4224,12.4224,12.4224,12.4279,12.4451,12.4451,12.4565,12.4793,12.4793,12.5189,12.5948,12.5948,12.7306,8.0107,8.1702,8.303,8.3184,8.2917,8.2764,8.341,8.3183,8.3257,8.4853,8.7739,9.0358,9.153,9.5476,9.9052,10.0448,10.4178,10.8215,11.2014,11.3251,11.4185,11.5264,11.5909,11.6639,11.779,11.8443,11.9149,11.9936,11.9949,12.0311,12.12,12.1256,12.1998,12.3642,12.2959,12.2674,12.2751,12.2063,12.1984,12.2685,12.3578,12.3996,12.3996,12.4679,12.4907,12.4793,12.4224,12.3978,12.3768,12.3009,12.2685,12.2627,12.2553,12.2513,12.2685,12.2685,12.2781,12.3067,12.472,12.9184,13.4212,13.5008,13.8166,14.2177,14.446,14.5175,14.5364,14.6072,14.5689,14.5002,14.5002,14.5002,14.5002,14.5002,14.5002,14.3827,13.9485,13.8589,13.7131,13.2121,13.0569,12.9745,12.9015,12.8187,12.7716,12.7716,12.7602,12.7489,12.7489,12.7489,12.7201,12.6463,12.7033,12.6919,12.5476,12.5835,12.4962,12.2193,12.1186,12.0674,12.0674,12.0674,12.1072,12.1851,12.1851,12.2553,12.3996,12.3996,12.4434,12.5151,12.5151,12.5422,8.0335,8.155,8.2422,8.2385,8.2423,8.2536,8.2916,8.3107,8.3373,8.4132,8.6638,8.9139,9.0885,9.3807,9.6843,9.9499,10.2355,10.5506,10.9265,11.206,11.4185,11.5513,11.566,11.5947,11.6765,11.7162,11.7787,11.8699,11.9098,11.9516,11.9915,11.9971,12.0104,12.0541,12.0541,12.0541,12.0541,12.1054,12.1509,12.1812,12.2667,12.3123,12.3123,12.3996,12.4337,12.4337,12.4451,12.4451,12.4375,12.3578,12.3236,12.314,12.2627,12.2457,12.2457,12.2457,12.2211,12.1984,12.2781,12.4536,12.6671,12.7961,12.9904,13.2635,13.7032,13.588,13.3118,13.3541,13.4525,13.5548,13.5548,13.627,13.6891,13.6891,13.653,13.5511,13.3186,13.239,13.1395,12.9151,12.8346,12.8058,12.8058,12.7375,12.6745,12.6745,12.6404,12.616,12.616,12.616,12.5818,12.5021,12.5249,12.5021,12.3709,12.4393,12.4034,12.204,12.1528,12.13,12.13,12.13,12.1471,12.1965,12.1509,12.1414,12.1698,12.1698,12.2155,12.3009,12.3009,12.3464,8.2081,0.0,8.3523,8.3145,8.3143,8.3257,0.0,8.3562,8.4058,8.4058,8.603,8.8456,9.0771,9.2706,9.518,9.8778,10.0751,10.3028,10.6405,11.0124,11.3388,11.5719,11.5432,11.5546,11.6765,11.6479,11.6765,11.8073,11.8529,11.904,11.963,11.9857,11.9971,11.9971,11.9971,11.9971,11.9971,12.0655,12.0997,12.0996,12.1794,12.2211,12.2211,12.3123,12.3523,12.354,12.411,12.4393,12.4337,12.3709,12.3636,12.375,12.2799,12.2609,12.2781,12.2513,12.2097,12.1642,12.2267,12.1984,12.1509,12.2781,12.3236,12.4222,12.9734,12.769,12.3654,12.4451,12.5818,12.7017,12.7147,12.8172,12.9159,12.9372,12.8931,12.84,12.84,12.7944,12.7489,12.7489,12.7375,12.7245,12.7245,12.6463,12.5894,12.5894,12.5379,12.5021,12.5021,12.5021,12.4734,12.4148,12.411,12.3709,12.2895,12.3236,12.3236,12.2495,12.2457,12.2457,12.2457,12.2457,12.2457,12.2457,12.187,12.1224,12.0541,12.0332,12.0598,12.1281,12.1054,12.1642,0.0,8.709,8.728,8.8122,8.7172,8.5802,8.4967,8.4815,0.0,8.4853,8.6944,8.9261,9.0885,9.3244,9.5612,9.7466,9.909,10.1282,10.466,10.7392,11.0542,11.4694,11.509,11.509,11.5204,11.5833,11.6289,11.6403,11.7845,11.8813,11.8832,11.9516,11.9971,11.9971,11.9971,11.9971,11.9971,11.9991,12.0029,12.0085,12.094,12.1395,12.1395,12.2211,12.2571,12.2571,12.2609,12.2627,12.2627,12.2571,12.3026,12.375,12.2799,12.3009,12.3636,12.2741,12.2399,12.2381,12.2457,12.1984,12.1281,12.1395,12.1509,12.189,12.3912,12.3603,12.2781,12.3654,12.4548,12.5362,12.6062,12.6344,12.6631,12.7489,12.7663,12.7602,12.7602,12.7549,12.7489,12.7489,12.6805,12.629,12.629,12.5607,12.5076,12.5076,12.5021,12.5021,12.5021,12.5021,12.4962,12.4907,12.4907,12.4565,12.3768,12.3009,12.2513,12.2457,12.2457,12.2457,12.2457,12.2457,12.2457,12.2457,12.2439,12.2343,12.2267,12.1528,12.1263,12.1281,12.0427,12.0085,8.6334,8.789,8.9029,8.8882,8.835,8.7666,8.671,8.6182,8.565,8.5081,8.6562,8.8456,9.0168,9.2105,9.4541,9.7761,9.8825,10.0523,10.4432,10.7126,10.9669,11.234,11.4103,11.509,11.509,11.5378,11.5719,11.6196,11.682,11.7673,11.8719,11.906,11.9212,11.9212,11.9212,11.9458,11.9971,11.9971,11.9971,11.9971,12.0313,12.0427,12.0484,12.1338,12.1756,12.1756,12.2267,12.2457,0.0,12.2457,12.2627,12.2913,12.2609,12.2685,12.3009,12.3236,12.2913,12.2513,12.3123,12.2781,12.1984,12.1984,12.168,12.1395,12.2079,12.1984,12.168,12.1509,12.2381,12.3482,12.3823,12.4979,12.623,12.6577,12.6631,12.6631,12.6631,12.629,12.5932,12.5932,12.5704,12.5476,12.5476,12.5189,12.5021,12.5021,12.5021,12.5021,12.5021,12.5021,12.4793,12.4279,12.4261,12.392,12.3026,12.2627,12.2457,12.2457,12.2457,12.2457,12.2457,12.2457,12.2457,12.2457,12.2457,12.2457,12.2457,12.2154,12.1984,12.1984,12.1698,12.1528,8.8118,8.9903,9.1502,9.0933,9.0591,8.9979,8.8612,8.7431,8.6372,8.5195,8.6065,8.7739,8.9675,9.1573,9.4123,9.7761,9.8787,10.0485,10.4432,10.6899,10.9024,11.0921,11.3251,11.464,11.464,11.4922,11.5264,11.5833,11.6082,11.6706,11.7901,11.8187,11.8321,11.8321,11.8321,11.8605,11.9118,11.9118,11.9288,11.9573,11.9573,11.9687,11.9971,12.0598,12.0883,12.0883,12.1414,12.1698,12.1698,12.1698,12.1812,12.2097,12.2097,12.2267,12.2513,12.314,12.3009,12.2609,12.3523,12.3236,12.2495,12.2799,12.2325,12.1642,12.1642,12.1642,12.1528,12.0901,12.1584,12.2513,12.2799,12.4165,12.5493,12.5721,12.5775,12.5775,12.5775,12.5379,12.5021,12.5021,12.5021,12.5021,12.5021,12.5021,12.5021,12.5021,12.5021,12.5021,12.5021,12.5021,12.4679,12.3882,12.3806,12.3464,12.2513,12.2457,12.2457,12.2457,12.2457,12.2457,12.2457,12.2457,12.2457,12.2457,12.2457,12.2457,12.2457,12.2457,12.2343,12.2097,12.2097,12.2097,9.2072,9.3743,9.5042,9.5042,9.4389,9.3054,9.0548,8.8684,8.6976,8.5309,8.5688,8.7055,8.9561,9.2029,9.4534,9.7162,9.89,10.1093,10.447,10.6405,10.843,11.0898,11.2651,11.3729,11.3729,11.4526,11.509,11.509,11.5795,11.6251,11.6251,11.6993,11.7355,11.7355,11.7355,11.741,11.741,11.741,11.7866,11.8756,11.8756,11.9174,11.9915,11.9915,11.9915,11.9915,11.9971,11.9971,11.9971,11.9971,12.0484,12.1281,12.1281,12.1756,12.2457,12.2457,12.2457,12.2571,12.3523,12.3236,12.2609,12.354,12.3236,12.2457,12.2457,12.2457,12.2457,12.2457,12.2457,12.2627,12.3578,12.3806,12.3996,12.4793,12.5021,12.5021,12.5021,12.5021,12.5021,12.5021,12.5021,12.5021,12.5021,12.5021,12.5021,12.4962,12.4962,12.4962,12.4962,12.4962,12.4679,12.3882,12.3806,12.3464,12.2553,12.2457,12.2457,12.2457,12.2457,12.2457,12.2457,12.2457,12.2457,12.2457,12.2457,12.2457,12.2457,12.2457,12.2097,12.1281,12.1281,12.1281,9.1155,9.2826,9.4079,9.4079,9.3889,9.3054,9.0548,8.8684,8.6976,8.5309,8.5688,8.7055,8.9561,9.1573,9.3933,9.7086,9.8445,10.003,10.28,10.5646,10.7961,10.9251,11.1984,11.3729,11.3729,11.4526,11.509,11.509,11.5264,11.5627,11.6196,11.5947,11.6023,11.6592,11.6592,11.6879,11.741,11.741,11.7524,11.7845,11.7845,11.7959,11.8207,11.8832,11.9154,11.9118,11.9687,11.9971,11.9971,11.9971,12.0085,12.0313,12.0313,12.0446,12.0769,12.1414,12.1642,12.1756,12.2571,12.2685,12.2609,12.354,12.3236,12.2457,12.2457,12.2097,12.1756,12.2325,12.2097,12.1851,12.2667,12.335,12.3882,12.411,12.4565,12.5021,12.5021,12.5021,12.5021,12.5021,12.5021,12.5021,12.5021,12.5021,12.4793,12.4224,12.4206,12.3978,12.3254,12.3196,12.314,12.2895,12.2325,12.1642,12.0769,12.0674,12.0674,12.0674,12.0674,12.0674,12.0674,12.0674,12.0674,12.0674,12.13,12.1642,12.1642,12.2211,12.2343,12.2097,12.2097,12.2097,9.0809,9.2137,9.3282,9.3623,9.3699,9.3054,9.0548,8.8684,8.6976,8.5309,8.5385,8.6638,8.9485,9.1649,9.4079,9.7542,9.8976,10.0609,10.3066,10.581,10.7822,10.8568,11.1073,11.2705,11.2705,11.3821,11.4526,11.4526,11.4862,11.5264,11.5774,11.5318,11.5264,11.5774,11.574,11.6023,11.6479,11.6479,11.6651,11.6899,11.6899,11.7107,11.741,11.7979,11.8207,11.8207,11.8719,11.9118,11.9459,11.9459,11.963,11.9971,11.9971,11.9971,11.9991,12.0541,12.0769,12.0883,12.1698,12.1984,12.2097,12.3009,12.2667,12.204,12.2381,12.2154,12.187,12.2343,12.2154,12.187,12.2343,12.2895,12.3254,12.3254,12.3654,12.4051,12.4451,12.4506,12.4662,12.4907,12.4734,12.4506,12.4506,12.4224,12.3823,12.335,12.3254,12.3123,12.2513,12.2457,12.2343,12.204,12.1281,12.0541,11.9971,11.9971,11.9801,11.9516,11.9459,11.9288,11.8946,11.8946,11.8946,11.8946,11.9459,11.9952,12.0256,12.0769,12.1129,12.1471,12.1471,12.1642,9.0733,9.1687,9.256,9.3282,9.3547,9.294,9.0472,8.8608,8.6976,8.5309,8.5005,8.6068,8.9295,9.1991,9.4762,9.7989,10.0039,10.209,10.4508,10.6342,10.7746,10.8568,11.0086,11.1125,11.1201,11.2682,11.3615,11.3729,11.4466,11.4976,11.4976,11.5036,11.509,11.509,11.509,11.509,11.509,11.509,11.5432,11.6137,11.6137,11.6517,11.722,11.7241,11.7296,11.7296,11.7355,11.7866,11.8643,11.8643,11.906,11.9687,11.9801,11.9801,11.9857,11.9915,11.9971,12.0085,12.0883,12.1168,12.1281,12.2097,12.1698,12.1054,12.187,12.2154,12.2154,12.2286,12.2343,12.2381,12.2457,12.2457,12.2457,12.2457,12.2457,12.2685,12.3482,12.3692,12.3882,12.462,12.4165,12.3692,12.3692,12.3009,12.2457,12.2381,12.2343,12.2343,12.2267,12.223,12.1984,12.1224,12.037,11.9801,11.9801,11.9744,11.9402,11.8699,11.8643,11.8263,11.7448,11.741,11.741,11.741,11.741,11.7845,11.8643,11.8643,11.904,11.9687,11.9687,12.0199,8.9067,9.0358,9.1492,9.1682,9.2256,9.2105,8.9641,8.827,8.6976,8.5309,8.5499,8.6638,8.873,9.1611,9.4383,9.6425,9.928,10.1948,10.3809,10.5518,10.7101,10.8492,10.9645,11.0518,11.1163,11.215,11.3077,11.3675,11.3897,11.4011,11.4011,11.4694,11.509,11.509,11.509,11.509,11.509,11.509,11.515,11.5318,11.5318,11.5378,11.5605,11.6196,11.6479,11.6537,11.7162,11.7524,11.7731,11.7731,11.779,11.8073,11.8719,11.904,11.9098,11.9687,11.9971,11.9971,12.0199,12.0199,12.0332,12.1281,12.0085,11.8415,11.9288,11.9572,11.9857,12.1168,12.1528,12.168,12.2325,12.2457,12.2457,12.2457,12.2457,12.2553,12.2685,12.2781,12.2799,12.3009,12.2895,12.2781,12.2781,12.2609,12.2267,12.1642,12.1528,12.1281,12.056,12.0446,12.0427,12.0218,11.9516,11.904,11.904,11.8321,11.7866,11.7731,11.7731,11.7582,11.741,11.741,11.741,11.741,11.741,11.7524,11.7731,11.7731,11.7752,11.7979,11.7979,11.8435,8.8616,8.9713,9.0695,9.1074,9.1492,9.1535,9.0244,8.9295,8.8304,8.7055,8.7169,8.789,8.9185,9.1763,9.4421,9.6547,9.8976,10.1216,10.2935,10.4595,10.6,10.6823,10.805,10.9113,10.9897,11.0784,11.1657,11.2454,11.291,11.3138,11.3138,11.3957,11.4634,11.5036,11.509,11.509,11.509,11.509,11.509,11.509,11.509,11.509,11.509,11.5491,11.5681,11.5719,11.6082,11.6479,11.6879,11.6879,11.7107,11.7448,11.7959,11.8093,11.8187,11.8549,11.8719,11.8719,11.8719,11.8719,11.8776,11.9288,11.8529,11.7524,11.7979,11.8093,11.8301,11.9174,11.9744,12.018,12.056,12.0958,12.1243,12.1243,12.1243,12.1243,12.1243,12.1584,12.1984,12.2381,12.2154,12.187,12.187,12.1528,12.1129,12.0712,12.0655,12.0484,11.9971,11.963,11.9345,11.9345,11.8605,11.8093,11.8093,11.7676,11.7276,11.6879,11.6879,11.6706,11.631,11.6289,11.6289,11.6289,11.6289,11.6479,11.6879,11.6879,11.7013,11.741,11.741,11.7638,8.816,8.9109,8.9979,9.0581,9.0847,9.0923,9.0809,9.024,8.9599,8.8957,8.8844,8.9109,9.0054,9.2143,9.4496,9.6926,9.8938,10.0637,10.2052,10.3722,10.4736,10.4736,10.6102,10.7354,10.8189,10.9075,10.9948,11.0936,11.1505,11.1938,11.2089,11.2818,11.3707,11.458,11.4786,11.4922,11.509,11.509,11.509,11.509,11.509,11.509,11.509,11.509,11.509,11.509,11.509,11.5432,11.6061,11.6061,11.6424,11.7048,11.7127,11.722,11.722,11.7355,11.741,11.741,11.741,11.741,11.7355,11.7107,11.6993,11.7048,11.7127,11.722,11.722,11.7355,11.7959,11.8529,11.8529,11.9004,11.9573,11.9687,11.9744,11.9744,11.9915,12.0541,12.1281,12.1926,12.1528,12.1054,12.1054,12.0427,11.9971,11.9971,11.9971,11.9971,11.9971,11.9154,11.8529,11.8529,11.7731,11.722,11.722,11.7107,11.6765,11.6116,11.6061,11.5774,11.509,11.509,11.4976,11.4808,11.4808,11.509,11.5605,11.574,11.6137,11.6765,11.6899,11.7107,8.641,8.7777,8.9033,8.9147,8.9637,8.9979,8.9299,8.9071,8.8957,8.8844,8.8844,8.9299,9.0733,9.2479,9.4307,9.6084,9.9052,10.1188,10.1368,10.2897,10.3961,10.3961,10.4747,10.5646,10.6532,10.7367,10.8468,11.0024,10.9569,10.9479,11.0342,11.1087,11.1923,11.2849,11.3555,11.4298,11.509,11.509,11.509,11.509,11.509,11.509,11.509,11.509,11.509,11.509,11.509,11.515,11.5204,11.5204,11.5264,11.5437,11.6137,11.6403,11.6479,11.7127,11.741,11.741,11.741,11.741,11.7182,11.5833,11.5378,11.5491,11.6196,11.6403,11.6537,11.722,11.7468,11.7618,11.7618,11.7638,11.7979,11.8719,11.8927,11.9154,11.9801,12.0029,12.0142,12.0218,12.0199,12.0085,12.0085,11.9991,11.9971,11.9971,11.9971,11.9971,11.9971,11.8549,11.7618,11.7618,11.6879,11.6403,11.6403,11.574,11.5378,11.5264,11.5204,11.5204,11.509,11.509,11.4694,11.3903,11.3897,11.3615,11.3024,11.3729,11.4125,11.4206,11.5036,11.5774,8.5195,8.6448,8.7511,8.7966,8.8726,8.9413,8.9489,8.9827,9.013,9.013,9.051,9.0928,9.115,9.2554,9.4117,9.5332,9.7192,9.8635,9.9137,10.0571,10.1634,10.1634,10.2773,10.4053,10.5469,10.5874,10.6747,10.8468,10.7822,10.7936,10.9176,11.0062,11.0898,11.1733,11.2621,11.3251,11.3647,11.4071,11.458,11.509,11.509,11.509,11.509,11.509,11.509,11.509,11.509,11.509,11.509,11.509,11.509,11.509,11.5437,11.5605,11.5605,11.6002,11.6082,11.6082,11.6082,11.6082,11.5968,11.5264,11.509,11.515,11.5491,11.5605,11.5627,11.6023,11.6424,11.6765,11.6765,11.7107,11.7524,11.7903,11.7979,11.8093,11.8435,11.8946,11.9288,11.9288,11.963,11.9801,11.9345,11.9288,11.9098,11.8605,11.8549,11.8549,11.8549,11.7504,11.6765,11.6765,11.6061,11.5605,11.5605,11.5264,11.4862,11.4352,11.4298,11.4125,11.3647,11.3647,11.3479,11.3077,11.3077,11.291,11.2545,11.291,11.3077,11.3077,11.3897,11.4526,8.3676,8.4815,8.584,8.6635,8.7511,8.8388,8.9181,8.9784,9.0353,9.0771,9.1231,9.1654,9.1758,9.2712,9.3813,9.5149,9.6015,9.6812,9.7504,9.8749,9.9613,9.9613,10.0903,10.2345,10.3863,10.4443,10.5127,10.6152,10.6076,10.6494,10.7658,10.8772,10.9645,11.0252,11.133,11.19,11.19,11.291,11.3729,11.4444,11.4444,11.4444,11.4444,11.4444,11.4444,11.4444,11.4444,11.4444,11.4444,11.4444,11.4444,11.4444,11.4444,11.4444,11.4444,11.4672,11.4694,11.4694,11.4466,11.4444,11.4444,11.4444,11.4444,11.4444,11.4444,11.458,11.4694,11.4694,11.5285,11.5947,11.5947,11.6365,11.6879,11.7069,11.7107,11.7182,11.7355,11.7959,11.8415,11.8415,11.889,11.9118,11.8529,11.8415,11.8187,11.7524,11.741,11.7241,11.6879,11.631,11.5947,11.5947,11.5432,11.509,11.509,11.4862,11.4412,11.3729,11.3502,11.3138,11.2598,11.2545,11.237,11.19,11.19,11.1672,11.1254,11.171,11.19,11.1938,11.2963,11.3388,8.1436,8.2652,8.4096,8.4891,8.5764,8.6638,8.7431,8.7621,8.8115,8.9751,8.9527,8.9945,9.3016,9.3016,9.3357,9.578,9.6926,9.7542,9.758,9.8293,9.8825,9.8825,9.9537,10.041,10.133,10.2897,10.3543,10.2773,10.4128,10.5077,10.5153,10.6709,10.7671,10.7708,10.9265,11.0152,11.0152,11.1786,11.2621,11.2712,11.2712,11.2712,11.2712,11.2712,11.2712,11.2712,11.2712,11.2712,11.2712,11.2712,11.2712,11.2712,11.2712,11.2712,11.2735,11.3502,11.3789,11.3669,11.2963,11.2712,11.2712,11.2712,11.2712,11.2712,11.2712,11.316,11.3789,11.3789,11.4412,11.515,11.515,11.515,11.5378,11.6137,11.631,11.6517,11.7276,11.7448,11.7468,11.7468,11.7524,11.7524,11.7468,11.7468,11.7504,11.741,11.741,11.6879,11.5378,11.515,11.515,11.515,11.509,11.509,11.509,11.4298,11.3783,11.3729,11.3024,11.2598,11.2545,11.2545,11.1786,11.019,11.0152,10.9341,10.7784,10.9341,11.0152,11.0228,11.1824,11.2621,8.0677,8.1361,8.1703,8.3031,8.4018,8.4779,8.5045,8.5954,8.6903,8.7511,8.865,8.9941,9.1117,9.1953,9.294,9.4383,9.4876,9.5256,9.587,9.6623,9.7108,9.7108,9.8322,9.9461,10.0296,10.0951,10.1178,10.0827,10.2383,10.3608,10.4189,10.5279,10.6102,10.6721,10.7822,10.8392,10.8392,10.9493,11.0062,11.0062,11.1163,11.2014,11.2545,11.2545,11.2545,11.2545,11.2545,11.2545,11.2545,11.2545,11.2545,11.2545,11.2545,11.2545,11.2598,11.2849,11.2963,11.2796,11.1406,11.1239,11.1657,11.1657,11.2089,11.2545,11.2545,11.2735,11.2963,11.2963,11.3191,11.3419,11.3419,11.3419,11.3647,11.4412,11.4602,11.4868,11.5719,11.631,11.6651,11.6651,11.7069,11.741,11.741,11.6993,11.6479,11.5968,11.5909,11.5719,11.515,11.509,11.509,11.509,11.458,11.4185,11.4185,11.3441,11.2735,11.2097,11.1353,11.0684,11.01,10.9569,10.8999,10.843,10.8392,10.8088,10.7519,10.8088,10.8392,10.843,10.9531,11.0062,7.8362,7.9386,8.0259,8.098,8.2082,8.2994,8.3259,8.4208,8.5157,8.5726,8.7169,8.8574,8.9447,9.0738,9.1915,9.275,9.3357,9.3889,9.4503,9.5294,9.5939,9.6197,9.7184,9.8209,9.9043,9.9166,9.9166,9.9166,10.0637,10.1862,10.248,10.3532,10.4405,10.4975,10.581,10.638,10.6633,10.743,10.7999,10.8265,10.9365,11.0252,11.0874,11.0874,11.0874,11.0874,11.0874,11.0874,11.0874,11.0874,11.0874,11.0874,11.0874,11.0874,11.0874,11.1178,11.1102,11.0684,10.9531,10.9531,10.9948,10.9948,11.0328,11.0874,11.0874,11.1064,11.1254,11.1254,11.1672,11.2089,11.2089,11.2317,11.2712,11.316,11.3327,11.3479,11.4103,11.4808,11.5399,11.5399,11.6082,11.6651,11.6651,11.6196,11.5681,11.515,11.509,11.4976,11.464,11.4352,11.4217,11.4217,11.3669,11.3327,11.3327,11.2568,11.1695,11.086,11.0024,10.9189,10.8303,10.7519,10.6949,10.6683,10.638,10.6076,10.581,10.6076,10.6228,10.6266,10.7405,10.7847,7.4643,7.6766,7.969,7.8855,7.9918,8.136,8.2119,8.2309,8.284,8.4511,8.4891,8.5688,8.8236,8.9333,9.0168,9.0961,9.2479,9.3623,9.3623,9.4427,9.5301,9.6046,9.6197,9.6539,9.739,9.7504,9.7542,9.7542,9.893,9.984,9.984,10.1396,10.2355,10.2393,10.3239,10.4113,10.4887,10.5772,10.657,10.7367,10.7405,10.7405,10.7405,10.7405,10.7443,10.7443,10.7443,10.7443,10.7481,10.7481,10.7481,10.7519,10.7519,10.7519,10.7595,10.8227,10.7999,10.7367,10.7367,10.7367,10.7405,10.7405,10.7405,10.7443,10.7481,10.7961,10.8606,10.8644,10.9821,11.1087,11.1087,11.1695,11.2393,11.2431,11.2484,11.2484,11.2507,11.3138,11.3675,11.3675,11.4352,11.4976,11.4976,11.5036,11.5036,11.5036,11.5014,11.4694,11.3789,11.3024,11.2545,11.2545,11.2507,11.2507,11.2484,11.1619,11.0784,11.0038,10.9062,10.8227,10.7481,10.6607,10.5772,10.4925,10.4151,10.3315,10.2469,10.3353,10.3733,10.382,10.5442,10.624,7.5286,7.5476,7.5668,7.6616,7.7754,7.8627,7.8855,7.9842,8.1019,8.2044,8.326,8.4513,8.5764,8.6713,8.7814,8.9219,9.0358,9.1231,9.1795,9.313,9.4155,9.4383,9.5476,9.5818,9.4876,9.5901,9.6577,9.6577,9.761,9.8217,9.8217,9.9204,10.0039,10.0599,10.1482,10.2317,10.3104,10.3418,10.3646,10.3874,10.4531,10.4835,10.4835,10.5431,10.5646,10.5646,10.5646,10.6076,10.6696,10.6696,10.6987,10.7519,10.7519,10.7519,10.7253,10.4963,10.4015,10.3836,10.3836,10.4254,10.4835,10.4835,10.5203,10.576,10.6456,10.6797,10.7101,10.7671,10.8164,10.8544,10.8544,10.8696,10.9037,10.9607,11.0214,11.0874,11.1429,11.2226,11.2849,11.2849,11.3077,11.3244,11.3244,11.3707,11.4071,11.4071,11.3647,11.3138,11.291,11.2712,11.2545,11.2545,11.1976,11.1315,11.076,10.991,10.9024,10.824,10.6785,10.5912,10.5684,10.4292,10.3418,10.3142,10.2925,10.2697,10.2469,10.2697,10.2811,10.2811,10.3304,10.3532,7.2628,7.2632,7.2366,7.3353,7.4261,7.5321,7.6691,7.7524,7.8512,8.0373,8.1551,8.2576,8.3675,8.4625,8.5691,8.6979,8.8194,8.9329,9.0505,9.1795,9.2788,9.3168,9.3731,9.3883,9.3244,9.4421,9.5173,9.5173,9.6319,9.7002,9.7002,9.7799,9.8483,9.8938,9.9432,10.0125,10.0913,10.1206,10.1596,10.1976,10.2859,10.3239,10.3277,10.3722,10.3901,10.3901,10.3901,10.4216,10.4671,10.4671,10.4975,10.5393,10.5393,10.5393,10.5127,10.2811,10.1938,10.1938,10.1938,10.2328,10.2784,10.3125,10.3532,10.4015,10.4557,10.4671,10.4785,10.5279,10.5658,10.6,10.638,10.6721,10.7215,10.7961,10.8582,10.9075,10.9569,11.0594,11.1482,11.1482,11.2051,11.2545,11.2545,11.291,11.31,11.2705,11.2568,11.2393,11.2051,11.2014,11.1748,11.0974,11.048,10.9783,10.9037,10.8202,10.7316,10.6481,10.5203,10.433,10.3901,10.2659,10.1786,10.1396,10.1055,10.0761,10.0381,10.0381,10.0381,10.0419,10.1102,10.1064,6.7541,6.849,6.9292,6.9292,7.0009,7.1523,0.0,7.4714,7.5245,7.855,7.931,7.9917,8.1701,8.2765,8.364,8.4511,8.6065,8.7697,8.9219,9.0278,9.1112,9.1725,9.1307,9.1269,9.2186,9.294,9.3471,9.3547,9.5021,9.5932,9.5932,9.6774,9.7352,9.7428,9.7428,9.7799,9.8597,9.9309,10.003,10.0884,10.1558,10.19,10.19,10.19,10.19,10.19,10.19,10.19,10.19,10.2014,10.2041,10.2203,10.2279,10.2165,10.1824,10.115,10.0884,10.0884,10.0884,10.0884,10.0998,10.1672,10.19,10.1938,10.2128,10.2079,10.209,10.2393,10.2973,10.3695,10.447,10.5279,10.6088,10.6759,10.7025,10.7101,10.7215,10.8468,10.9607,10.9734,11.095,11.2014,11.2089,11.2203,11.1938,11.0936,11.1429,11.171,11.0898,11.0784,11.0162,10.872,10.853,10.8227,10.7443,10.6582,10.5658,10.4736,10.3836,10.3011,10.2203,10.133,10.0457,9.9689,9.893,9.8255,9.758,9.758,9.758,9.7618,9.9014,9.8816,0.0,0.0,0.0,0.0,0.0,0.0,0.0,6.9168,7.0801,7.346,7.4489,7.5857,7.8893,8.0183,8.1285,8.2688,8.432,8.5575,8.5878,8.7852,8.8882,8.7625,8.8536,8.9641,9.0396,9.1231,9.1947,9.2718,9.3623,9.4148,9.4148,9.5073,9.5833,9.6463,9.6463,9.6926,9.7808,9.7951,9.815,9.8301,9.8453,9.8529,9.8529,9.8529,9.8529,9.8529,9.8529,9.8529,9.8605,9.9204,9.9802,10.0485,10.1216,10.0315,9.8529,9.8377,9.8301,9.8301,9.8301,9.8301,9.8339,9.8491,9.8529,9.8749,10.003,9.9954,9.9888,10.19,10.209,10.1948,10.2735,10.3077,10.3229,10.3418,10.395,10.4721,10.5305,10.6304,10.7215,10.786,10.824,10.8696,10.9289,11.0024,10.9948,10.8468,10.8354,10.843,10.824,10.824,10.8088,10.7733,10.7746,10.7405,10.6607,10.5176,10.3923,10.3001,10.1472,10.0599,10.041,9.9052,9.8225,9.8027,9.7922,9.7732,9.758,9.758,9.758,9.758,9.7922,9.7496,0.0,0.0,0.0,0.0,0.0,0.0,0.0,0.0,0.0,0.0,0.0,7.2746,7.5668,0.0,7.8817,8.0905,8.2309,8.341,8.4246,8.5802,8.641,8.5197,8.6106,8.7207,8.808,8.9295,9.0358,9.1193,9.1991,9.2592,9.3092,9.3889,9.4534,9.4945,9.5408,9.587,9.6288,9.6698,9.6888,9.6888,9.739,9.758,9.758,9.758,9.758,9.758,9.758,9.758,9.7618,9.8036,9.8407,9.8749,9.8749,9.7989,9.6888,9.6888,9.6888,9.6888,9.6888,9.6888,9.6964,9.7428,9.758,9.7732,9.8521,9.8483,9.8407,9.966,9.9745,9.9631,10.0381,10.0609,10.0837,10.1672,10.2214,10.2746,10.3521,10.4405,10.5176,10.5594,10.6304,10.7025,10.7443,10.7519,10.7367,10.6949,10.7253,10.7519,10.7519,10.7139,10.6721,10.6254,10.5886,10.5279,10.4443,10.357,10.2545,10.1244,9.9613,9.8749,9.8749,9.7951,9.739,9.6926,9.6888,9.6698,9.6288,9.6288,9.6288,9.6288,9.5453,9.4845,0.0,0.0,0.0,0.0,0.0,0.0,0.0,0.0,0.0,0.0,0.0,0.0,0.0,0.0,0.0,7.8702,8.0032,8.132,8.2841,8.3482,8.363,8.31,8.3901,8.4815,8.5726,8.7058,8.8274,8.9219,9.0012,9.089,9.1768,9.2712,9.3206,9.3206,9.4085,9.4662,9.4769,9.5408,9.5818,9.6008,9.6744,0.0,9.7086,9.7086,9.7086,9.7086,9.7086,9.7086,9.7086,9.7086,9.7086,9.6972,9.5939,9.5476,9.5476,9.5476,9.5476,9.5514,9.5666,9.5742,9.5894,9.682,9.7086,9.7124,9.7276,9.7238,0.0,9.7504,9.7466,9.7496,9.8331,9.8521,9.8862,10.0239,10.058,10.0799,10.1748,10.2507,10.3163,10.3467,10.4645,10.567,10.5822,10.4975,10.4519,10.5252,10.6,10.6494,10.6304,10.5848,10.5279,10.4546,10.376,10.2935,10.2052,10.1672,10.0951,9.9537,9.8103,9.7078,9.663,9.644,9.5939,9.5021,9.5021,9.4876,9.4586,9.4586,9.4586,9.4465,9.1395,9.0276,0.0,0.0,0.0,0.0,0.0,0.0,0.0,0.0,0.0,0.0,0.0,0.0,0.0,0.0,0.0,0.0,7.7504,7.9349,8.0373,7.9992,7.9835,8.0434,8.1806,8.303,8.3982,8.4248,8.5007,8.66,8.7431,8.8308,8.9185,9.0662,0.0,0.0,0.0,9.3174,9.3851,9.3927,9.4383,9.5187,9.5308,9.5346,9.5346,9.5346,9.5346,9.5346,9.5346,9.5346,9.5346,9.5346,9.5346,9.5194,9.3591,9.2946,9.2946,9.2946,9.2946,9.306,9.3737,0.0,0.0,9.5035,9.5346,9.5453,9.6167,9.5863,9.565,9.7162,9.7002,9.6623,9.7504,9.7732,9.777,9.796,9.7998,9.8369,9.9878,10.0296,10.0789,10.2317,10.2773,10.3115,10.3923,10.2746,10.171,10.1834,10.2507,10.2773,10.21,10.2507,10.2849,10.2724,10.2014,0.0,10.0296,9.8938,9.8074,9.7884,9.6926,9.5363,9.3212,9.2332,9.1492,9.0738,9.07,9.1383,9.2832,9.2832,9.2832,9.2598,8.4431,8.218,0.0,0.0,0.0,0.0,0.0,0.0,0.0,0.0,0.0,0.0,0.0,0.0,0.0,0.0,0.0,0.0,7.4011,7.5128,7.4523,7.4984,7.6205,7.837,7.9649,8.0899,8.2157,8.2297,8.3011,8.4701,8.4714,8.5429,8.7283,8.846,8.9253,8.9789,9.0624,9.1459,9.2213,9.2213,9.2674,9.3553,9.3553,9.3553,9.3553,9.3553,9.3553,9.3553,9.3553,9.3553,9.3553,9.3553,9.3553,9.3402,0.0,0.0,0.0,0.0,9.1345,9.1877,9.2712,9.3016,9.3054,9.344,9.3553,9.3629,9.3965,9.3857,9.3819,9.499,9.5066,9.499,9.587,9.6098,9.6212,9.6698,9.6812,9.7116,9.8293,9.8559,9.8749,9.947,10.0001,0.0,10.0201,10.0011,9.9812,9.9812,10.0495,10.0827,10.0485,10.0381,10.0305,10.0305,9.9631,9.8985,9.8597,9.7951,0.0,0.0,0.0,9.5559,9.4047,9.313,0.0,0.0,0.0,8.7762,8.7698,8.5611,0.0,0.0,7.9103,7.7908,0.0,0.0,0.0,0.0,0.0,0.0,0.0,0.0,0.0,0.0,0.0,0.0,0.0,0.0,0.0,0.0,7.0054,7.0949,6.9315,7.0498,7.2534,7.5317,7.6764,7.7959,7.8861,7.9568,8.0498,8.1947,8.1975,8.2803,8.4832,8.5908,8.6751,8.7438,8.8422,8.9329,9.0164,9.0391,9.0966,9.1801,9.1801,9.1801,9.1801,9.1801,9.1801,9.1801,9.1801,9.1801,9.1801,9.1801,9.1801,9.1611,8.9447,8.8764,8.8991,8.8991,8.9443,9.0278,9.1193,9.1502,9.154,9.1768,9.1801,9.1801,9.1801,9.1801,9.2034,9.2788,9.2972,9.3206,9.4123,9.4351,9.4503,9.5104,9.5363,9.5742,9.6706,9.7086,9.7314,9.7542,9.7458,9.7268,9.6934,9.7534,9.8019,9.8019,9.874,9.9157,9.893,9.8635,9.8445,9.8445,9.7686,9.7192,9.7192,9.682,9.6319,9.5939,9.5438,9.5066,9.4693,9.3168,9.1953,9.1117,8.7701,8.4989,0.0,0.0,0.0,0.0,0.0,0.0,0.0,0.0,0.0,0.0,0.0,0.0,0.0,0.0,0.0,0.0,0.0,0.0,0.0,0.0,0.0,0.0,0.0,0.0,6.6081,6.72,6.8834,7.0574,7.2821,7.3916,7.3249,7.5208,7.6904,7.7713,7.9257,8.0542,8.1363,8.2977,8.3906,8.3944,8.5537,8.6827,8.7583,8.846,8.9299,9.0092,9.0092,9.0092,9.0092,9.0092,9.0092,9.0092,9.0092,9.0092,9.0092,9.0092,9.0092,8.9751,8.641,8.565,8.641,8.641,8.69,8.7735,8.8654,8.8957,8.9071,8.9827,9.0092,9.0092,9.0092,9.0092,9.0244,9.1037,9.1264,9.1454,9.2376,9.2604,9.2604,9.2642,9.3206,9.4003,9.4966,9.5711,9.6501,9.7428,9.5559,9.4117,9.4959,9.5787,9.6311,9.6311,9.7078,0.0,9.6463,9.7078,9.7618,9.7618,9.6812,9.6273,9.6273,9.4755,9.4155,9.5042,9.3553,9.294,9.3737,9.0705,8.8536,8.7659,8.5916,8.3473,8.0398,0.0,0.0,0.0,0.0,0.0,0.0,0.0,0.0,0.0,0.0,0.0,0.0,0.0,0.0,0.0,0.0,0.0,0.0,0.0,0.0,0.0,0.0,0.0,0.0,6.3323,6.5729,6.7857,6.8784,6.9635,7.0516,7.1758,7.3043,7.4397,7.5978,7.745,7.8758,8.0428,8.1568,8.2093,8.3171,8.417,8.5005,8.5349,8.5881,8.6676,8.6676,8.6676,8.6676,8.6676,8.6676,8.6676,8.7283,8.7207,8.6713,8.7283,8.6562,8.4851,8.3713,8.3447,8.3633,8.3156,8.3843,8.4882,8.4057,8.4872,8.6214,8.5985,8.5855,8.5855,8.5855,8.5897,8.6247,8.8201,8.8717,8.9024,9.0496,9.0852,9.1004,9.1497,9.1833,9.2294,9.3174,9.3591,9.3851,9.4199,9.2598,9.1004,9.0168,9.256,9.3958,9.237,9.4275,9.5795,9.5491,9.5719,9.587,9.587,9.5643,9.5453,9.5453,9.4383,9.3851,9.4117,9.3136,9.2642,9.2946,9.0776,8.9447,8.9139,8.6979,8.2641,7.6159,0.0,0.0,0.0,0.0,0.0,0.0,0.0,0.0,0.0,0.0,0.0,0.0,0.0,0.0,0.0,0.0,0.0,0.0,0.0,0.0,0.0,0.0,0.0,0.0,0.0,0.0,6.4528,6.5062,0.0,6.6729,6.7786,6.8808,6.9835,7.1881,7.3663,7.4983,7.691,7.8439,7.9479,8.0589,8.1579,8.2449,8.3027,8.3562,8.4016,8.4016,8.4016,8.4016,8.4016,8.4016,8.4054,8.4701,8.4587,8.4054,8.4041,8.2561,8.0257,8.0257,7.9954,7.9499,7.987,8.0697,8.1603,8.1336,8.2291,8.3537,8.3019,8.2113,8.1293,8.1554,8.0855,8.0536,8.3244,8.4206,8.4891,8.6855,8.7753,8.834,8.8869,8.9648,9.051,9.1085,9.1199,9.1047,9.0439,8.9903,8.8953,8.6941,8.9291,9.0923,8.9371,9.1502,9.3553,9.4465,9.489,9.4966,9.4617,9.4579,9.4427,9.4161,9.3629,9.3282,9.3282,9.2219,9.1654,9.1654,8.9713,8.8118,8.6903,8.4501,8.0067,0.0,0.0,0.0,0.0,0.0,0.0,0.0,0.0,0.0,0.0,0.0,0.0,0.0,0.0,0.0,0.0,0.0,0.0,0.0,0.0,0.0,0.0,0.0,0.0,0.0,0.0,0.0,6.0668,6.1456,0.0,0.0,0.0,0.0,6.4204,6.7128,6.9274,7.0142,7.2456,7.4434,7.5981,7.7732,7.9007,7.9792,8.1352,8.2117,8.2078,8.2194,8.2194,8.2116,8.2193,8.2231,8.2192,8.223,8.223,8.2116,8.0362,7.8296,7.6163,7.6051,7.509,7.4063,7.6391,7.7248,7.761,7.9967,8.0758,8.076,8.076,7.8745,7.6386,7.7023,7.5128,0.0,0.0,7.79,7.9077,8.1592,8.3415,8.4536,8.4723,8.6656,8.8452,8.8532,8.865,8.8077,8.6214,8.7128,8.7359,8.4699,0.0,8.6935,8.69,8.8532,9.07,9.313,9.4313,9.4579,9.3737,9.3623,9.332,9.2604,9.2452,9.2414,9.2414,9.0814,8.9865,8.9827,8.7397,8.4511,8.1208,7.871,0.0,0.0,0.0,0.0,0.0,0.0,0.0,0.0,0.0,0.0,0.0,0.0,0.0,0.0,0.0,0.0,0.0,0.0,0.0,0.0,0.0,0.0,0.0,0.0,0.0,0.0,5.464,5.6709,5.8236,5.81,5.7636,0.0,0.0,0.0,0.0,0.0,0.0,6.5211,6.7972,7.0022,7.1006,7.3255,7.4799,7.5614,7.7136,7.766,7.7098,7.8861,7.9049,7.799,7.9119,7.9341,7.8841,7.9435,7.9671,7.9347,7.5499,7.3823,7.3576,7.122,7.0057,6.9815,7.0326,7.0575,7.0997,7.3262,7.4067,7.4132,7.406,7.3145,7.1797,7.0148,0.0,0.0,0.0,0.0,7.3409,7.646,7.7982,7.9318,8.1647,8.2733,8.354,8.4825,8.5548,8.4596,7.9969,7.942,7.8484,7.4615,7.698,0.0,7.9121,8.3752,8.7928,8.9831,9.1882,9.3098,9.287,9.2788,9.2756,9.2566,9.1388,9.0624,9.0624,8.9025,8.7849,8.7283,8.4208,8.155,7.9425,0.0,0.0,0.0,0.0,0.0,0.0,0.0,0.0,0.0,0.0,0.0,0.0,0.0,0.0,0.0,0.0,0.0,0.0,0.0,0.0,0.0,0.0,0.0,0.0,0.0,0.0,0.0,5.143,5.3606,5.4818,5.4604,5.4283,0.0,0.0,0.0,0.0,0.0,0.0,0.0,0.0,0.0,6.6623,6.8309,6.9743,7.0881,7.2838,7.361,7.3215,7.5234,7.5906,7.5392,7.6281,7.6651,7.657,7.7012,7.6203,7.4322,7.135,6.9578,6.8508,0.0,0.0,0.0,0.0,6.5336,6.5398,6.7673,6.8527,6.8531,6.8094,0.0,0.0,0.0,0.0,0.0,0.0,0.0,6.9068,7.1954,7.4578,7.6962,7.8718,7.9982,8.1004,8.1963,7.9767,7.6797,7.3988,7.3754,7.2885,6.9322,7.1063,0.0,0.0,0.0,8.3808,8.7279,9.0183,9.1915,9.1915,9.1611,9.1312,9.0933,8.9675,8.8764,8.8422,8.7131,8.5537,8.3678,8.0448,7.7235,0.0,0.0,0.0,0.0,0.0,0.0,0.0,0.0,0.0,0.0,0.0,0.0,0.0,0.0,0.0,0.0,0.0,0.0,0.0,0.0,0.0,0.0,0.0,0.0,0.0,0.0,0.0,0.0,0.0,5.0279,5.1287,0.0,0.0,0.0,0.0,0.0,0.0,0.0,0.0,0.0,0.0,0.0,0.0,0.0,6.4206,6.5796,6.8131,6.9351,6.947,7.115,7.226,7.2819,7.3037,7.3516,7.4214,7.3517,0.0,6.8473,6.7067,0.0,0.0,0.0,0.0,0.0,0.0,0.0,0.0,0.0,0.0,0.0,0.0,0.0,0.0,0.0,0.0,0.0,0.0,0.0,0.0,0.0,0.0,7.4851,7.496,7.6874,7.8511,7.7997,7.2642,6.7944,6.8109,6.8934,6.8777,0.0,0.0,0.0,0.0,0.0,0.0,8.4587,8.8322,9.0566,9.0652,9.005,8.9333,8.8578,8.7663,8.6786,8.603,8.4621,8.2535,7.969,7.6561,0.0,0.0,0.0,0.0,0.0,0.0,0.0,0.0,0.0,0.0,0.0,0.0,0.0,0.0,0.0,0.0,0.0,0.0,0.0,0.0,0.0,0.0,0.0,0.0,0.0,0.0,0.0,0.0,0.0,0.0,0.0,0.0,0.0,0.0,0.0,0.0,0.0,0.0,0.0,0.0,0.0,0.0,0.0,0.0,0.0,0.0,0.0,0.0,0.0,0.0,6.5899,6.6679,6.6246,6.7533,6.8553,6.9044,6.4521,6.3623,6.4992,6.0343,0.0,0.0,0.0,0.0,0.0,0.0,0.0,0.0,0.0,0.0,0.0,0.0,0.0,0.0,0.0,0.0,0.0,0.0,0.0,0.0,0.0,0.0,6.6794,6.7402,6.9368,7.0191,6.6995,0.0,0.0,0.0,0.0,0.0,0.0,0.0,0.0,0.0,0.0,0.0,7.9642,8.4181,8.7284,8.8031,8.8001,8.7583,8.6827,8.5916,8.5043,8.4286,8.0332,7.7691,0.0,0.0,0.0,0.0,0.0,0.0,0.0,0.0,0.0,0.0,0.0,0.0,0.0,0.0,0.0,0.0,0.0,0.0,0.0,0.0,0.0,0.0,0.0,0.0,0.0,0.0,0.0,0.0,0.0,0.0,0.0,0.0,0.0,0.0,0.0,0.0,0.0,0.0,0.0,0.0,0.0,0.0,0.0,0.0,0.0,0.0,0.0,0.0,0.0,0.0,0.0,0.0,0.0,0.0,0.0,0.0,0.0,0.0,5.9139,5.7335,0.0,0.0,0.0,0.0,0.0,0.0,0.0,0.0,0.0,0.0,0.0,0.0,0.0,0.0,0.0,0.0,0.0,0.0,0.0,0.0,0.0,0.0,0.0,0.0,0.0,0.0,0.0,0.0,0.0,0.0,0.0,0.0,0.0,0.0,0.0,0.0,0.0,0.0,0.0,0.0,7.6423,8.1636,8.519,8.605,8.6162,8.584,8.5083,8.417,8.2575,8.0031,7.7391,0.0,0.0,0.0,0.0,0.0,0.0,0.0,0.0,0.0,0.0,0.0,0.0,0.0,0.0,0.0,0.0,0.0,0.0,0.0,0.0,0.0,0.0,0.0,0.0,0.0,0.0,0.0,0.0,0.0,0.0,0.0,0.0,0.0,0.0,0.0,0.0,0.0,0.0,0.0,0.0,0.0,0.0,0.0,0.0,0.0,0.0,0.0,0.0,0.0,0.0,0.0,0.0,0.0,0.0,0.0,0.0,0.0,0.0,0.0,5.4291,5.1965,0.0,0.0,0.0,0.0,0.0,0.0,0.0,0.0,0.0,0.0,0.0,0.0,0.0,0.0,0.0,0.0,0.0,0.0,0.0,0.0,0.0,0.0,0.0,0.0,0.0,0.0,0.0,0.0,0.0,0.0,0.0,0.0,0.0,0.0,0.0,0.0,0.0,0.0,0.0,0.0,7.3951,7.9452,8.3257,8.4053,8.4294,8.4094,8.3298,8.2575,8.0411,7.6197,7.4601,0.0,0.0,0.0,0.0,0.0,0.0,0.0,0.0,0.0,0.0,0.0,0.0,0.0,0.0,0.0,0.0,0.0,0.0,0.0,0.0,0.0,0.0,0.0,0.0,0.0,0.0,0.0,0.0,0.0,0.0,0.0,0.0,0.0,0.0,0.0,0.0,0.0,0.0,0.0,0.0,0.0,0.0,0.0,0.0,0.0,0.0,0.0,0.0,0.0,0.0,0.0,0.0,0.0,0.0,0.0,0.0,0.0,0.0,0.0,0.0,0.0,0.0,0.0,0.0,0.0,0.0,0.0,0.0,0.0,0.0,0.0,0.0,0.0,0.0,0.0,0.0,0.0,0.0,0.0,0.0,0.0,0.0,0.0,0.0,0.0,0.0,0.0,0.0,0.0,0.0,0.0,0.0,0.0,0.0,0.0,0.0,0.0,0.0,0.0,0.0,0.0,7.1629,7.6852,8.0608,8.1507,8.2217,8.2346,8.155,8.1398,7.9576,7.5397,0.0,0.0,0.0,0.0,0.0,0.0,0.0,0.0,0.0,0.0,0.0,0.0,0.0,0.0,0.0,0.0,0.0,0.0,0.0,0.0,0.0,0.0,0.0,0.0,0.0,0.0,0.0,0.0,0.0,0.0,0.0,0.0,0.0,0.0,0.0,0.0,0.0,0.0,0.0,0.0,0.0,0.0,0.0,0.0,0.0,0.0,0.0,0.0,0.0,0.0,0.0,0.0,0.0,0.0,0.0,0.0,0.0,0.0,0.0,0.0,0.0,0.0,0.0,0.0,0.0,0.0,0.0,0.0,0.0,0.0,0.0,0.0,0.0,0.0,0.0,0.0,0.0,0.0,0.0,0.0,0.0,0.0,0.0,0.0,0.0,0.0,0.0,0.0,0.0,0.0,0.0,0.0,0.0,0.0,0.0,0.0,0.0,0.0,0.0,0.0,0.0,0.0,6.9868,7.5073,7.8635,7.902,7.9724,8.0088,7.9725,7.9312,7.7013,7.229,0.0,0.0,0.0,0.0,0.0,0.0,0.0,0.0,0.0,0.0,0.0,0.0,0.0,0.0,0.0,0.0,0.0,0.0,0.0,0.0,0.0,0.0,0.0,0.0,0.0,0.0,0.0,0.0,0.0,0.0,0.0,0.0,0.0,0.0,0.0,0.0,0.0,0.0,0.0,0.0,0.0,0.0,0.0,0.0,0.0,0.0,0.0,0.0,0.0,0.0,0.0,0.0,0.0,0.0,0.0,0.0,0.0,0.0,0.0,0.0,0.0,0.0,0.0,0.0,0.0,0.0,0.0,0.0,0.0,0.0,0.0,0.0,0.0,0.0,0.0,0.0,0.0,0.0,0.0,0.0,0.0,0.0,0.0,0.0,0.0,0.0,0.0,0.0,0.0,0.0,0.0,0.0,0.0,0.0,0.0,0.0,0.0,0.0,0.0,0.0,0.0,0.0,6.823,7.3647,7.7211,7.7209,7.7908,7.8309,7.8067,7.7734,7.5184,6.9649,0.0,0.0,0.0,0.0,0.0,0.0,0.0,0.0,0.0,0.0,0.0,0.0,0.0,0.0,0.0,0.0,0.0,0.0,0.0,0.0,0.0,0.0,0.0,0.0,0.0,0.0,0.0,0.0,0.0,0.0,0.0,0.0,0.0,0.0,0.0,0.0,0.0,0.0,0.0,0.0,0.0,0.0,0.0,0.0,0.0,0.0,0.0,0.0,0.0,0.0,0.0,0.0,0.0,0.0,0.0,0.0,0.0,0.0,0.0,0.0,0.0,0.0,0.0,0.0,0.0,0.0,0.0,0.0,0.0,0.0,0.0,0.0,0.0,0.0,0.0,0.0,0.0,0.0,0.0,0.0,0.0,0.0,0.0,0.0,0.0,0.0,0.0,0.0,0.0,0.0,0.0,0.0,0.0,0.0,0.0,0.0,0.0,0.0,0.0,0.0,0.0,0.0,6.6697,7.2494,7.6416,7.6416,7.7105,7.7269,7.646,7.7136,7.4743,0.0,0.0,0.0,0.0,0.0,0.0,0.0,0.0,0.0,0.0,0.0,0.0,0.0,0.0,0.0,0.0,0.0,0.0,0.0,0.0,0.0,0.0,0.0,0.0,0.0,0.0,0.0,0.0,0.0,0.0,0.0,0.0,0.0,0.0,0.0,0.0,0.0,0.0,0.0,0.0,0.0,0.0,0.0,0.0,0.0,0.0,0.0,0.0,0.0,0.0,0.0,0.0,0.0,0.0,0.0,0.0,0.0,0.0,0.0,0.0,0.0,0.0,0.0,0.0,0.0,0.0,0.0,0.0,0.0,0.0,0.0,0.0,0.0,0.0,0.0,0.0,0.0,0.0,0.0,0.0,0.0,0.0,0.0,0.0,0.0,0.0,0.0,0.0,0.0,0.0,0.0,0.0,0.0,0.0,0.0,0.0,0.0,0.0,0.0,0.0,0.0,0.0,0.0,6.6411,7.0048,7.3094,7.5205,7.5222,7.517,7.5557,7.425,7.1572,6.7254,0.0,0.0,0.0,0.0,0.0,0.0,0.0,0.0,0.0,0.0,0.0,0.0,0.0,0.0,0.0,0.0,0.0,0.0,0.0,0.0,0.0,0.0,0.0,0.0,0.0,0.0,0.0,0.0,0.0,0.0,0.0,0.0,0.0,0.0,0.0,0.0,0.0,0.0,0.0,0.0,0.0,0.0,0.0,0.0,0.0,0.0,0.0,0.0,0.0,0.0,0.0,0.0,0.0,0.0,0.0,0.0,0.0,0.0,0.0,0.0,0.0,0.0,0.0,0.0,0.0,0.0,0.0,0.0,0.0,0.0,0.0,0.0,0.0,0.0,0.0,0.0,0.0,0.0,0.0,0.0,0.0,0.0,0.0,0.0,0.0,0.0,0.0,0.0,0.0,0.0,0.0,0.0,0.0,0.0,0.0,0.0,0.0,0.0,0.0,0.0,0.0,0.0,0.0,6.905,7.2007,7.3928,7.3679,7.3408,7.3394,7.2535,7.0089,6.5647,0.0,0.0,0.0,0.0,0.0,0.0,0.0,0.0,0.0,0.0,0.0,0.0,0.0,0.0,0.0,0.0,0.0,0.0,0.0,0.0,0.0,0.0,0.0,0.0,0.0,0.0,0.0,0.0,0.0,0.0,0.0,0.0,0.0,0.0,0.0,0.0,0.0,0.0,0.0,0.0,0.0,0.0,0.0,0.0,0.0,0.0,0.0,0.0,0.0,0.0,0.0,0.0,0.0,0.0,0.0,0.0,0.0,0.0,0.0,0.0,0.0,0.0,0.0,0.0,0.0,0.0,0.0,0.0,0.0,0.0,0.0,0.0,0.0,0.0,0.0,0.0,0.0,0.0,0.0,0.0,0.0,0.0,0.0,0.0,0.0,0.0,0.0,0.0,0.0,0.0,0.0,0.0,0.0,0.0,0.0,0.0,0.0,0.0,0.0,0.0,0.0,0.0,0.0,6.905,7.2363,7.2612,7.2577,7.1936,7.0475,7.1483,6.9605,6.3486,6.2211,0.0,0.0,0.0,0.0,0.0,0.0,0.0,0.0,0.0,0.0,0.0,0.0,0.0,0.0,0.0,0.0,0.0,0.0,0.0,0.0,0.0,0.0,0.0,0.0,0.0,0.0,0.0,0.0,0.0,0.0,0.0,0.0,0.0,0.0,0.0,0.0,0.0,0.0,0.0,0.0,0.0,0.0,0.0,0.0,0.0,0.0,0.0,0.0,0.0,0.0,0.0,0.0,0.0,0.0,0.0,0.0,0.0,0.0,0.0,0.0,0.0,0.0,0.0,0.0,0.0,0.0,0.0,0.0,0.0,0.0,0.0,0.0,0.0,0.0,0.0,0.0,0.0,0.0,0.0,0.0,0.0,0.0,0.0,0.0,0.0,0.0,0.0,0.0,0.0,0.0,0.0,0.0,0.0,0.0,0.0,0.0,0.0,0.0,0.0,0.0,0.0,0.0,6.6698,6.9156,7.1542,7.1294,7.076,7.0404,6.8508,6.5957,6.2643,6.003,0.0,0.0,0.0,0.0,0.0,0.0,0.0,0.0,0.0,0.0,0.0,0.0,0.0,0.0,0.0,0.0,0.0,0.0,0.0,0.0,0.0,0.0,0.0,0.0,0.0,0.0,0.0,0.0,0.0,0.0,0.0,0.0,0.0,0.0,0.0,0.0,0.0,0.0,0.0,0.0,0.0,0.0,0.0,0.0,0.0,0.0,0.0,0.0,0.0,0.0,0.0,0.0,0.0,0.0,0.0,0.0,0.0,0.0,0.0,0.0,0.0,0.0,0.0,0.0,0.0,0.0,0.0,0.0,0.0,0.0,0.0,0.0,0.0,0.0,0.0,0.0,0.0,0.0,0.0,0.0,0.0,0.0,0.0,0.0,0.0,0.0,0.0,0.0,0.0,0.0,0.0,0.0,0.0,0.0,0.0,0.0,0.0,0.0,0.0,0.0,0.0,0.0,6.2276,6.5271,6.9477,6.9548,6.9014,6.8266,6.7004,6.4778,6.1345,5.8207,0.0,0.0,0.0,0.0,0.0,0.0,0.0,0.0,0.0,0.0,0.0,0.0,0.0,0.0,0.0,0.0,0.0,0.0,0.0,0.0,0.0,0.0,0.0,0.0,0.0,0.0,0.0,0.0,0.0,0.0,0.0,0.0,0.0,0.0,0.0,0.0,0.0,0.0,0.0,0.0,0.0,0.0,0.0,0.0,0.0,0.0,0.0,0.0,0.0,0.0,0.0,0.0,0.0,0.0,0.0,0.0,0.0,0.0,0.0,0.0,0.0,0.0,0.0,0.0,0.0,0.0,0.0,0.0,0.0,0.0,0.0,0.0,0.0,0.0,0.0,0.0,0.0,0.0,0.0,0.0,0.0,0.0,0.0,0.0,0.0,0.0,0.0,0.0,0.0,0.0,0.0,0.0,0.0,0.0,0.0,0.0,0.0,0.0,0.0,0.0,0.0,0.0,0.0,6.1508,6.6289,6.7452,6.7268,6.5807,6.6091,6.4423,5.9985,0.0,0.0,0.0,0.0,0.0,0.0,0.0,0.0,0.0,0.0,0.0,0.0,0.0,0.0,0.0,0.0,0.0,0.0,0.0,0.0,0.0,0.0,0.0,0.0,0.0,0.0,0.0,0.0,0.0,0.0,0.0,0.0,0.0,0.0,0.0,0.0,0.0,0.0,0.0,0.0,0.0,0.0,0.0,0.0,0.0,0.0,0.0,0.0,0.0,0.0,0.0,0.0,0.0,0.0,0.0,0.0,0.0,0.0,0.0,0.0,0.0,0.0,0.0,0.0,0.0,0.0,0.0,0.0,0.0,0.0,0.0,0.0,0.0,0.0,0.0,0.0,0.0,0.0,0.0,0.0,0.0,0.0,0.0,0.0,0.0,0.0,0.0,0.0,0.0,0.0,0.0,0.0,0.0,0.0,0.0,0.0,0.0,0.0,0.0,0.0,0.0,0.0,0.0,0.0,5.9466,6.0972,6.469,6.6662,6.5772,6.4586,6.2475,5.9104,0.0,0.0,0.0,0.0,0.0,0.0,0.0,0.0,0.0,0.0,0.0,0.0,0.0,0.0]}]]]